[[{"header":{"parameterUnit":"m.s-1","parameterCategory":1,"la1":30.6,"la2":29.2853,"lo1":-89.7004,"lo2":-87.6739,"dy":0.0162,"dx":0.0183,"nx":112,"ny":82,"refTime":"2026-03-13T00:00:00:Z","depth":0,"parameterNumber":2,"parameterNumberName":"U-component_of_WINDS"},"data":[0.0,0.0,0.0,0.0,0.0,0.0,0.0,0.0,0.0,0.0,0.0,0.0,0.0,0.0,0.0,0.0,0.0,0.0,0.0,0.0,0.0,0.0,0.0,0.0,0.0,0.0,0.0,0.0,0.0,0.0,0.0,0.0,0.0,0.0,0.0,0.0,0.0,0.0,0.0,0.0,0.0,0.0,0.0,0.0,0.0,0.0,0.0,0.0,0.0,0.0,0.0,0.0,0.0,0.0,0.0,0.0,0.0,0.0,0.0,0.0,0.0,0.0,0.0,0.0,0.0,0.0,0.0,0.0,0.0,0.0,0.0,0.0,0.0,0.0,0.0,0.0,0.0,0.0,0.0,0.0,0.0,0.0,0.0,0.0,0.0,0.0,0.0,0.0,0.0,0.0,0.0,0.4347,0.2156,0.0188,-0.1365,-0.176,-0.1696,-0.1162,0.0,0.0,0.0,0.0,0.0,0.0,0.0,0.0,0.0,0.0,0.0,0.0,0.0,0.0,0.0,0.0,0.0,0.0,0.0,0.0,0.0,0.0,0.0,0.0,0.0,0.0,0.0,0.0,0.0,0.0,0.0,0.0,0.0,0.0,0.0,0.0,0.0,0.0,0.0,0.0,0.0,0.0,0.0,0.0,0.0,0.0,0.0,0.0,0.0,0.0,0.0,0.0,0.0,0.0,0.0,0.0,0.0,0.0,0.0,0.0,0.0,0.0,0.0,0.0,0.0,0.0,0.0,0.0,0.0,0.0,0.0,0.0,0.0,0.0,0.0,0.0,0.0,0.0,0.0,0.0,0.0,0.0,0.0,0.0,0.0,0.0,0.0,0.0,0.0,0.0,0.0,0.0,0.0,0.0,0.0,0.0,0.0,0.0,0.0,0.0,0.0,0.0,0.0,0.0,0.4876,0.2479,0.0338,-0.1327,-0.2316,-0.2452,-0.2128,-0.1323,0.0,0.0,0.0,0.0,0.0,0.0,0.0,0.0,0.0,0.0,0.0,0.0,0.0,0.0,0.0,0.0,0.0,0.0,0.0,0.0,0.0,0.0,0.0,0.0,0.0,0.0,0.0,0.0,0.0,0.0,0.0,0.0,0.0,0.0,0.0,0.0,0.0,0.0,0.0,0.0,0.0,0.0,0.0,0.0,0.0,0.0,0.0,0.0,0.0,0.0,0.0,0.0,0.0,0.0,0.0,0.0,0.0,0.0,0.0,0.0,0.0,0.0,0.0,0.0,0.0,0.0,0.0,0.0,0.0,0.0,0.0,0.0,0.0,0.0,0.0,0.0,0.0,0.0,0.0,0.0,0.0,0.0,0.0,0.0,0.0,0.0,0.0,0.0,0.0,0.0,0.0,0.0,0.0,0.0,0.0,0.0,0.0,0.0,0.0,0.0,0.0,0.0,0.0,0.4305,0.2609,0.0456,-0.1113,-0.2356,-0.3233,-0.2906,-0.2347,-0.1612,-0.1077,0.0,0.0,0.0,0.0,0.0,0.0,0.0,0.0,0.0,0.0,0.0,0.0,0.0,0.0,0.0,0.0,0.0,0.0,0.0,0.0,0.0,0.0,0.0,0.0,0.0,0.0,0.0,0.0,0.0,0.0,0.0,0.0,0.0,0.0,0.0,0.0,0.0,0.0,0.0,0.0,0.0,0.0,0.0,0.0,0.0,0.0,0.0,0.0,0.0,0.0,0.0,0.0,0.0,0.0,0.0,0.0,0.0,0.0,0.0,0.0,0.0,0.0,0.0,0.0,0.0,0.0,0.0,0.0,0.0,0.0,0.0,0.0,0.0,0.0,0.0,0.0,0.0,0.0,0.0,0.0,0.0,0.0,0.0,0.0,0.0,0.0,0.0,0.0,0.0,0.0,0.0,0.0,0.0,0.0,0.0,0.0,0.0,0.0,0.0,0.0,0.0,0.0,0.2643,0.072,-0.1332,-0.2422,-0.3275,-0.3945,-0.3217,-0.2455,-0.1842,-0.1065,0.0,0.0,0.0,0.0,0.0,0.0,0.0,0.0,0.0,0.0,0.0,0.0,0.0,0.0,0.0,0.0,0.0,0.0,0.0,0.0,0.0,0.0,0.0,0.0,0.0,0.0,0.0,0.0,0.0,0.0,0.0,0.0,0.0,0.0,0.0,0.0,0.0,0.0,0.0,0.0,0.0,0.0,0.0,0.0,0.0,0.0,0.0,0.0,0.0,0.0,0.0,0.0,0.0,0.0,0.0,0.0,0.0,0.0,0.0,0.0,0.0,0.0,0.0,0.0,0.0,0.0,0.0,0.0,0.0,0.0,0.0,0.0,0.0,0.0,0.0,0.0,0.0,0.0,0.0,0.0,0.0,0.0,0.0,0.0,0.0,0.0,0.0,0.0,0.0,0.0,0.0,0.0,0.0,0.0,0.0,0.0,0.0,0.0,0.0,0.0,0.0,0.0,0.1675,0.0179,-0.2578,-0.3657,-0.4206,-0.4273,-0.3361,-0.2516,-0.1841,-0.093,0.0,0.0,0.0,0.0,0.0,0.0,0.0,0.0,0.0,0.0,0.0,0.0,0.0,0.0,0.0,0.0,0.0,0.0,0.0,0.0,0.0,0.0,0.0,0.0,0.0,0.0,0.0,0.0,0.0,0.0,0.0,0.0,0.0,0.0,0.0,0.0,0.0,0.0,0.0,0.0,0.0,0.0,0.0,0.0,0.0,0.0,0.0,0.0,0.0,0.0,0.0,0.0,0.0,0.0,0.0,0.0,0.0,0.0,0.0,0.0,0.0,0.0,0.0,0.0,0.0,0.0,0.0,0.0,0.0,0.0,0.0,0.0,0.0,0.0,0.0,0.0,0.0,0.0,0.0,0.0,0.0,0.0,0.0,0.0,0.0,0.0,0.0,0.0,0.0,0.0,0.0,0.0,0.0,0.0,0.0,0.0,0.0,0.0,0.0,0.0,0.0,0.0,-0.0342,-0.1962,0.0,-0.4204,-0.4234,-0.4065,-0.3244,-0.238,-0.1542,0.0,0.0,0.0,0.0,0.0,0.0,0.0,0.0,0.0,0.0,0.0,0.0,0.0,0.0,0.0,0.0,0.0,0.0,0.0,0.0,0.0,0.0,0.0,0.0,0.0,0.0,0.0,0.0,0.0,0.0,0.0,0.0,0.0,0.0,0.0,0.0,0.0,0.0,0.0,0.0,0.0,0.0,0.0,0.0,0.0,0.0,0.0,0.0,0.0,0.0,0.0,0.0,0.0,0.0,0.0,0.0,0.0,0.0,0.0,0.0,0.0,0.0,0.0,0.0,0.0,0.0,0.0,0.0,0.0,0.0,0.0,0.0,0.0,0.0,0.0,0.0,0.0,0.0,0.0,0.0,0.0,0.0,0.0,0.0,0.0,0.0,0.0,0.0,0.0,0.0,0.0,0.0,0.0,0.0,0.0,0.0,0.0,0.0,0.0,0.0,0.0,0.0,-0.0178,-0.1931,-0.347,0.0,-0.4489,-0.4113,-0.3652,-0.2878,-0.2078,-0.1284,0.0,0.0,0.0,0.0,0.0,0.0,0.0,0.0,0.0,0.0,0.0,0.0,0.0,0.0,0.0,0.0,0.0,0.0,0.0,0.0,0.0,0.0,0.0,0.0,0.0,0.0,0.0,0.0,0.0,0.0,0.0,0.0,0.0,0.0,0.0,0.0,0.0,0.0,0.0,0.0,0.0,0.0,0.0,0.0,0.0,0.0,0.0,0.0,0.0,0.0,0.0,0.0,0.0,0.0,0.0,0.0,0.0,0.0,0.0,0.0,0.0,0.0,0.0,0.0,0.0,0.0,0.0,0.0,0.0,0.0,0.0,0.0,0.0,0.0,0.0,0.0,0.0,0.0,0.0,0.0,0.0,0.0,0.0,0.0,0.0,0.0,0.0,0.0,0.0,0.0,0.0,0.0,0.0,0.0,0.0,0.0,0.0,0.0,0.0,0.0,0.0,0.0,-0.141,-0.2875,-0.4014,-0.4809,-0.4529,-0.3933,-0.3068,-0.2259,-0.16,0.0,0.0,0.0,0.0,0.0,0.0,0.0,0.0,0.0,0.0,0.0,0.0,0.0,0.0,0.0,0.0,0.0,0.0,0.0,0.0,0.0,0.0,0.0,0.0,0.0,0.0,0.0,0.0,0.0,0.0,0.0,0.0,0.0,0.0,0.0,0.0,0.0,0.0,0.0,0.0,0.0,0.0,0.0,0.0,0.0,0.0,0.0,0.0,0.0,0.0,0.0,0.0,0.0,0.0,0.0,0.0,0.0,0.0,0.0,0.0,0.0,0.0,0.0,0.0,0.0,0.0,0.0,0.0,0.0,0.0,0.0,0.0,0.0,0.0,0.0,0.0,0.0,0.0,0.0,0.0,0.0,0.0,0.0,0.0,0.0,0.0,0.0,0.0,0.0,0.0,0.0,0.0,0.0,0.0,0.0,0.0,0.0,0.0,0.0,0.0,0.0,0.0,0.0,-0.1715,-0.3243,-0.4243,-0.439,-0.3956,-0.3412,-0.2769,-0.2159,-0.1458,-0.0658,0.0,0.0,0.0,0.0,0.0,0.0,0.0,0.0,0.0,0.0,0.0,0.0,0.0,0.0,0.0,0.0,0.0,0.0,0.0,0.0,0.0,0.0,0.0,0.0,0.0,0.0,0.0,0.0,0.0,0.0,0.0,0.0,0.0,0.0,0.0,0.0,0.0,0.0,0.0,0.0,0.0,0.0,0.0,0.0,0.0,0.0,0.0,0.0,0.0,0.0,0.0,0.0,0.0,0.0,0.0,0.0,0.0,0.0,0.0,0.0,0.0,0.0,0.0,0.0,0.0,0.0,0.0,0.0,0.0,0.0,0.0,0.0,0.0,0.0,0.0,0.0,0.0,0.0,0.0,0.0,0.0,0.0,0.0,0.0,0.0,0.0,0.0,0.0,0.0,0.0,0.0,0.0,0.0,0.0,0.0,0.0,0.0,0.0,0.0,0.0,0.0,0.0,-0.2487,-0.3829,-0.4544,-0.4206,-0.3748,-0.319,-0.2459,-0.1959,-0.1369,-0.0642,0.0,0.0,0.0,0.0,0.0,0.0,0.0,0.0,0.0,0.0,0.0,0.0,0.0,0.0,0.0,0.0,0.0,0.0,0.0,0.0,0.0,0.0,0.0,0.0,0.0,0.0,0.0,0.0,0.0,0.0,0.0,0.0,0.0,0.0,0.0,0.0,0.0,0.0,0.0,0.0,0.0,0.0,0.0,0.0,0.0,0.0,0.0,0.0,0.0,0.0,0.0,0.0,0.0,0.0,0.0,0.0,0.0,0.0,0.0,0.0,0.0,0.0,0.0,0.0,0.0,0.0,0.0,0.0,0.0,0.0,0.0,0.0,0.0,0.0,0.0,0.0,0.0,0.0,0.0,0.0,0.0,0.0,0.0,0.0,0.0,0.0,0.0,0.0,0.0,0.0,0.0,0.0,0.0,0.0,0.0,0.0,0.0,0.0,0.0,0.0,0.0,0.0,-0.356,-0.4437,-0.4726,-0.4096,-0.3724,-0.3135,-0.2178,-0.1716,-0.1303,-0.0882,0.0,0.0,0.0,0.0,0.0,0.0,0.0,0.0,0.0,0.0,0.0,0.0,0.0,0.0,0.0,0.0,0.0,0.0,0.0,0.0,0.0,0.0,0.0,0.0,0.0,0.0,0.0,0.0,0.0,0.0,0.0,0.0,0.0,0.0,0.0,0.0,0.0,0.0,0.0,0.0,0.0,0.0,0.0,0.0,0.0,0.0,0.0,0.0,0.0,0.0,0.0,0.0,0.0,0.0,0.0,0.0,0.0,0.0,0.0,0.0,-0.0127,0.0,0.0,0.0,0.0,0.0,0.0,0.0,0.0,0.0,0.0,0.0,0.0,0.0,0.0,0.0,0.0,0.0,0.0,0.0,0.0,0.0,0.0,0.0,0.0,0.0,0.0,0.0,0.0,0.0,0.0,0.0,0.0,0.0,0.0,0.0,0.0,0.0,0.0,0.0,0.0,0.0,-0.4331,-0.418,-0.3832,-0.3576,-0.3155,-0.2681,-0.2146,-0.1636,-0.1106,-0.0541,0.0,0.0,0.0,0.0,0.0,0.0,0.0,0.0,0.0,0.0,0.0,0.0,0.0,0.0,0.0,0.0,0.0,0.0,0.0,0.0,0.0,0.0,0.0,0.0,0.0,0.0,0.0,0.0,0.0,0.0,0.0,0.0,0.0,0.0,0.0,0.0,0.0,0.0,0.0,0.0,0.0,0.0,0.0,0.0,0.0,0.0,0.0,0.0,0.0,0.0,0.0,0.0,0.0,0.0,0.0,0.0,0.0,0.0,0.0,0.0,0.0,-0.0802,0.0,0.0,0.0,0.0,0.0,0.0,0.0,0.0,0.0,0.0,0.0,0.0,0.0,0.0,0.0,0.0,0.0,0.0,0.0,0.0,0.0,0.0,0.0,0.0,0.0,0.0,0.0,0.0,0.0,0.0,0.0,0.0,0.0,0.0,0.0,0.0,0.0,0.0,0.0,0.0,-0.5105,-0.4655,-0.422,-0.4345,-0.3824,-0.3289,-0.2858,-0.2124,-0.1431,-0.0824,-0.0312,0.0,0.0,0.0,0.0,0.0,0.0,0.0,0.0,0.0,0.0,0.0,0.0,0.0,0.0,0.0,0.0,0.0,0.0,0.0,0.0,0.0,0.0,0.0,0.0,0.0,0.0,0.0,0.0,0.0,0.0,0.0,0.0,0.0,0.0,0.0,0.0,0.0,0.0,0.0,0.0,0.0,0.0,0.0,0.0,0.0,0.0,0.0,0.0,0.0,0.0,0.0,0.0,0.0,0.0,-0.7382,-0.6955,-0.724,-0.7552,-0.7645,-0.4403,-0.2613,-0.1891,0.0,0.0,0.0,0.0,0.0,0.0,0.0,0.0,0.0,0.0,0.0,0.0,0.0,0.0,0.0,0.0,0.0,0.0,0.0,0.0,0.0,0.0,0.0,0.0,0.0,-0.4577,-0.4024,0.0,0.0,0.0,0.0,0.0,0.0,0.0,0.0,0.0,0.0,0.0,0.0,-0.5722,-0.536,-0.5098,-0.5434,-0.4849,-0.4269,-0.3863,-0.2885,-0.2045,-0.1464,-0.0834,-0.0203,0.0,0.0,0.0,0.0,0.0,0.0,0.0,0.0,0.0,0.0,0.0,0.0,0.0,0.0,0.0,0.0,0.0,0.0,0.0,0.0,0.0,0.0,0.0,0.0,0.0,0.0,0.0,0.0,0.0,0.0,0.0,0.0,-0.2164,-0.316,0.0,0.0,0.0,0.0,0.0,0.0,0.0,0.0,0.0,0.0,0.0,0.0,0.0,0.0,-0.8686,-0.9383,-0.9939,-1.039,-0.9648,-0.9374,-0.9492,-0.909,-0.8692,-0.825,-0.7102,0.0,-0.4472,-0.28,0.0,0.0,0.0,0.0,0.0,0.0,0.0,0.0,0.0,0.0,0.0,0.0,0.0,0.0,0.0,0.0,0.0,0.0,0.0,0.0,0.0,0.0,-0.4572,-0.4991,-0.5105,-0.4984,0.0,-0.3772,-0.296,-0.2214,0.0,0.0,0.0,0.0,0.0,0.0,0.0,0.0,-0.5868,-0.5769,-0.569,-0.5741,-0.5292,-0.4919,-0.4746,-0.3701,-0.2853,-0.2361,-0.1392,-0.061,-0.0115,0.0377,0.0,0.0,0.0,0.0,0.0,0.0,0.0,0.0,0.0,0.0,0.0,0.0,0.0,0.0,0.0,0.0,0.0,0.0,0.0,0.0,0.0,0.0,0.0,0.0,0.0,0.0,0.0,0.0,0.0,-0.3289,-0.4255,-0.4322,-0.4363,-0.4422,0.0,0.0,0.0,0.0,0.0,0.0,0.0,0.0,0.0,-0.8613,-0.8192,-0.8631,-1.0018,-1.0744,-1.101,-1.0816,-1.0531,-1.0572,-1.0903,-1.1165,-1.1091,-1.0727,-1.0225,-0.9371,-0.8102,-0.4822,-0.3287,-0.2973,0.0,0.0,0.0,0.0,0.0,-0.3436,-0.3068,0.0,0.0,0.0,0.0,0.0,0.0,0.0,0.0,0.0,0.0,0.0,0.0,0.0,0.0,-0.7804,-0.7442,-0.7039,-0.698,-0.623,-0.5259,0.0,-0.3868,-0.3861,-0.4186,0.0,0.0,0.0,0.0,0.0,-0.6921,-0.6672,-0.6521,-0.6784,-0.6226,-0.5734,-0.5478,-0.455,-0.3673,-0.294,-0.2205,-0.1438,-0.0626,-0.0114,0.0377,0.0,0.0,0.0,0.0,0.0,0.0,0.0,0.0,0.0,0.0,0.0,0.0,0.0,0.0,0.0,0.0,0.0,0.0,0.0,0.0,0.0,0.0,0.0,0.0,0.0,0.0,0.0,0.0,-0.5083,-0.5828,-0.5501,-0.5648,-0.5719,0.0,0.0,0.0,0.0,0.0,0.0,-0.9045,-0.9257,-0.9679,-1.0423,-1.0708,-1.0989,-1.131,-1.2257,-1.2439,-1.1884,-1.2081,-1.2331,-1.2635,-1.3216,-1.3377,-1.3164,-1.2816,-1.247,-1.1843,-0.7746,-0.5959,-0.5911,-0.6878,-0.7028,0.0,-0.6803,-0.6554,-0.6112,-0.578,-0.5326,-0.4771,-0.4057,0.0,-0.351,-0.3145,0.0,0.0,0.0,0.0,-0.7109,-0.8921,0.0,-0.9965,-0.9908,-0.9363,-0.8865,-0.8865,-0.8341,-0.7437,0.0,-0.558,-0.5637,-0.5781,0.0,0.0,0.0,0.0,-0.6712,-0.7533,-0.7368,-0.7284,-0.7636,-0.7042,-0.651,-0.6249,-0.5386,-0.4466,-0.3569,-0.2983,-0.2188,-0.1097,-0.0569,-0.0027,0.056,0.0,0.0,0.0,0.0,0.0,0.0,0.0,0.0,0.0,0.0,0.0,0.0,0.0,0.0,0.0,0.0,0.0,0.0,0.0,0.0,0.0,0.0,0.0,0.0,0.0,0.0,0.0,0.0,0.0,-0.6915,-0.656,0.0,0.0,0.0,0.0,-0.8749,-0.9773,-1.0422,-1.0495,-1.0503,-1.0621,-1.086,-1.2157,-1.2981,-1.327,-1.5112,-1.5822,-1.5356,-1.5363,-1.538,-1.5397,-1.5174,-1.4978,-1.477,-1.4351,-1.4711,-1.531,-1.2156,-1.0264,-0.9497,-1.0926,-1.0645,-0.9398,-0.9411,-0.8804,-0.7928,-0.7588,-0.7283,-0.699,-0.6695,-0.6424,-0.6305,-0.6781,-0.7087,0.0,0.0,-0.9113,-0.9718,-0.9836,-1.0016,-1.0139,-0.9938,-0.9866,-0.9836,-0.9836,-0.9797,-0.9083,0.0,-0.6346,-0.6346,-0.636,0.0,-0.663,-0.6603,-0.7282,-0.7593,-0.7032,-0.7473,-0.7862,-0.7885,-0.745,-0.7154,-0.7138,-0.6161,-0.5211,-0.4396,-0.36,-0.2652,-0.1516,-0.0895,-0.0323,0.0213,0.0863,0.0,0.0,0.0,0.0,0.0,0.0,0.0,0.0,0.0,0.0,0.0,0.0,0.0,0.0,0.0,0.0,0.0,0.0,0.0,0.0,0.0,0.0,0.0,0.0,0.0,0.0,0.0,0.0,-0.8432,-0.8698,0.0,-0.9081,-0.9454,-0.9772,-0.997,-1.0367,-1.1075,-1.2148,-1.2206,-1.2738,-1.3892,-1.442,-1.4718,-1.481,-1.5494,-1.5764,-1.5595,-1.59,-1.5883,-1.5612,-1.5809,-1.5701,-1.5341,-1.5191,-1.5342,-1.5579,-1.4304,-1.2806,-1.1475,-1.2874,-1.2726,-1.1707,-1.1584,-1.1292,-1.0952,-1.0601,-1.0424,-1.0224,-0.9377,-0.882,-0.8484,-0.8638,-0.874,-0.9006,-0.984,-1.0279,-1.0587,-1.1007,-1.1183,-1.1207,-1.1137,-1.0793,-1.0479,-1.0479,-1.0165,-0.9654,-0.8821,-0.8649,-0.8649,-0.8649,-0.8353,-0.8117,-0.8079,-0.7983,-0.7809,-0.7578,-0.7749,-0.7899,-0.7899,-0.7635,-0.7387,-0.7211,-0.6732,-0.5924,-0.4739,-0.4228,-0.3388,-0.2065,-0.1394,-0.0817,-0.0323,0.0427,0.1045,0.0,0.0,0.0,0.0,0.0,0.0,0.0,0.0,0.0,0.0,0.0,0.0,0.0,0.0,0.0,0.0,0.0,0.0,0.0,0.0,0.0,0.0,0.0,0.0,0.0,0.0,-0.9698,-0.9764,-1.0415,-1.084,-1.0783,-1.1283,-1.1667,-1.1801,-1.2115,-1.277,-1.3877,-1.3937,-1.4452,-1.5561,-1.5842,-1.5977,-1.5977,-1.6221,-1.6339,-1.6356,-1.6661,-1.6644,-1.6356,-1.6661,-1.6644,-1.6339,-1.6339,-1.6339,-1.6329,-1.6145,-1.5165,-1.3834,-1.4295,-1.4027,-1.3374,-1.3348,-1.3346,-1.3267,-1.2794,-1.2644,-1.2478,-1.1465,-1.0841,-1.0507,-1.0688,-1.0525,-1.0446,-1.1255,-1.1388,-1.1354,-1.1707,-1.188,-1.1908,-1.1826,-1.145,-1.1136,-1.1136,-1.0822,-1.0533,-1.0533,-1.0189,-0.989,-0.989,-0.9533,-0.9242,-0.9242,-0.8859,-0.8566,-0.8566,-0.8379,-0.8237,-0.8237,-0.7856,-0.7485,-0.7233,-0.7021,-0.6377,-0.5148,-0.4814,-0.4069,-0.2725,-0.2115,-0.1505,-0.0846,0.0019,0.0731,0.1271,0.0,0.0,0.0,0.0,0.0,0.0,0.0,0.0,0.0,0.0,0.0,0.0,0.0,0.0,0.0,0.0,0.0,0.0,0.0,0.0,0.0,0.0,0.0,-0.8845,-0.9565,-1.0326,-1.0912,-1.165,-1.2042,-1.1833,-1.329,-1.4248,-1.4248,-1.5095,-1.5612,-1.5629,-1.5629,-1.5646,-1.5663,-1.6367,-1.6733,-1.6733,-1.7439,-1.78,-1.78,-1.78,-1.78,-1.78,-1.78,-1.78,-1.78,-1.78,-1.78,-1.78,-1.78,-1.7371,-1.6612,-1.5348,-1.4643,-1.4372,-1.4708,-1.4815,-1.4718,-1.4004,-1.3768,-1.3645,-1.2899,-1.2495,-1.2401,-1.3019,-1.2571,-1.1999,-1.2639,-1.2544,-1.2194,-1.19,-1.2012,-1.2148,-1.1869,-1.1805,-1.1805,-1.1805,-1.1805,-1.1805,-1.1805,-1.0802,-0.995,-0.995,-0.9935,-0.992,-0.992,-0.9905,0.0,-0.989,-0.9323,-0.892,-0.8905,-0.8136,-0.7529,-0.7241,-0.7037,-0.6549,-0.5671,-0.5348,-0.4668,-0.349,-0.3031,-0.2337,-0.1333,-0.0347,0.0488,0.1167,0.0,0.0,0.0,0.0,0.0,0.0,0.0,0.0,0.0,0.0,0.0,0.0,0.0,0.0,0.0,0.0,0.0,0.0,0.0,0.0,0.0,0.0,-1.0301,-0.9746,-1.1292,-1.2526,-1.2688,-1.3834,-1.459,-1.4527,-1.4934,-1.5216,-1.5216,-1.5457,-1.5842,-1.6367,-1.64,-1.6637,-1.7174,-1.7388,-1.7507,-1.7507,-1.7698,-1.78,-1.78,-1.78,-1.78,-1.78,-1.78,-1.78,-1.78,-1.78,-1.78,-1.78,-1.78,-1.7693,-1.7411,-1.6517,-1.5798,-1.5248,-1.5359,-1.5372,-1.5355,-1.5155,-1.5088,-1.4968,-1.4331,-1.4073,-1.3978,-1.3706,-1.344,-1.3301,-1.3481,-1.344,-1.322,-1.2677,-1.2576,-1.249,-1.1931,-1.1805,-1.1805,-1.1805,-1.1805,-1.1805,-1.1805,-1.1521,-1.1281,-1.1281,-1.0867,-1.0553,-1.0553,0.0,0.0,-0.989,-0.9734,-0.9443,-0.895,-0.8692,-0.8247,-0.7551,-0.7446,-0.6996,0.0,-0.5436,-0.4911,-0.4439,-0.347,-0.2515,-0.1606,-0.113,-0.0436,0.0,0.0,0.0,0.0,0.0,0.0,0.0,0.0,0.0,0.0,0.0,0.0,0.0,0.0,0.0,0.0,0.0,0.0,0.0,0.0,0.0,0.0,-1.1586,-1.2009,-1.19,-1.2762,-1.3633,-1.4251,-1.5351,-1.6062,-1.6062,-1.6339,-1.6525,-1.6525,-1.6525,-1.6712,-1.7145,-1.7162,-1.7354,-1.7783,-1.78,-1.78,-1.78,-1.78,-1.78,-1.78,-1.78,-1.78,-1.78,-1.78,-1.78,0.0,-1.78,-1.78,-1.78,-1.78,-1.78,0.0,0.0,0.0,0.0,0.0,-1.6525,-1.6475,-1.618,-1.6062,-1.5923,-1.513,-1.4792,-1.4649,-1.4449,-1.4121,-1.3857,-1.4139,-1.4019,-1.3707,-1.3316,-1.3223,-1.3121,-1.2732,-1.2643,-1.2568,-1.228,-1.222,-1.2145,-1.185,0.0,0.0,-1.1805,-1.1491,-1.1226,-1.1226,-1.0922,-1.0698,0.0,-1.0458,-1.0129,-0.9734,-0.9473,-0.8964,-0.8091,-0.7915,0.0,0.0,0.0,-0.5423,-0.5108,-0.4012,0.0,0.0,0.0,0.0,0.0,0.0,0.0,0.0,0.1918,0.2477,0.0,0.0,0.0,0.0,0.0,0.0,0.0,0.0,0.0,0.0,0.0,0.0,0.0,0.0,0.0,0.0,-1.3117,-1.3912,-1.4639,-1.4174,-1.426,-1.5571,-1.6384,-1.6824,-1.6824,-1.7422,-1.78,-1.78,-1.78,-1.78,-1.78,0.0,0.0,0.0,0.0,-1.78,-1.78,-1.78,-1.78,-1.78,-1.78,-1.78,-1.78,-1.78,-1.78,-1.78,-1.78,-1.78,-1.78,-1.78,-1.78,-1.78,-1.78,-1.78,-1.78,-1.78,-1.78,0.0,0.0,0.0,0.0,-1.5561,-1.5063,-1.4928,-1.5188,-1.4691,-1.4154,-1.4751,-1.4483,-1.4006,-1.3932,-1.3902,-1.3887,-1.3812,-1.3797,-1.3645,-1.3044,-1.2909,-1.2744,-1.2134,-1.1969,-1.191,-1.191,-1.185,-1.1805,-1.1805,-1.1805,0.0,-1.1805,-1.1286,-1.0872,-1.0812,0.0,0.0,-0.8822,-0.8464,-0.7936,-0.7093,-0.6543,-0.6014,-0.5517,-0.4693,-0.415,-0.3939,-0.3464,-0.2974,-0.2443,-0.2077,-0.1746,-0.1425,0.0462,0.1493,0.0,0.0,0.0,0.0,0.0,0.0,0.0,0.0,0.0,0.0,0.0,0.0,0.0,0.0,0.0,-1.3296,-1.4374,-1.5436,-1.6164,-1.6147,-1.6174,-1.6451,-1.7134,-1.7591,-1.7591,-1.7715,-1.78,-1.78,-1.78,-1.78,-1.78,-1.78,0.0,-1.78,-1.78,-1.78,-1.78,-1.78,-1.78,-1.78,0.0,0.0,-1.78,-1.78,-1.78,-1.78,-1.78,-1.78,-1.78,-1.78,-1.78,-1.78,-1.78,-1.78,-1.78,-1.78,-1.78,-1.7732,-1.7336,-1.7176,-1.7065,-1.6305,-1.6043,-1.5956,-1.5755,-1.5556,0.0,-1.5574,-1.5514,-1.529,-1.4751,-1.4603,-1.4468,-1.3929,-1.3797,-1.3752,-1.3618,-1.3615,-1.3558,-1.3438,-1.2972,-1.2609,-1.2609,-1.216,-1.1805,-1.1805,-1.1805,-1.1805,-1.1805,-1.1685,-1.139,-1.0857,-1.0703,-1.0355,-0.9701,-0.911,-0.8528,-0.7983,-0.7053,-0.6192,-0.545,-0.5648,-0.5465,-0.4781,-0.4661,-0.4203,-0.3354,-0.3161,-0.2877,-0.2477,-0.0959,-0.0022,0.0,0.0,0.0,0.0,0.0,0.0,0.0,0.0,0.0,0.0,0.0,-1.17,-1.2174,0.0,-1.4527,-1.5245,-1.5803,-1.6417,-1.7162,-1.7253,-1.7253,-1.7253,-1.7591,-1.78,-1.78,-1.78,-1.78,-1.78,-1.78,-1.78,-1.78,-1.78,-1.78,-1.78,-1.78,-1.78,-1.78,-1.78,-1.78,-1.78,-1.78,-1.78,-1.78,-1.78,-1.78,-1.78,-1.78,-1.78,-1.78,-1.78,-1.78,-1.78,-1.78,-1.78,-1.78,-1.78,-1.7692,-1.7526,-1.7356,-1.7187,-1.6964,-1.6461,-1.6301,-1.6232,-1.5898,-1.5799,-1.5799,-1.5799,-1.5799,-1.5724,-1.5394,-1.529,-1.5215,-1.4886,-1.4811,-1.4707,-1.4378,-1.4303,-1.4199,-1.387,-1.354,-1.3193,-1.2861,-1.2519,-1.219,-1.185,-1.1805,-1.1805,-1.1805,-1.1805,-1.167,-1.1331,-1.1301,-1.0996,-1.0225,-0.9045,-0.8193,-0.7826,-0.7051,-0.6423,-0.6018,-0.6131,-0.6009,-0.5608,-0.55,-0.5149,-0.4548,-0.435,-0.4077,-0.373,-0.2892,-0.1944,0.0,0.0,0.0,0.0,0.0,0.0,0.0,0.0,-1.0698,-1.161,-1.2574,-1.3487,-1.4296,-1.5006,-1.5841,-1.6979,-1.7017,-1.7128,-1.7715,-1.78,-1.78,-1.78,-1.78,-1.78,-1.78,-1.78,-1.78,-1.78,-1.78,-1.78,-1.78,-1.78,-1.78,-1.78,-1.78,-1.78,-1.78,-1.78,-1.78,-1.78,-1.7726,-1.7692,-1.7692,-1.7692,-1.7692,-1.7704,-1.7777,-1.78,-1.78,-1.78,-1.78,-1.78,-1.78,-1.78,-1.78,-1.78,-1.7584,-1.728,-1.7236,-1.6977,-1.6646,-1.6299,-1.6205,-1.615,-1.5885,-1.5799,-1.5799,-1.5799,-1.5799,-1.5799,-1.5799,-1.5799,-1.5799,-1.5799,-1.5799,-1.5649,-1.511,-1.499,-1.4841,-1.4288,-1.4081,-1.3825,-1.3283,-1.3074,-1.2714,-1.1925,-1.1805,-1.1805,-1.1805,-1.1805,-1.1805,-1.1805,-1.1805,-1.1419,-1.0473,-0.9018,-0.8002,-0.7655,-0.719,-0.6925,-0.6925,-0.6608,-0.6436,-0.6436,-0.6116,-0.5826,-0.5578,-0.5309,-0.504,-0.4765,-0.4496,-0.3624,-1.0831,-1.0501,-1.0466,-0.9788,-1.0237,-1.0835,0.0,0.0,-1.2126,-1.2439,-1.3747,-1.4959,-1.5291,-1.633,-1.7179,-1.7338,-1.7535,-1.7698,-1.7783,-1.78,-1.78,-1.78,-1.78,-1.78,-1.78,-1.78,-1.78,-1.78,-1.78,-1.78,-1.78,-1.78,-1.78,-1.78,-1.78,-1.78,-1.78,-1.78,-1.78,-1.78,-1.7502,-1.7356,-1.7356,-1.7356,-1.7356,-1.7368,-1.767,-1.78,-1.78,-1.78,-1.78,-1.78,-1.78,-1.78,-1.78,-1.78,-1.7584,-1.726,-1.6968,-1.6646,-1.6301,-1.5955,-1.5856,-1.5856,-1.5813,-1.5799,-1.5799,-1.5799,-1.5799,-1.5799,-1.5799,-1.5799,-1.5799,-1.5799,-1.5799,-1.5784,-1.5709,-1.5694,-1.5664,-1.5589,-1.5095,-1.4648,-1.4586,-1.4079,-1.3259,-1.1984,-1.1805,-1.1805,-1.1805,-1.1805,-1.1805,-1.1805,-1.1805,-1.1419,-1.0473,-0.9788,-0.9131,-0.8511,-0.8238,-0.81,-0.81,-0.7571,-0.7268,-0.7268,-0.6541,-0.607,-0.5856,-0.5586,-0.532,-0.5049,-0.4775,-0.4307,-1.2164,-1.2081,-1.2296,0.0,-1.1891,-1.2558,-1.299,-1.3337,-1.3794,-1.4582,-1.5683,-1.6608,-1.695,-1.7744,-1.8271,0.0,-1.8061,-1.7982,-1.7822,-1.78,-1.78,-1.78,-1.78,-1.78,-1.78,-1.78,-1.78,-1.78,-1.78,-1.78,-1.78,-1.78,-1.78,-1.78,-1.78,-1.78,-1.78,-1.78,-1.78,-1.78,-1.7467,-1.7308,-1.7308,-1.7308,-1.7403,-1.7595,-1.7743,-1.78,-1.78,-1.78,-1.78,-1.78,-1.78,-1.7681,-1.7514,-1.7514,-1.7296,-1.6952,-1.6633,-1.6301,-1.5983,-1.5842,-1.5799,-1.5799,-1.5799,-1.5799,-1.5799,-1.5799,-1.5799,-1.5799,-1.5799,-1.5799,-1.5799,-1.5799,-1.5799,-1.5799,-1.5799,-1.5799,-1.5799,-1.5799,-1.5574,-1.526,-1.4871,-1.4571,-1.3972,-1.2785,-1.2485,-1.2235,-1.185,-1.1805,-1.1725,-1.1523,-1.1193,-1.0829,-1.0429,-0.9725,-0.9198,-0.8907,-0.8517,-0.8298,-0.8298,-0.8062,-0.7926,-0.7926,-0.7355,-0.696,-0.6712,-0.6404,-0.6111,-0.5847,-0.5736,-0.5569,-1.3159,-1.3329,0.0,-1.3057,-1.3472,-1.4149,-1.4673,-1.496,-1.539,-1.6326,-1.7206,-1.7931,-1.8276,-1.8721,-1.8914,-1.8632,-1.8371,-1.8121,-1.7845,-1.78,-1.78,-1.78,-1.78,-1.78,-1.78,-1.78,-1.78,-1.78,-1.78,-1.78,-1.78,-1.78,-1.78,-1.78,-1.78,-1.78,-1.78,-1.78,-1.78,-1.7789,-1.7372,-1.7163,-1.7163,-1.7076,-1.7211,-1.7531,-1.7624,-1.767,-1.767,-1.7749,-1.7755,-1.767,-1.7749,-1.7601,-1.7296,-1.7199,-1.6952,-1.6633,-1.638,-1.6081,-1.5799,-1.5799,-1.5799,-1.5799,-1.5799,-1.5799,-1.5799,-1.5799,-1.5799,-1.5799,-1.5799,-1.5799,-1.5799,-1.5799,-1.5799,-1.5799,-1.5799,-1.5799,-1.5799,-1.5799,-1.5799,-1.5649,-1.5155,-1.508,-1.4704,-1.3607,-1.3286,-1.2822,-1.1893,-1.1629,-1.146,-1.1219,-1.0712,-1.0396,-1.0396,-0.9737,-0.9315,-0.9315,-0.8951,-0.8738,-0.8738,-0.86,-0.8468,-0.8367,-0.7849,-0.7452,-0.7154,-0.6837,-0.6585,-0.6394,-0.6394,-0.6394,-1.3659,0.0,-1.4479,-1.4436,-1.4986,-1.5544,-1.5561,-1.6113,-1.6714,-1.7003,-1.7871,-1.8661,-1.8922,-1.8992,-1.8914,-1.8632,-1.8371,-1.8121,-1.7845,-1.78,-1.78,-1.78,-1.78,-1.78,0.0,-1.78,-1.78,-1.78,-1.78,-1.78,-1.78,-1.78,-1.78,-1.78,-1.78,-1.78,-1.78,-1.78,-1.78,-1.7789,-1.713,-1.6815,-1.6802,-1.6474,-1.6514,-1.6853,-1.7175,-1.732,-1.7344,-1.767,-1.7612,-1.7356,-1.767,-1.7601,-1.7272,-1.6942,-1.6607,-1.6299,-1.6301,-1.6081,-1.5799,-1.5799,-1.5799,-1.5799,-1.5799,-1.5799,-1.5799,-1.5799,-1.5799,-1.5799,-1.5799,-1.5799,-1.5799,-1.5799,-1.5799,-1.5799,-1.5799,-1.5799,-1.5799,-1.5799,-1.5799,-1.5784,-1.5769,-1.5769,-1.5371,-1.4241,-1.4069,-1.35,-1.1906,-1.1243,-1.092,-1.0908,-1.0605,-1.0396,-1.0396,-1.0072,-0.988,-0.988,-0.9855,-0.9855,-0.9855,-0.9353,-0.8897,-0.85,-0.7714,-0.7142,-0.6822,-0.6549,-0.6406,-0.6394,-0.6394,-0.6394,-1.4637,0.0,-1.574,-1.5921,-1.6147,-1.6468,-1.6948,-1.7253,-1.7509,-1.7776,-1.7708,-1.7707,-1.807,-1.8161,-1.8121,-1.7843,-1.8183,-1.831,-1.785,-1.78,-1.78,-1.78,-1.78,0.0,0.0,0.0,0.0,-1.78,-1.78,-1.78,-1.78,-1.78,-1.78,-1.78,-1.7584,-1.7572,-1.78,-1.7803,-1.7907,-1.8129,-1.7854,-1.7514,-1.7136,-1.701,-1.69,-1.6802,-1.693,-1.6964,-1.6989,-1.732,-1.7392,-1.7332,-1.767,-1.7455,-1.6952,-1.6841,-1.6448,-1.5969,-1.5969,-1.5884,-1.5799,-1.5799,-1.5799,-1.5799,-1.5799,-1.5799,-1.5799,-1.5799,-1.5799,-1.5799,-1.5799,-1.5799,-1.5799,-1.5799,-1.5566,-1.5418,-1.5741,-1.5566,-1.5344,-1.5344,-1.5344,-1.524,-1.4968,-1.4937,-1.4648,-1.3821,-1.3025,-1.2317,-1.1772,-1.1033,-1.0569,-1.0569,-1.0273,-1.0072,-1.0072,-0.9957,-0.9905,-0.9905,-0.9905,-0.9905,-0.9905,-0.9717,-0.9466,-0.9108,-0.8571,-0.8128,-0.7791,-0.7436,-0.7258,-0.7258,-0.7258,-0.7258,-1.5818,-1.621,-1.6675,-1.7013,-1.7094,-1.723,-1.7681,-1.78,-1.7771,-1.7675,-1.7371,-1.7112,-1.7191,-1.7291,-1.7373,-1.74,-1.7833,-1.8085,-1.7838,-1.78,-1.78,-1.78,-1.78,-1.78,0.0,0.0,0.0,-1.78,-1.78,-1.78,-1.78,-1.78,-1.78,-1.78,-1.7705,-1.7825,-1.8189,-1.8166,-1.8181,-1.8265,-1.8232,-1.793,-1.7441,-1.7441,-1.7329,-1.7111,-1.7013,-1.6986,-1.6981,-1.709,-1.7052,-1.6989,-1.7313,-1.7117,-1.662,-1.662,-1.6355,-1.5955,-1.5842,-1.5799,-1.5799,-1.5799,-1.5799,-1.577,-1.5595,-1.5668,-1.577,-1.5595,-1.5551,-1.5551,-1.5551,-1.5433,-1.5344,-1.5344,-1.5119,-1.4968,-1.527,-1.5104,-1.4891,-1.4891,-1.4891,-1.4799,-1.4549,-1.4374,-1.4074,-1.3417,-1.238,-1.1629,-1.1521,-1.0926,-1.0431,-1.0236,-1.0034,-0.9905,-0.9905,-0.9905,-0.9905,-0.9905,-0.9905,-0.9841,-0.9725,-0.9712,-0.9502,-0.9019,-0.8759,-0.8439,-0.8091,-0.7827,-0.7695,-0.7695,-0.7695,-0.7695,-1.7063,-1.729,-1.727,-1.7702,-1.78,-1.78,-1.78,-1.7766,-1.7557,-1.6841,-1.6845,-1.6803,0.0,0.0,-1.6715,-1.7197,-1.7365,-1.7532,-1.7776,-1.78,-1.78,0.0,0.0,0.0,0.0,0.0,0.0,-1.78,0.0,-1.78,-1.78,-1.7834,-1.785,-1.785,-1.8187,-1.8538,-1.892,-1.8857,-1.8635,-1.8285,-1.8285,-1.8081,-1.7758,-1.7758,-1.7727,-1.7685,-1.7425,-1.7326,-1.7294,-1.6952,-1.6659,-1.6421,-1.6688,-1.6625,-1.6347,-1.6301,-1.6287,-1.6232,-1.5913,-1.5799,-1.5799,-1.577,-1.5755,-1.5668,-1.521,-1.5389,-1.5639,-1.521,-1.5089,-1.5074,-1.5089,-1.4799,-1.4501,-1.4501,-1.4485,-1.447,-1.4501,-1.4485,-1.4456,-1.4428,-1.4371,-1.4342,-1.4342,-1.4036,-1.3591,-1.3013,-1.218,-1.1507,-1.1213,-1.0877,-1.0456,-0.9956,-0.9905,-0.9905,-0.9905,-0.9905,-0.9905,-0.9905,-0.9905,-0.9751,-0.9421,-0.9408,-0.9046,-0.8319,-0.8305,-0.8105,-0.7695,-0.7695,-0.7695,-0.7695,-0.7695,-0.7695,-1.7399,-1.7796,-1.8155,-1.7865,-1.78,-1.78,-1.78,-1.7371,-1.6925,-1.6749,-1.5884,-1.4991,0.0,0.0,0.0,-1.5532,-1.6898,0.0,-1.7822,-1.78,0.0,-1.78,0.0,-1.78,-1.78,-1.78,0.0,0.0,-1.78,-1.78,-1.78,-1.8318,-1.8623,-1.8623,-1.8992,-1.9214,-1.927,-1.9147,-1.916,-1.9323,-1.9323,-1.9015,-1.8446,-1.8446,-1.8177,-1.7699,-1.7631,-1.7603,-1.759,-1.728,-1.7381,-1.765,-1.7042,-1.6896,-1.6968,-1.6487,-1.6136,-1.5927,-1.5827,-1.5799,-1.5741,-1.5389,-1.527,-1.5195,-1.4783,-1.4737,-1.486,-1.5058,-1.4876,-1.4721,-1.5028,-1.4799,-1.4501,-1.4501,-1.4262,-1.4133,-1.4438,-1.4262,-1.3918,-1.3478,-1.2819,-1.2344,-1.2344,-1.2252,-1.2124,-1.1984,-1.1754,-1.1404,-1.0882,-1.0398,-1.0056,-0.9918,-0.9905,-0.9905,-0.9905,-0.9905,-0.9905,-0.9905,-0.9905,-0.9751,-0.9421,-0.9408,-0.9046,-0.8319,-0.8305,-0.8105,-0.7695,-0.7695,-0.7695,-0.7695,-0.7695,-0.7695,-1.795,-1.8249,-1.8469,-1.7927,-1.78,-1.7676,-1.7238,-1.6814,-1.6244,-1.5288,-1.4682,0.0,-1.2895,-1.423,0.0,0.0,0.0,0.0,-1.7794,-1.78,-1.78,0.0,-1.78,0.0,-1.78,-1.78,-1.7918,0.0,-1.8285,-1.8285,-1.8285,-1.8978,-1.9372,-1.9372,-1.9741,-1.9894,-1.9791,-1.9909,-1.9889,-1.9708,-1.9708,-1.9513,-1.9136,-1.9136,-1.8927,-1.8568,0.0,-1.8132,-1.8104,-1.7652,-1.7669,-1.7929,-1.7405,-1.7299,-1.7395,-1.6724,-1.6365,-1.6159,-1.5889,-1.5799,-1.5726,-1.524,-1.5104,-1.4997,-1.4406,-1.4485,-1.4768,-1.4814,-1.4674,-1.4596,-1.5013,-1.4674,-1.4246,-1.4246,-1.4052,-1.3917,-1.3934,-1.3752,-1.3478,-1.3142,-1.2478,-1.1952,-1.1952,-1.1766,-1.1515,-1.1249,-1.1211,-1.101,-1.0419,-1.0294,-1.0156,-0.9931,-0.9905,-0.9905,-0.9905,-0.9905,-0.9841,-0.9698,-0.9685,-0.9449,-0.8937,-0.891,-0.8645,-0.8048,-0.8033,-0.7928,-0.7695,-0.7695,-0.7695,-0.7695,-0.7695,-0.7695,-1.8547,-1.8595,-1.8469,-1.7927,-1.7693,-1.7373,-1.6492,-1.6061,-1.5285,-1.3392,0.0,-1.3198,-1.1651,-1.3129,-1.465,-1.4745,0.0,-1.7161,-1.7715,-1.78,-1.78,-1.78,-1.78,-1.7834,-1.7946,-1.7901,-1.8193,-1.8995,-1.9082,-1.9082,-1.9046,-1.9744,-2.0187,-2.0289,-2.0528,-2.0566,-2.0383,-2.0732,-2.0499,-1.9708,-1.9708,-1.9708,-1.9708,-1.9708,-1.9708,-1.9678,0.0,0.0,-1.8777,-1.8117,-1.7893,-1.7953,-1.7773,-1.7758,-1.7758,-1.7085,-1.683,-1.6756,-1.6219,-1.6039,-1.5935,-1.5253,-1.5058,-1.4937,-1.4133,-1.4422,-1.4953,-1.4658,-1.4549,-1.4596,-1.5013,-1.4549,-1.3983,-1.3983,-1.395,-1.3785,-1.3374,-1.3187,-1.3085,-1.3085,-1.2663,-1.2287,-1.2287,-1.1839,-1.1299,-1.0769,-1.0645,-1.0432,-0.9956,-1.0306,-1.0419,-0.9956,-0.9905,-0.9905,-0.9905,-0.9905,-0.9751,-0.9422,-0.9408,-0.906,-0.8333,-0.8305,-0.8105,-0.771,-0.7695,-0.7695,-0.7695,-0.7695,-0.7695,-0.7695,-0.7695,-0.7695,-1.8699,-1.8595,-1.8469,-1.7927,-1.7183,-1.6509,-1.6332,-1.4757,0.0,0.0,-1.219,-1.1391,-1.1192,-1.2511,-1.3846,-1.4439,-1.579,-1.7001,-1.7693,0.0,-1.78,0.0,0.0,0.0,0.0,0.0,0.0,0.0,0.0,0.0,-1.982,-2.0568,-2.1262,-2.1874,-2.1589,-2.1238,-2.0878,-2.0566,-2.0176,-1.9708,-1.9708,-1.9708,-1.9708,-1.9708,-1.9708,-1.9693,0.0,0.0,-1.9465,-1.8807,-1.8852,-1.9226,-1.8132,-1.8042,-1.8446,-1.7773,-1.7518,-1.7503,-1.7414,-1.737,-1.7065,-1.5216,-1.483,-1.4937,-1.4133,-1.423,-1.4658,-1.4922,-1.4752,-1.4596,-1.5013,-1.4752,-1.4406,-1.4406,-1.4133,-1.3885,-1.3802,-1.3121,-1.2538,-1.2538,-1.2115,-1.1741,-1.1741,-1.1261,-1.082,-1.0719,-1.0319,-1.0006,-0.9905,-0.9981,-1.0006,-0.9905,-0.9905,-0.9905,-0.9905,-0.9905,-0.9751,-0.9422,-0.9408,-0.906,-0.8333,-0.8305,-0.8105,-0.771,-0.7695,-0.7695,-0.7695,-0.7695,-0.7695,-0.7695,-0.7695,-0.7695,-1.8734,-1.8595,-1.8469,-1.7927,-1.7043,-1.6155,-1.5643,0.0,0.0,0.0,-1.1051,-1.0516,-0.9955,-1.1803,0.0,-1.3362,-1.4902,-1.6384,-1.7117,-1.7219,0.0,0.0,0.0,0.0,0.0,0.0,0.0,0.0,0.0,0.0,-2.061,-2.1346,-2.1938,-2.2279,-2.1838,-2.1399,-2.0991,-2.0533,-2.0089,-1.9708,-1.9708,-1.9708,-1.9708,-1.9708,-1.9708,-1.9708,0.0,0.0,-1.9678,-1.9346,-1.9405,-1.9648,-1.8986,-1.8942,-1.9136,-1.8478,-1.8222,-1.8177,-1.7833,-1.7713,-1.7497,-1.6252,-1.5755,-1.5514,-1.4922,-1.4766,-1.4845,-1.5058,-1.4953,-1.4907,-1.5359,-1.5134,-1.4814,-1.4814,-1.4358,-1.3835,-1.3598,-1.3171,-1.2826,-1.2826,-1.2375,-1.2015,-1.2015,-1.1538,-1.1059,-1.0758,-1.0482,-1.0219,-0.9931,-0.9905,-0.9905,-0.9905,-0.9905,-0.9905,-0.9905,-0.9905,-0.9673,-0.9116,-0.9087,-0.8759,-0.8019,-0.799,-0.7899,-0.7695,-0.7695,-0.7695,-0.7695,-0.7695,-0.7695,-0.7695,-0.7695,-0.7695,-1.8663,-1.8556,-1.84,-1.7916,-1.6881,-1.5758,-1.4978,-1.3236,0.0,0.0,-1.0064,-0.9817,-0.9074,0.0,-1.2643,0.0,-1.4124,-1.568,-1.657,-1.6841,-1.7162,0.0,0.0,0.0,0.0,0.0,0.0,0.0,0.0,0.0,-2.14,-2.1989,-2.2296,-2.2296,-2.1838,-2.1445,-2.1134,-2.0682,-2.0296,-1.998,-1.9889,-1.9836,-1.9836,-1.9729,-1.9708,-1.9708,0.0,0.0,0.0,-1.9708,-1.9708,-1.9708,-1.9708,-1.9708,-1.9648,-1.9106,-1.8912,-1.8837,-1.8311,-1.8132,-1.8067,-1.7766,-1.7003,-1.615,-1.5748,-1.5451,-1.524,-1.524,-1.524,-1.5329,-1.5712,-1.5448,-1.5058,-1.4876,-1.4358,-1.3769,-1.3301,-1.3198,-1.3198,-1.3198,-1.2864,-1.2563,-1.2563,-1.2128,-1.1613,-1.1146,-1.0871,-1.0557,-1.0131,-0.9968,-0.9905,-0.9905,-0.9905,-0.9905,-0.9905,-0.9905,-0.9594,-0.8844,-0.8803,-0.8481,-0.7725,-0.7695,-0.7695,-0.7695,-0.7695,-0.7695,-0.7695,-0.7695,-0.7695,-0.7695,-0.7695,-0.7695,-1.8465,-1.842,-1.8166,-1.7861,-1.6359,-1.4907,-1.482,0.0,-1.0125,-1.0108,-0.9303,-0.8827,-0.9557,0.0,0.0,0.0,0.0,-1.5088,-1.6502,-1.727,-1.7715,0.0,0.0,0.0,0.0,0.0,0.0,0.0,0.0,0.0,0.0,-2.2262,-2.2296,-2.2296,-2.1838,-2.1582,-2.1536,-2.1134,-2.091,-2.0878,-2.0449,-2.0246,-2.0229,-1.9874,-1.9708,-1.9708,0.0,0.0,0.0,-1.9708,-1.9708,-1.9708,-1.9708,-1.9708,-1.9693,-1.9633,-1.9618,-1.9603,-1.9543,-1.9528,-1.951,-1.9459,-1.8186,-1.6573,-1.6166,-1.5901,-1.5741,-1.5741,-1.5741,-1.5755,-1.5784,-1.5448,-1.4922,-1.4181,-1.395,-1.3769,-1.3301,-1.3198,-1.3198,-1.3198,-1.316,-1.3123,-1.3123,-1.2689,-1.23,-1.225,-1.136,-1.0681,-1.0631,-1.0193,-0.9905,-0.9905,-0.9905,-0.9905,-0.9905,-0.9905,-0.9594,-0.8844,-0.8803,-0.8481,-0.7725,-0.7695,-0.7695,-0.7695,-0.7695,-0.7695,-0.7695,-0.7695,-0.7695,-0.7695,-0.7695,-0.7695,-1.7707,-1.7934,-1.8093,-1.763,-1.6136,-1.4637,-1.4034,0.0,-0.9797,-0.9446,-0.8853,-0.8482,-0.8725,-0.9442,-1.042,0.0,0.0,0.0,-1.5172,0.0,0.0,0.0,0.0,0.0,0.0,0.0,0.0,0.0,0.0,0.0,0.0,-2.1749,-2.1884,-2.1884,-2.1181,-2.0814,-2.0814,-2.0666,-2.0583,-2.0583,-2.0382,-2.0297,-2.0297,-1.9892,-1.9708,-1.9708,0.0,0.0,0.0,-1.9708,-1.9708,-1.9708,-1.9708,-1.9708,-1.9708,-1.9708,-1.9708,-1.9708,-1.9708,-1.9708,-1.9639,-1.9332,-1.8413,-1.7388,-1.714,-1.647,-1.5799,-1.5799,-1.5595,-1.5389,-1.5389,-1.5058,-1.4596,-1.4019,-1.3901,-1.3769,-1.3301,-1.3198,-1.3198,-1.3198,-1.3198,-1.3198,-1.3198,-1.3023,-1.2776,-1.245,-1.2011,-1.1485,-1.0795,-1.0506,-1.0256,-0.9931,-0.9905,-0.9905,-0.9905,-0.9905,-0.9594,-0.8844,-0.8803,-0.8481,-0.7725,-0.7695,-0.7695,-0.7695,-0.7695,-0.7695,-0.7695,-0.7695,-0.7695,-0.7695,-0.7695,-0.7695,-1.6998,-1.7346,-1.7515,-1.7123,-1.5824,-1.4354,0.0,-1.1386,-0.9704,-0.904,-0.8586,-0.8267,-0.8131,-0.9114,-1.0155,0.0,0.0,-1.3143,-1.4622,-1.546,0.0,0.0,0.0,0.0,0.0,0.0,0.0,0.0,0.0,0.0,0.0,-2.115,-2.1275,-2.1414,-2.0683,-2.0365,-2.05,-2.0365,-2.0365,-2.05,-2.0365,-2.0297,-2.0297,-1.9892,-1.9708,0.0,0.0,0.0,0.0,-1.9708,-1.9708,-1.9708,-1.9708,-1.9708,-1.9708,-1.9708,-1.9708,-1.9708,-1.9708,-1.9708,-1.9603,-1.9062,-1.8442,-1.7888,-1.7783,-1.6881,-1.5861,-1.5861,-1.5475,-1.5058,-1.4814,-1.4533,-1.4214,-1.3785,-1.3698,-1.3598,-1.3267,-1.3198,-1.3198,-1.3198,-1.3198,-1.3198,-1.3198,-1.3198,-1.3073,-1.2701,-1.25,-1.2112,-1.1309,-1.1071,-1.0745,-1.0193,-1.0131,-1.0068,-0.9918,-0.9905,-0.9594,-0.8844,-0.8803,-0.8481,-0.7725,-0.7695,-0.7695,-0.7695,-0.7695,-0.7695,-0.7695,-0.7695,-0.7695,-0.7695,-0.7695,-0.7637,-1.6515,-1.6665,-1.6231,-1.6309,-1.5303,-1.3945,-1.2619,-1.1065,-0.9704,-0.904,-0.8476,-0.8095,-0.8095,-0.9037,-1.0043,-1.0783,-1.2295,0.0,-1.5375,-1.6214,0.0,0.0,0.0,0.0,0.0,0.0,0.0,0.0,0.0,0.0,0.0,-2.0566,-2.0533,-2.0991,-2.055,-2.0516,-2.0991,-2.0533,-2.0533,-2.0991,-2.0516,-2.0297,-2.0297,-1.9892,0.0,0.0,0.0,0.0,0.0,-1.9708,-1.9708,-1.9708,-1.9708,-1.9708,-1.9708,-1.9708,-1.9708,-1.9708,-1.9708,-1.9708,-1.9603,-1.9062,-1.8442,-1.7888,-1.7906,-1.7013,-1.5992,-1.5992,-1.5563,-1.4922,-1.4117,-1.3917,-1.3785,-1.3323,-1.3215,-1.3215,-1.3198,-1.3198,-1.3198,-1.3198,-1.3198,-1.3198,-1.3198,-1.3198,-1.3198,-1.3185,-1.2739,-1.2404,-1.2375,-1.1914,-1.1362,-1.077,-1.0681,-1.0482,-0.9943,-0.9905,-0.9594,-0.8844,-0.8803,-0.8481,-0.7725,-0.7695,-0.7695,-0.7695,-0.7695,-0.7695,-0.7695,-0.7695,-0.7695,-0.7695,-0.7695,-0.7486,-1.3816,-1.433,-1.4652,-1.3958,-1.3345,-1.2526,-1.1005,-1.0282,-0.9584,-0.8454,-0.8155,-0.8077,-0.7983,-0.8451,-0.9421,-1.1156,-1.2017,0.0,0.0,0.0,0.0,0.0,0.0,0.0,0.0,0.0,0.0,0.0,0.0,0.0,0.0,0.0,-2.0365,-2.0516,-2.0122,-1.9962,-2.012,-2.0244,-2.0382,-2.0516,-2.0365,-2.0297,-2.0297,-1.9892,0.0,0.0,0.0,0.0,0.0,-1.9708,-1.9708,-1.9708,-1.9708,-1.9708,-1.9708,-1.9708,-1.9708,-1.9708,-1.9708,-1.9708,-1.9548,-1.865,-1.8201,-1.7893,-1.7176,-1.6523,-1.5924,-1.5301,-1.4707,-1.4149,-1.3564,-1.3425,-1.3374,-1.325,-1.3198,-1.3198,-1.3198,-1.3198,-1.3198,-1.3198,-1.3198,-1.3198,-1.3198,-1.3198,-1.3198,-1.3198,-1.3048,-1.2797,-1.245,-1.2253,-1.1939,-1.1374,-1.1312,-1.0935,-0.9981,-0.9905,-0.9594,-0.8844,-0.8803,-0.8481,-0.7725,-0.7695,-0.7695,-0.7695,-0.7695,-0.7695,-0.7695,-0.7695,-0.7695,-0.7695,-0.7695,-0.7627,-1.2307,-1.2774,-1.3094,-1.2396,-1.2031,-1.1447,-0.988,-0.9518,-0.9218,-0.8124,-0.7962,-0.8004,-0.7921,-0.836,-0.927,-1.0872,-1.1539,0.0,0.0,0.0,0.0,0.0,0.0,0.0,0.0,0.0,0.0,0.0,0.0,0.0,0.0,0.0,-2.0072,-2.0072,-1.9821,-1.9708,-1.9708,-1.9962,-2.0072,-2.0072,-2.0072,-2.0072,-2.007,0.0,0.0,0.0,0.0,0.0,0.0,-1.9708,-1.9708,-1.9708,-1.9708,-1.9708,-1.9708,-1.9708,-1.9708,-1.9708,-1.9708,-1.9708,-1.9566,-1.8669,-1.8263,-1.7907,-1.6837,-1.6345,-1.6005,-1.5214,-1.4756,-1.4354,-1.3707,-1.3546,-1.3483,-1.3248,-1.3198,-1.3198,-1.3198,-1.3198,-1.3198,-1.3198,-1.3198,-1.3198,-1.3198,-1.3198,-1.3198,-1.3198,-1.3198,-1.3073,-1.2751,-1.2701,-1.25,-1.1964,-1.1902,-1.1525,-1.0621,-1.0332,-0.9867,-0.9074,-0.8885,-0.8537,-0.7947,-0.7783,-0.7695,-0.7695,-0.7695,-0.7695,-0.7695,-0.7695,-0.7695,-0.7695,-0.7695,-0.7695,0.0,-1.1817,-1.1513,-1.1396,-1.1156,-1.0571,-0.9148,-0.886,0.0,-0.8034,-0.7899,-0.7929,-0.8019,-0.8712,-0.9515,-1.0295,0.0,0.0,0.0,0.0,0.0,0.0,0.0,0.0,0.0,0.0,0.0,0.0,0.0,0.0,0.0,0.0,-1.9708,-1.9708,-1.9708,-1.9708,-1.9708,-1.9708,-1.9708,-1.9708,-1.9708,-1.9708,-1.9708,0.0,0.0,0.0,0.0,0.0,0.0,-1.9708,-1.9708,-1.9708,-1.9708,-1.9708,-1.9708,-1.9708,-1.9708,-1.9708,-1.9708,-1.9708,-1.9603,-1.9062,-1.8516,-1.7867,-1.6858,-1.644,-1.6199,-1.5676,-1.5492,-1.5255,-1.4384,-1.4141,-1.3959,-1.3403,-1.3223,-1.3198,-1.3198,-1.3198,-1.3198,-1.3198,-1.3198,-1.3198,-1.3198,-1.3198,-1.3198,-1.3198,-1.3198,-1.3198,-1.3198,-1.3198,-1.2998,-1.2513,-1.245,-1.2241,-1.1688,-1.1059,-1.0329,-0.9478,-0.9031,-0.8634,-0.8276,-0.7899,-0.7695,-0.7695,-0.7695,-0.7695,-0.7695,-0.7695,-0.7695,-0.7695,-0.7695,-0.7695,-0.9572,0.0,-0.9873,-0.9301,-0.9281,-0.9195,0.0,-0.8522,-0.871,-0.8034,-0.7899,-0.8214,-0.924,-0.9186,-0.9776,-1.2178,0.0,0.0,0.0,0.0,0.0,0.0,0.0,0.0,0.0,0.0,0.0,0.0,0.0,0.0,0.0,0.0,-1.9708,-1.9708,-1.9708,-1.9708,-1.9708,-1.9708,-1.9708,-1.9708,-1.9708,-1.9708,-1.9708,0.0,0.0,0.0,0.0,0.0,-1.9708,-1.9708,-1.9708,-1.9708,-1.9708,-1.9708,-1.9708,-1.9708,-1.9708,-1.9708,-1.9708,-1.9708,-1.9603,-1.9062,-1.8263,-1.7442,-1.7188,-1.6802,-1.635,-1.5798,-1.5368,-1.498,-1.4771,-1.44,-1.4065,-1.3921,-1.3546,-1.3198,-1.3198,-1.3198,-1.3198,-1.3198,-1.3198,-1.3198,-1.3198,-1.3198,-1.3198,-1.3198,-1.3198,-1.3198,-1.3198,-1.3198,-1.3148,-1.304,-1.2998,-1.2801,-1.2266,-1.1284,-1.0379,-0.9606,-0.9086,-0.8512,-0.787,-0.7754,-0.7695,-0.7695,-0.7695,-0.7695,-0.7695,-0.7695,-0.7695,-0.7695,-0.7695,-0.7695,-0.8648,-0.9101,-0.9433,-0.8969,-0.8931,-0.8887,-0.8447,-0.8402,-0.8342,-0.7974,-0.7899,-0.8214,-0.9248,0.0,0.0,0.0,0.0,0.0,0.0,0.0,0.0,0.0,0.0,0.0,0.0,0.0,0.0,0.0,0.0,0.0,0.0,0.0,-1.9226,-1.9226,-1.9226,-1.9393,-1.9708,-1.9708,-1.9708,-1.9708,-1.9708,-1.9708,-1.9708,0.0,0.0,0.0,0.0,0.0,-1.9708,-1.9708,-1.9708,-1.9708,-1.9708,-1.9708,-1.9708,-1.9708,-1.9708,-1.9708,-1.9708,-1.9708,-1.9603,-1.9062,-1.8341,-1.7626,-1.7374,-1.7101,-1.677,-1.6223,-1.5856,-1.5517,-1.5022,-1.4689,-1.4337,-1.3815,-1.3428,-1.3198,-1.3198,-1.3198,-1.3198,-1.3198,-1.3198,-1.3198,-1.3198,-1.3198,-1.3198,-1.3198,-1.3198,-1.3198,-1.3198,-1.3198,-1.3198,-1.3198,-1.3198,-1.2987,-1.2503,-1.1647,-1.0867,-1.0183,-0.9529,-0.899,-0.8581,-0.8217,-0.7915,-0.7705,-0.7695,-0.7695,-0.7695,-0.7695,-0.7695,-0.7695,-0.7695,-0.7695,-0.8576,-0.9194,-0.97,-0.9336,-0.9185,-0.908,-0.893,-0.8462,0.0,0.0,0.0,0.0,0.0,-0.9878,0.0,0.0,0.0,0.0,0.0,0.0,0.0,0.0,0.0,0.0,0.0,0.0,0.0,0.0,0.0,0.0,0.0,0.0,0.0,-1.8553,-1.8553,-1.8822,-1.9393,-1.9513,-1.9603,-1.9708,-1.9603,-1.9603,-1.9708,-1.9585,0.0,0.0,0.0,0.0,-1.9693,-1.9588,-1.9618,-1.9693,-1.9588,-1.9618,-1.9708,-1.9708,-1.9708,-1.9708,-1.9708,-1.9708,-1.9621,-1.9169,-1.865,-1.8145,-1.7686,-1.7483,-1.7333,-1.6879,-1.6701,-1.6422,-1.5493,-1.5131,-1.4758,-1.3704,-1.3466,-1.3441,-1.3366,-1.3341,-1.3341,-1.3341,-1.3248,-1.3198,-1.3198,-1.3198,-1.3198,-1.3198,-1.3198,-1.3198,-1.3198,-1.3198,-1.3198,-1.3198,-1.3146,-1.2925,-1.2526,-1.1937,-1.1362,-1.0861,-1.0048,-0.9582,-0.9516,-0.8858,-0.8301,-0.79,-0.789,-0.789,-0.789,-0.789,-0.789,-0.789,-0.789,-0.789,-0.9373,-1.0088,-1.0283,-0.889,-0.8912,-0.9196,-0.8946,-0.8815,-0.8912,0.0,0.0,0.0,0.0,-1.1816,-1.2325,0.0,0.0,0.0,0.0,0.0,0.0,0.0,0.0,0.0,0.0,0.0,0.0,0.0,0.0,0.0,0.0,0.0,0.0,-1.7848,-1.7848,-1.7908,-1.8012,-1.8565,-1.9136,-1.9693,-1.9121,-1.9151,-1.9678,-1.9106,-1.9151,0.0,0.0,-1.9708,-1.9663,-1.9091,-1.9181,-1.9648,-1.9076,-1.9196,-1.9708,-1.9708,-1.9708,-1.9708,-1.9708,-1.9708,-1.969,-1.9603,-1.9207,-1.8746,-1.8669,-1.8341,-1.7967,-1.7887,-1.7524,-1.7128,-1.6978,-1.6263,-1.5424,-1.4796,-1.4645,-1.4507,-1.406,-1.3959,-1.3959,-1.3959,-1.3546,-1.3198,-1.3198,-1.3198,-1.3198,-1.3198,-1.3198,-1.3198,-1.3198,-1.3198,-1.3198,-1.3198,-1.2843,-1.2579,-1.2508,-1.1641,-1.1068,-1.0975,-1.0119,-0.9449,-0.9106,-0.8979,-0.8877,-0.8809,-0.8809,-0.8809,-0.8809,-0.8809,-0.8809,-0.8809,-0.8809,-0.8809,-0.8928,-0.9696,-1.0174,-0.9356,-0.9746,-1.0285,-1.0165,-1.003,-1.0009,0.0,0.0,0.0,0.0,0.0,0.0,0.0,0.0,0.0,0.0,0.0,0.0,0.0,0.0,0.0,0.0,0.0,0.0,0.0,0.0,0.0,0.0,0.0,0.0,0.0,-1.716,-1.7339,-1.7713,-1.7637,-1.7953,-1.8627,-1.8311,-1.8311,-1.8612,-1.8296,-1.8326,-1.8627,0.0,-1.8627,-1.8612,-1.8281,-1.8326,-1.8627,-1.8687,-1.8897,-1.9196,-1.9573,-1.9708,-1.9708,-1.9708,-1.9708,-1.9708,-1.9708,-1.935,-1.8893,-1.8893,-1.8727,-1.8535,-1.8535,-1.8165,-1.7599,-1.703,-1.6493,-1.593,-1.51,-1.4896,-1.4821,-1.4588,-1.4525,-1.4525,-1.4525,-1.4318,-1.4124,-1.4124,-1.4124,-1.4011,-1.374,-1.369,-1.3571,-1.3235,-1.3198,-1.3198,-1.3198,-1.2773,-1.2389,-1.2138,-1.1431,-1.0886,-1.063,-1.0219,-0.9778,-0.9338,-0.9328,-0.9221,-0.9014,-0.9004,-0.9004,-0.9004,-0.9004,-0.9004,-0.9004,-0.9004,-0.9004,-0.8614,-0.9313,-1.0026,-1.0099,-1.047,-1.0908,-1.1343,-1.1104,-1.0932,0.0,0.0,0.0,0.0,0.0,0.0,0.0,0.0,0.0,0.0,0.0,0.0,0.0,0.0,0.0,0.0,0.0,0.0,0.0,0.0,0.0,0.0,0.0,0.0,0.0,-1.6488,-1.6742,-1.725,-1.6757,-1.6891,-1.7713,-1.7533,-1.7548,-1.7682,-1.7533,-1.7548,-1.7713,-1.7713,-1.7713,-1.7699,-1.7518,-1.7637,-1.7968,-1.8326,-1.8672,-1.9001,-1.9513,-1.9708,-1.9708,-1.9708,-1.9708,-1.969,-1.9548,-1.9332,-1.9062,-1.8949,-1.8987,-1.9095,-1.9095,-1.8798,-1.8229,-1.7153,-1.6777,-1.6409,-1.5348,-1.5185,-1.5248,-1.511,-1.5085,-1.5085,-1.5085,-1.4984,-1.4896,-1.4896,-1.4896,-1.4765,-1.4337,-1.4292,-1.4123,-1.3654,-1.3491,-1.3351,-1.3245,-1.2686,-1.2102,-1.1497,-1.1075,-1.0687,-1.0322,-1.0303,-1.0137,-0.9776,-0.9767,-0.9611,-0.9316,-0.9307,-0.9307,-0.9307,-0.9307,-0.9236,-0.9121,-0.9121,-0.905,-0.9232,-0.9706,-1.0153,-1.0845,-1.03,-1.0064,-1.1748,-1.1434,-1.132,-1.3199,0.0,0.0,0.0,0.0,0.0,0.0,0.0,0.0,0.0,0.0,0.0,0.0,0.0,0.0,0.0,0.0,0.0,0.0,0.0,0.0,0.0,0.0,0.0,0.0,0.0,-1.5888,-1.5948,-1.5888,-1.6473,-1.7699,-1.707,-1.71,-1.7684,-1.7055,-1.7115,-1.7713,-1.7713,-1.7713,-1.7637,-1.704,-1.7519,-1.8565,-1.7997,-1.8521,-1.9633,-1.9693,-1.9708,-1.9708,-1.9708,-1.9708,-1.9621,-1.9132,-1.9262,-1.9548,-1.9043,-1.9244,-1.9639,-1.9639,-1.9603,-1.9336,-1.8266,-1.7619,-1.6958,-1.5899,-1.6019,-1.6237,-1.5743,-1.563,-1.563,-1.563,-1.5248,-1.4896,-1.4896,-1.4896,-1.489,-1.4846,-1.4833,-1.484,-1.4783,-1.4337,-1.384,-1.3346,-1.2427,-1.146,-1.0486,-1.038,-1.0341,-1.0303,-1.0303,-1.0293,-1.0254,-1.0254,-1.0244,-1.0215,-1.0215,-1.0215,-1.0215,-1.0215,-0.9954,-0.9476,-0.9476,-0.92,-0.8925,-0.9496,-1.0176,-1.091,-1.0922,0.0,0.0,-1.254,-1.3005,-1.4184,-1.4924,0.0,0.0,0.0,0.0,0.0,0.0,0.0,0.0,0.0,0.0,0.0,0.0,0.0,0.0,0.0,0.0,0.0,0.0,0.0,0.0,0.0,0.0,0.0,0.0,-1.5799,-1.5799,-1.5799,-1.6039,-1.6518,-1.6263,-1.6263,-1.6503,-1.6248,-1.6278,-1.6518,-1.6518,-1.6518,-1.6488,-1.6234,-1.6428,-1.6952,-1.7489,-1.8252,-1.9121,-1.9558,-1.9708,-1.9639,-1.9332,-1.9207,-1.9114,-1.8574,-1.8535,-1.8669,-1.8458,-1.8535,-1.8708,-1.8708,-1.8708,-1.8612,-1.8224,-1.7947,-1.7531,-1.6456,-1.635,-1.6437,-1.6237,-1.6208,-1.6208,-1.6208,-1.6032,-1.5894,-1.5894,-1.5894,-1.5781,-1.5449,-1.5399,-1.5286,-1.4934,-1.4388,-1.3956,-1.3761,-1.2544,-1.1449,-1.0724,-1.043,-1.0303,-1.0303,-1.0303,-1.0303,-1.0303,-1.0303,-1.0303,-1.0303,-1.0303,-1.0303,-1.0303,-1.0303,-1.002,-0.9498,-0.9498,-0.9219,-0.8699,-0.934,-1.0106,-1.0518,0.0,0.0,-1.256,-1.3268,-1.4049,-1.4931,-1.5664,-1.637,-1.7105,0.0,0.0,0.0,0.0,0.0,0.0,0.0,0.0,0.0,0.0,0.0,0.0,0.0,0.0,0.0,0.0,0.0,0.0,0.0,0.0,0.0,0.0,0.0,-1.5799,-1.5799,-1.5799,-1.5799,-1.5799,-1.5799,-1.5799,-1.5799,-1.5799,-1.5799,-1.5799,-1.5799,-1.5799,-1.5799,-1.5904,-1.6189,-1.728,-1.8117,-1.8745,-1.9019,-1.9279,-1.9369,-1.8836,-1.865,-1.8554,-1.8027,-1.7967,-1.8066,-1.7907,-1.7967,-1.8106,-1.8106,-1.8106,-1.8066,-1.7887,-1.7847,-1.7626,-1.671,-1.65,-1.65,-1.65,-1.65,-1.65,-1.65,-1.6358,-1.6281,-1.6466,-1.6173,-1.5864,-1.5689,-1.5514,-1.5253,-1.489,-1.4328,-1.3836,-1.3499,-1.2389,-1.1531,-1.1155,-1.0723,-1.0478,-1.0478,-1.0371,-1.0303,-1.0303,-1.0303,-1.0303,-1.0303,-1.0303,-1.0303,-1.0303,-1.0303,-0.9942,-0.9239,-0.9239,-0.8849,-0.8699,-0.934,-0.995,-0.9692,0.0,0.0,-1.3025,-1.3479,-1.4199,-1.5529,-1.5799,-1.6291,-1.7884,0.0,0.0,0.0,0.0,0.0,0.0,0.0,0.0,0.0,0.0,0.0,0.0,0.0,0.0,0.0,0.0,0.0,0.0,0.0,0.0,0.0,0.0,0.0,-1.5799,-1.5799,-1.5799,-1.5799,-1.5799,-1.5799,-1.5799,-1.5799,-1.5799,-1.5799,-1.5799,-1.5799,-1.5799,-1.5799,-1.6144,-1.6771,-1.7428,-1.8087,-1.8619,-1.81,-1.8327,-1.8803,-1.8283,-1.8086,-1.8007,-1.7463,-1.7646,-1.7987,-1.7442,-1.7666,-1.8086,-1.8086,-1.8086,-1.7967,-1.7422,-1.7291,-1.7146,-1.6637,-1.65,-1.65,-1.65,-1.65,-1.65,-1.6488,-1.6008,-1.5798,-1.638,-1.55,-1.4903,-1.5499,-1.5073,-1.4698,-1.4686,-1.4239,-1.3477,-1.2425,-1.1879,-1.1606,-1.1606,-1.1183,-1.0918,-1.0918,-1.0527,-1.0312,-1.0303,-1.0303,-1.0303,-1.0303,-1.0303,-1.0303,-1.0303,-1.0303,-0.9745,-0.8695,-0.8695,-0.8095,-0.8699,-0.972,0.0,-1.1024,0.0,0.0,0.0,-1.4528,0.0,0.0,-1.5955,-1.609,-1.7033,0.0,0.0,0.0,0.0,0.0,0.0,0.0,0.0,0.0,0.0,0.0,0.0,0.0,0.0,0.0,0.0,0.0,0.0,0.0,0.0,0.0,0.0,0.0,-1.5799,-1.5799,-1.5799,-1.5799,-1.5799,-1.5799,-1.5799,-1.5799,-1.5799,-1.5799,-1.5799,-1.5799,-1.5799,-1.5799,-1.5904,-1.6129,-1.6741,-1.6956,-1.6947,-1.7643,-1.7839,-1.7754,-1.7598,-1.7544,-1.7442,-1.6909,-1.6837,-1.693,-1.6795,-1.6858,-1.6972,-1.6972,-1.6972,-1.693,-1.6774,-1.6731,-1.6689,-1.6531,-1.65,-1.65,-1.65,-1.65,-1.638,-1.5964,-1.572,-1.5521,-1.5265,-1.4926,-1.4766,-1.4949,-1.4812,-1.4537,-1.412,-1.3932,-1.355,-1.2786,-1.2299,-1.2031,-1.2031,-1.1643,-1.1389,-1.1389,-1.1271,-1.0929,-1.0322,-1.0303,-1.0303,-1.0303,-1.0303,-1.0303,-1.0303,-1.0303,-0.9745,-0.8695,-0.8695,-0.8095,-0.8912,-0.9974,0.0,-1.188,-1.3333,-1.4747,-1.5308,0.0,0.0,0.0,0.0,-1.606,0.0,0.0,0.0,0.0,0.0,0.0,0.0,0.0,0.0,0.0,0.0,0.0,0.0,0.0,0.0,0.0,0.0,0.0,0.0,0.0,0.0,0.0,0.0,0.0,-1.5799,-1.5799,-1.5799,-1.5799,-1.5799,-1.5799,-1.5799,-1.5799,-1.5799,-1.5784,-1.5595,-1.5522,-1.5522,-1.5522,-1.5624,-1.5829,-1.5994,-1.6089,-1.6141,-1.6508,-1.6642,-1.6631,-1.6409,-1.6495,-1.6615,-1.6288,-1.6333,-1.65,-1.65,-1.65,-1.65,-1.65,-1.65,-1.65,-1.65,-1.65,-1.65,-1.65,-1.65,-1.6423,-1.6182,-1.6324,-1.6315,-1.572,-1.541,-1.5208,-1.5085,-1.4468,-1.4061,-1.4317,-1.4131,-1.386,-1.3491,-1.3443,-1.331,-1.2954,-1.2646,-1.249,-1.249,-1.208,-1.1848,-1.1848,-1.1682,-1.1371,-1.0831,-1.0832,-1.0832,-1.0832,-1.0832,-1.0832,-1.0832,-1.0832,-1.0362,-0.9528,-0.9224,-0.8625,-0.9192,-1.0144,-1.122,-1.2354,-1.3695,0.0,-1.5626,-1.5799,-1.5899,-1.6191,0.0,0.0,0.0,0.0,0.0,0.0,0.0,0.0,0.0,0.0,0.0,0.0,0.0,0.0,0.0,0.0,0.0,0.0,0.0,0.0,0.0,0.0,0.0,0.0,0.0,0.0,-1.5799,-1.5799,-1.5784,0.0,-1.5741,-1.5726,-1.5668,-1.5726,-1.5726,-1.5653,-1.5225,-1.5058,-1.5058,-1.5089,-1.5329,-1.5639,-1.524,-1.5433,-1.5791,-1.4994,-1.5056,-1.5499,-1.505,-1.5223,-1.563,-1.568,-1.6032,-1.6437,-1.6488,-1.65,-1.65,-1.65,-1.65,-1.65,-1.65,-1.65,-1.65,-1.65,-1.6457,-1.6259,-1.572,-1.5986,-1.6151,-1.5543,-1.4983,-1.4766,-1.5276,-1.399,-1.3089,-1.3647,-1.3238,-1.2905,-1.2905,-1.2905,-1.2905,-1.2905,-1.2905,-1.2905,-1.2905,-1.252,-1.2262,-1.2262,-1.1927,-1.1724,-1.1724,-1.1645,-1.1606,-1.1606,-1.1606,-1.1606,-1.1606,-1.1606,-1.1312,-1.0771,-1.0035,-0.942,-0.8971,-1.0239,0.0,-1.2722,-1.4276,-1.5592,-1.5767,-1.5799,-1.5827,-1.5884,0.0,0.0,0.0,0.0,0.0,0.0,0.0,0.0,0.0,0.0,0.0,0.0,0.0,0.0,0.0,0.0,0.0,0.0,0.0,0.0,0.0,0.0,0.0,0.0,0.0,-1.5799,-1.5799,-1.5799,-1.5624,0.0,-1.524,-1.5089,-1.4783,-1.5119,-1.5089,-1.4768,-1.4674,-1.4627,-1.4643,-1.4968,-1.4968,-1.4799,-1.5028,-1.4805,-1.4392,-1.4623,-1.4587,-1.4496,-1.479,-1.4991,-1.5135,-1.5555,-1.5781,-1.5957,-1.6362,-1.65,-1.65,-1.65,-1.65,-1.65,-1.65,-1.65,-1.65,-1.65,-1.6139,-1.5764,-1.5632,-1.532,-1.4903,-1.4295,-1.4073,-1.3873,-1.3539,-1.3152,-1.2954,-1.3079,-1.2968,-1.2905,-1.2905,-1.2905,-1.2905,-1.2905,-1.2905,-1.2905,-1.2905,-1.2817,-1.2744,-1.2744,-1.267,-1.2621,-1.2621,-1.1946,-1.1606,-1.1606,-1.1606,-1.1606,-1.1606,-1.1606,-1.1312,-1.0771,-1.0035,-0.942,-0.9206,0.0,0.0,-1.3177,0.0,-1.5997,-1.5842,-1.5799,-1.5799,-1.5799,0.0,0.0,0.0,0.0,0.0,0.0,0.0,0.0,0.0,0.0,0.0,0.0,0.0,0.0,0.0,0.0,0.0,0.0,0.0,0.0,0.0,0.0,0.0,0.0,-1.5799,-1.5799,-1.5799,-1.558,-1.5344,-1.5104,-1.5104,-1.4891,-1.4517,-1.4721,-1.4596,-1.4214,-1.4214,-1.4214,-1.423,-1.4438,-1.4517,-1.4501,-1.4517,-1.4262,-1.3908,-1.3955,-1.3858,-1.3715,-1.3986,-1.428,-1.4563,-1.4833,-1.5286,-1.5756,-1.6032,-1.6287,-1.65,-1.65,-1.65,-1.65,-1.65,-1.65,-1.65,-1.65,-1.603,-1.5521,-1.5231,-1.4926,-1.4514,-1.3909,-1.3792,-1.3708,-1.3396,-1.3079,-1.2905,-1.2905,-1.2905,-1.2905,-1.2905,-1.2905,-1.2905,-1.2905,-1.2905,-1.2905,-1.2905,-1.2905,-1.2905,-1.2905,-1.2905,-1.2905,-1.2905,-1.2465,-1.221,-1.221,-1.221,-1.221,-1.221,-1.221,-1.2072,-1.1784,-1.0714,-1.0092,-0.9204,0.0,-1.0949,-1.3628,-1.5191,0.0,-1.584,-1.5799,-1.5799,0.0,0.0,0.0,0.0,0.0,0.0,0.0,0.0,0.0,0.0,0.0,0.0,0.0,0.0,0.0,0.0,0.0,0.0,0.0,0.0,0.0,0.0,0.0,-1.5799,-1.5799,-1.5799,-1.5799,-1.5799,-1.5404,-1.518,-1.5104,-1.4953,-1.4721,-1.439,-1.431,-1.4084,-1.3785,-1.3785,-1.3785,-1.3785,-1.3868,-1.4052,-1.4246,-1.4,-1.3852,-1.3719,-1.334,-1.3198,-1.3198,-1.3198,-1.3534,-1.3972,-1.416,-1.484,-1.5613,-1.5781,-1.6158,-1.65,-1.65,-1.6423,-1.638,-1.6466,-1.6423,-1.638,-1.6479,-1.603,-1.5432,-1.4835,-1.4548,-1.4247,-1.3732,-1.3637,-1.3684,-1.3768,-1.331,-1.2905,-1.2905,-1.2905,-1.2905,-1.2905,-1.2905,-1.2905,-1.2905,-1.2905,-1.2905,-1.2905,-1.2905,-1.2905,-1.2905,-1.2905,-1.2905,-1.2905,-1.2905,-1.2905,-1.2905,-1.2905,-1.2905,-1.2905,-1.2774,-1.2715,-1.2691,-1.1283,-1.0644,-0.7853,0.0,-1.1352,0.0,-1.4863,-1.5135,0.0,0.0,0.0,0.0,0.0,0.0,0.0,0.0,0.0,0.0,0.0,0.0,0.0,0.0,0.0,0.0,0.0,0.0,0.0,0.0,0.0,0.0,0.0,0.0,0.0,-1.5799,-1.5799,-1.5799,-1.5799,-1.5799,-1.5799,-1.5741,-1.5492,-1.5089,-1.439,-1.4019,-1.3983,-1.3564,-1.334,-1.3301,-1.3301,-1.3301,-1.3323,-1.3719,-1.3698,-1.3408,-1.3752,-1.3648,-1.3301,-1.3215,-1.3198,-1.3198,-1.3198,-1.3248,-1.3478,-1.4469,-1.4884,-1.5185,-1.612,-1.6437,-1.65,-1.65,-1.6117,-1.5842,-1.6358,-1.6117,-1.5842,-1.638,-1.603,-1.5432,-1.4835,-1.3884,-1.3113,-1.3041,-1.3017,-1.32,-1.3708,-1.331,-1.2905,-1.2905,-1.2905,-1.2905,-1.2905,-1.2905,-1.2905,-1.2905,-1.2905,-1.2905,-1.2905,-1.2905,-1.2905,-1.2905,-1.2905,-1.2905,-1.2905,-1.2905,-1.2905,-1.2905,-1.2905,-1.2905,-1.2905,-1.2261,-1.1947,-1.1922,-1.0568,-0.9935,-0.8432,-0.9903,-1.16,0.0,-1.4242,-1.4886,-1.517,0.0,0.0,0.0,0.0,0.0,0.0,0.0,0.0,0.0,0.0,0.0,0.0,0.0,0.0,0.0,0.0,0.0,0.0,0.0,0.0,0.0,0.0,0.0,-1.5799,-1.5799,-1.5799,-1.5799,-1.5799,0.0,-1.5799,-1.5551,-1.5314,-1.5089,-1.4278,-1.4019,-1.4214,-1.3514,-1.3198,-1.3198,-1.3198,-1.3198,-1.3215,-1.3425,-1.3391,-1.3215,-1.3425,-1.3374,-1.3198,-1.3198,-1.3198,-1.3198,-1.3198,-1.3198,-1.3353,-1.418,-1.4664,-1.5035,-1.5819,-1.6249,-1.65,-1.65,-1.6073,-1.5654,-1.593,-1.5555,-1.522,-1.57,-1.5197,-1.4664,-1.4983,-1.4177,-1.331,-1.2978,-1.2905,-1.2968,-1.3238,-1.3079,-1.2905,-1.2905,-1.2905,-1.2905,-1.2905,-1.2905,-1.2905,-1.2905,-1.2905,-1.2905,-1.2905,-1.2905,-1.2905,-1.2905,-1.2905,-1.2905,-1.2905,-1.2905,-1.2905,-1.2905,-1.2905,-1.2905,-1.2905,-1.2163,-1.1789,-1.1765,-1.0415,-0.9788,0.0,0.0,-1.0821,-1.2134,-1.3262,-1.4169,0.0,0.0,0.0,0.0,0.0,0.0,0.0,0.0,0.0,0.0,0.0,0.0,0.0,0.0,0.0,0.0,0.0,0.0,0.0,0.0,0.0,0.0,0.0,0.0,-1.5784,-1.5595,-1.558,-1.5784,-1.5668,-1.5624,-1.5624,-1.527,-1.5104,-1.5089,-1.4485,-1.431,-1.447,-1.3719,-1.3306,-1.3198,-1.3198,-1.3198,-1.3198,-1.3198,-1.3198,-1.3198,-1.3198,-1.3198,-1.3198,-1.3198,-1.3198,-1.3198,-1.3198,-1.3198,-1.3311,-1.4072,-1.4576,-1.5022,-1.5693,-1.6077,-1.6259,-1.6259,-1.5732,-1.5186,-1.5343,-1.4915,-1.4594,-1.5051,-1.456,-1.4143,-1.4594,-1.4107,-1.3481,-1.32,-1.2992,-1.2968,-1.3176,-1.3041,-1.2905,-1.2905,-1.2905,-1.2905,-1.2905,-1.2905,-1.2905,-1.2905,-1.2905,-1.2905,-1.2905,-1.2905,-1.2905,-1.2905,-1.2905,-1.2905,-1.2905,-1.2905,-1.2905,-1.2905,-1.2905,-1.2905,-1.2905,-1.2163,-1.1715,-1.1516,-1.0338,-0.9718,0.0,-0.8041,0.0,-1.0946,-1.1763,0.0,0.0,0.0,0.0,0.0,0.0,0.0,0.0,0.0,0.0,0.0,0.0,0.0,0.0,0.0,0.0,0.0,0.0,0.0,0.0,0.0,0.0,0.0,0.0,0.0,-1.5784,-1.5028,-1.4937,-1.577,-1.5374,-1.5134,-1.5134,-1.5119,-1.5104,-1.5104,-1.5058,-1.4845,-1.4485,-1.4052,-1.3615,-1.3198,-1.3198,-1.3198,-1.3198,-1.3198,-1.3198,-1.3198,-1.3198,-1.3198,-1.3198,-1.3198,-1.3198,-1.3198,-1.3198,-1.3198,-1.3373,-1.4507,-1.489,-1.5085,-1.6145,-1.6083,-1.5654,-1.5654,-1.479,-1.4027,-1.4606,-1.4306,-1.4003,-1.4583,-1.4686,-1.434,-1.3272,-1.2968,-1.3104,-1.3637,-1.3286,-1.3128,-1.3897,-1.3406,-1.2905,-1.2905,-1.2905,-1.2905,-1.2905,-1.2905,-1.2905,-1.2905,-1.2905,-1.2905,-1.2905,-1.2905,-1.2905,-1.2905,-1.2905,-1.2905,-1.2905,-1.2905,-1.2905,-1.2905,-1.2905,-1.2905,-1.2905,-1.2163,-1.1458,-1.0838,-1.0141,-0.9465,0.0,0.0,0.0,-0.9811,-1.0923,-1.1826,0.0,0.0,0.0,0.0,0.0,0.0,0.0,0.0,0.0,0.0,0.0,0.0,0.0,0.0,0.0,0.0,0.0,0.0,0.0,0.0,0.0,0.0,0.0,0.0,-1.4968,-1.4674,-1.4643,-1.4953,-1.5058,-1.5104,-1.5104,-1.483,-1.4705,-1.4705,-1.4705,-1.4501,-1.41,-1.3983,-1.3648,-1.3198,-1.3198,-1.3198,-1.3198,-1.3198,-1.3198,-1.3198,-1.3198,-1.3198,-1.3198,-1.3198,-1.3198,-1.3198,-1.3198,-1.3198,-1.3403,-1.4532,-1.4896,-1.5039,-1.57,-1.5776,-1.5521,-1.5118,-1.4434,-1.3839,-1.4073,-1.3671,-1.3286,-1.3501,-1.3539,-1.343,-1.2992,-1.2905,-1.2968,-1.3176,-1.3041,-1.2992,-1.3286,-1.3089,-1.2905,-1.2905,-1.2905,-1.2905,-1.2905,-1.2905,-1.2905,-1.2905,-1.2905,-1.2905,-1.2905,-1.2905,-1.2905,-1.2905,-1.2905,-1.2905,-1.2905,-1.2905,-1.2905,-1.2905,-1.2905,-1.2905,-1.2905,-1.1733,-1.104,-1.0762,-0.9658,-0.9035,-0.6889,0.0,0.0,0.0,0.0,-1.0662,0.0,0.0,0.0,0.0,0.0,0.0,0.0,0.0,0.0,0.0,0.0,0.0,0.0,0.0,0.0,0.0,0.0,0.0,0.0,0.0,0.0,0.0,0.0,0.0,-1.4517,-1.4374,-1.4294,-1.4294,-1.469,-1.483,-1.4705,-1.4564,-1.4438,-1.4294,-1.4438,-1.4294,-1.3901,-1.3901,-1.3648,-1.3198,-1.3198,-1.3198,-1.3198,-1.3198,-1.3198,-1.3198,-1.3198,-1.3198,-1.3198,-1.3198,-1.3198,-1.3198,-1.3198,-1.3198,-1.3338,-1.4304,-1.4592,-1.469,-1.5148,-1.5163,-1.4903,-1.4514,-1.3967,-1.3505,-1.3505,-1.32,-1.2905,-1.2905,-1.2905,-1.2905,-1.2905,-1.2905,-1.2905,-1.2905,-1.2691,-1.2618,-1.2856,-1.252,-1.2363,-1.2832,-1.2691,-1.2608,-1.2881,-1.2905,-1.2905,-1.2905,-1.2905,-1.2905,-1.2905,-1.2905,-1.2905,-1.2905,-1.2905,-1.2905,-1.2905,-1.2905,-1.2905,-1.2905,-1.2666,-1.2525,-1.2535,-1.1575,-1.1015,-1.0762,-0.9666,-0.9008,0.0,0.0,0.0,0.0,0.0,0.0,0.0,0.0,0.0,0.0,0.0,0.0,0.0,0.0,0.0,0.0,0.0,0.0,0.0,0.0,0.0,0.0,0.0,0.0,0.0,0.0,0.0,0.0,0.0,-1.4891,-1.4485,-1.4084,-1.3885,-1.3901,-1.4262,-1.4278,-1.3901,-1.4262,-1.4262,-1.3885,-1.4294,-1.4262,-1.3885,-1.3885,-1.3648,-1.3198,-1.3198,-1.3198,-1.3198,-1.3198,-1.3198,-1.3198,-1.3198,-1.3198,-1.3198,-1.3198,-1.3198,-1.3198,-1.3198,-1.3181,-1.3268,-1.3811,-1.3997,-1.4064,-1.4519,-1.426,-1.3792,-1.3779,-1.3348,-1.2905,-1.2905,-1.2905,-1.2905,-1.2905,-1.2905,-1.2881,-1.2881,-1.2881,-1.2881,-1.2881,-1.227,-1.1996,-1.2691,-1.1692,-1.1275,-1.2652,-1.2236,-1.208,-1.2798,-1.2905,-1.2905,-1.2905,-1.2881,-1.2881,-1.2881,-1.2856,-1.2832,-1.2832,-1.2832,-1.2832,-1.2832,-1.2832,-1.2832,-1.2832,-1.2138,-1.1765,-1.1765,-1.1765,-1.1416,-1.0737,-1.009,-0.9413,-0.5678,0.0,0.0,0.0,0.0,0.0,0.0,0.0,0.0,0.0,0.0,0.0,0.0,0.0,0.0,0.0,0.0,0.0,0.0,0.0,0.0,0.0,0.0,0.0,0.0,0.0,0.0,0.0,-1.4674,-1.4342,-1.3598,-1.3459,-1.3547,-1.3885,-1.3682,-1.3682,-1.3901,-1.3682,-1.3497,-1.3408,-1.3852,-1.3835,-1.3408,-1.3752,-1.3648,-1.3198,-1.3198,-1.3198,-1.3198,-1.3198,-1.3198,-1.3198,-1.3198,-1.3198,-1.3198,-1.3198,-1.3198,-1.3198,-1.3198,-1.2978,-1.2848,-1.3713,-1.3732,-1.3504,-1.3921,-1.3933,-1.3708,-1.3262,-1.3041,-1.2905,-1.2905,-1.2905,-1.2905,-1.2905,-1.2905,-1.274,-1.2212,-1.2104,-1.2104,-1.2104,-1.155,-1.104,-1.0956,-1.0872,-1.1049,-1.1792,-1.1848,-1.208,-1.2798,-1.2905,-1.2905,-1.2905,-1.2427,-1.2104,-1.2104,-1.1658,-1.1384,-1.1384,-1.1384,-1.1384,-1.1384,-1.1384,-1.1384,-1.1384,-1.1166,-1.1091,-1.1091,-1.0593,-1.0261,-1.0064,-0.9387,-0.8982,-0.5816,0.0,0.0,0.0,0.0,0.0,0.0,-0.8683,0.0,0.0,0.0,0.0,0.0,0.0,0.0,0.0,0.0,0.0,0.0,0.0,0.0,0.0,0.0,0.0,0.0,0.0,0.0,0.0,-1.4658,-1.4374,-1.3531,-1.3306,-1.3323,-1.3598,-1.3531,-1.3531,-1.3615,-1.3531,-1.3391,-1.3198,-1.3493,-1.3459,-1.3215,-1.3493,-1.3459,-1.3198,-1.3198,-1.3198,-1.3198,-1.3198,-1.3198,-1.3198,-1.3198,-1.3198,-1.3198,-1.3198,-1.3198,-1.3163,-1.2978,-1.272,-1.2584,-1.3117,-1.3086,-1.2904,-1.3297,-1.342,-1.3348,-1.2992,-1.2905,-1.2905,-1.2905,-1.2905,-1.2905,-1.2905,-1.2666,-1.232,-1.1898,-1.1366,-1.104,-1.1341,-1.0838,-1.0338,-1.0218,-1.0287,-1.0644,-1.1384,-1.1674,-1.208,-1.2798,-1.2905,-1.2774,-1.2476,-1.2055,-1.1728,-1.1592,-1.1225,-1.1058,-1.118,-1.1188,-1.1188,-1.1188,-1.1075,-1.1018,-1.1018,-1.0589,-1.0244,-0.9969,-0.9865,-0.9666,-0.9361,-0.8982,-0.8804,-0.6247,-0.65,0.0,0.0,0.0,0.0,-0.7895,-0.7778,0.0,0.0,0.0,0.0,0.0,0.0,0.0,0.0,0.0,0.0,0.0,0.0,0.0,0.0,0.0,0.0,0.0,0.0,-1.5433,-1.4564,-1.4737,-1.458,-1.3868,-1.3425,-1.3198,-1.3198,-1.3598,-1.3615,-1.3198,-1.3615,-1.3615,-1.3198,-1.3198,-1.3198,-1.3198,-1.3198,-1.3198,-1.3198,-1.3198,-1.3198,-1.3198,-1.3198,-1.3198,-1.3198,-1.3198,-1.3198,-1.3198,-1.3146,-1.3129,-1.3047,-1.2597,-1.2372,-1.2325,-1.2252,-1.2224,-1.2302,-1.2714,-1.2866,-1.2905,-1.2905,-1.2905,-1.2905,-1.2905,-1.2905,-1.2905,-1.2905,-1.2393,-1.1888,-1.1814,-1.0788,-1.0064,-1.0593,-1.0141,-0.9762,-0.9987,-0.9917,-1.0167,-1.1258,-1.1649,-1.208,-1.2798,-1.2905,-1.2642,-1.1996,-1.1765,-1.1573,-1.1333,-1.1153,-1.1201,-1.1515,-1.1515,-1.1487,-1.1531,-1.1274,-1.1129,-1.1129,-1.0215,-0.9423,-0.8804,-0.9387,-0.9387,-0.8804,-0.8804,-0.8804,-0.6368,-0.6574,-0.6741,-0.6476,0.0,0.0,0.0,-0.6833,0.0,0.0,0.0,0.0,0.0,0.0,0.0,0.0,0.0,0.0,0.0,0.0,0.0,0.0,0.0,0.0,0.0,0.0,-1.5433,-1.4564,-1.3917,-1.3497,-1.334,-1.325,-1.3198,-1.3198,-1.3301,-1.3301,-1.3198,-1.3301,-1.3301,-1.3198,-1.3198,-1.3198,-1.3198,-1.3198,-1.3198,-1.3198,-1.3198,-1.3198,-1.3198,-1.3198,-1.3198,-1.3198,-1.3198,-1.3198,-1.3146,-1.2773,-1.2632,-1.2579,-1.2102,-1.1653,-1.1349,-1.1709,-1.1766,-1.1804,-1.222,-1.2607,-1.2905,-1.2905,-1.2905,-1.2905,-1.2905,-1.2905,-1.2905,-1.2905,-1.2798,-1.2535,-1.1922,-1.1166,-1.0491,-1.0064,-0.9465,-0.9008,-0.9061,-0.9484,-1.0064,-1.0821,-1.1441,-1.208,-1.2798,-1.2905,-1.2847,-1.2691,-1.1683,-1.109,-1.128,-1.0245,-0.988,-1.0533,-1.0271,-1.0236,-1.0549,-1.0214,-1.0016,-1.0016,-0.9542,-0.914,-0.8804,-0.8929,-0.8936,-0.8804,-0.8804,-0.8804,-0.6794,-0.6992,-0.7193,-0.6996,0.0,0.0,0.0,0.0,0.0,0.0,0.0,0.0,0.0,0.0,0.0,0.0,0.0,0.0,0.0,0.0,0.0,0.0,0.0,0.0,0.0,0.0,-1.4745,-1.4235,-1.3581,-1.3198,-1.3198,-1.3198,-1.3198,-1.3198,-1.3198,-1.3198,-1.3198,-1.3198,-1.3198,-1.3198,-1.3198,-1.3198,-1.3198,-1.3198,-1.3198,-1.3198,-1.3198,-1.3198,-1.3181,-1.2943,-1.2855,-1.2855,-1.2855,-1.2855,-1.2791,-1.2318,-1.2156,-1.2084,-1.1579,-1.1226,-1.1035,-1.1246,-1.1433,-1.1685,-1.2077,-1.2539,-1.2905,-1.2905,-1.2905,-1.2905,-1.2905,-1.2905,-1.2905,-1.2905,-1.2608,-1.2236,-1.1888,-1.1266,-1.0686,-1.0364,-1.0038,-0.9684,-0.9361,-0.9865,-1.0542,-1.1191,-1.207,-1.2713,-1.2876,-1.3091,-1.2972,-1.2421,-1.1574,-1.105,-1.1005,-1.0172,-0.9885,-1.0404,-1.0274,-1.0227,-1.0454,-1.01,-0.9833,-0.9715,-0.9539,-0.9392,-0.9245,-0.9245,-0.9092,-0.8804,-0.8804,-0.8804,0.0,0.0,0.0,0.0,0.0,-0.7429,0.0,0.0,0.0,0.0,0.0,0.0,0.0,0.0,0.0,0.0,0.0,0.0,0.0,0.0,0.0,0.0,0.0,0.0,0.0,0.0,-1.3582,-1.3565,-1.3156,-1.2952,-1.3035,-1.3135,-1.3198,-1.3198,-1.3198,-1.3198,-1.3198,-1.3198,-1.3198,-1.3198,-1.3198,-1.3198,-1.3198,-1.3198,-1.3146,-1.3064,-1.3163,-1.3112,-1.2908,-1.2615,-1.2455,-1.2365,-1.2365,-1.2365,-1.2312,-1.1818,-1.1645,-1.156,-1.1057,-1.0867,-1.0853,-1.0795,-1.1154,-1.1682,-1.2197,-1.2607,-1.2905,-1.2905,-1.2905,-1.2905,-1.2905,-1.2905,-1.2905,-1.2905,-1.2452,-1.1996,-1.1996,-1.1466,-1.099,-1.099,-1.0889,-1.0644,-1.009,-1.0542,-1.1217,-1.1847,-1.2824,-1.3418,-1.3154,-1.3418,-1.3247,-1.2337,-1.1896,-1.1532,-1.128,-1.0702,-1.0512,-1.0923,-1.0742,-1.0629,-1.0687,-1.0356,-1.006,-0.9773,-0.9766,-0.974,-0.9715,-0.9715,-0.9439,-0.8978,-0.881,-0.8722,0.0,0.0,0.0,0.0,-0.8246,0.0,0.0,0.0,0.0,0.0,0.0,0.0,0.0,0.0,0.0,0.0,0.0,0.0,0.0,0.0,0.0,0.0,0.0,0.0,0.0,0.0,0.0,-1.2356,-1.2021,-1.1989,-1.2463,-1.2935,-1.3198,-1.3198,-1.3198,-1.3198,-1.3198,-1.3198,-1.3198,-1.3198,-1.3198,-1.3198,-1.3198,-1.3198,-1.2978,-1.2597,-1.3012,-1.272,-1.1993,-1.2347,-1.2246,-1.1884,-1.1884,-1.1884,-1.1829,-1.1282,-1.1094,-1.1019,-1.0544,-1.037,-1.038,-1.0381,-1.0929,-1.1763,-1.2573,-1.2866,-1.2905,-1.2905,-1.2905,-1.2905,-1.2905,-1.2905,-1.2905,-1.2905,-1.2847,-1.2774,-1.2774,-1.2187,-1.169,-1.169,-1.1216,-1.0788,-1.0686,-1.1241,-1.184,-1.2345,-1.3032,-1.3597,-1.3929,-1.4007,-1.399,-1.3852,-1.3266,-1.3012,-1.3243,-1.1985,-1.145,-1.2156,-1.1176,-1.0746,-1.1016,-1.0715,-1.0405,-1.0074,-1.0037,-0.994,-0.9715,-0.9715,-0.9653,-0.9586,-0.8804,-0.8445,0.0,0.0,0.0,0.0,0.0,0.0,-0.7729,0.0,-0.7338,0.0,0.0,0.0,0.0,0.0,0.0,0.0,0.0,0.0,0.0,0.0,0.0,0.0,0.0,0.0,0.0,0.0,0.0,0.0,0.0,-1.146,-1.235,-1.2613,-1.2889,-1.3185,-1.3198,-1.3198,-1.3198,-1.3198,-1.3198,-1.3198,-1.2925,-1.2943,-1.3181,-1.2632,-1.2437,-1.2508,-1.2419,-1.2156,-1.1792,-1.1671,-1.1512,-1.13,-1.1048,-1.1105,-1.1282,-1.0783,-1.0592,-1.0582,-1.038,-1.0303,-1.0381,-1.088,-1.1291,-1.1773,-1.2641,-1.2905,-1.2905,-1.2905,-1.2905,-1.2905,-1.2905,-1.2905,-1.2905,-1.2905,-1.2905,-1.2905,-1.2905,-1.2666,-1.2452,-1.2452,-1.2197,-1.2097,-1.2326,-1.2286,-1.2401,-1.298,-1.3741,-1.4219,-1.4114,-1.4328,-1.4414,-1.4133,-1.3663,-1.3447,-1.3589,-1.2349,-1.1715,-1.2026,-1.1131,-1.0658,-1.0794,-1.0676,-1.0533,-1.0374,-1.0374,-1.0345,-1.0224,-1.0224,-1.0224,-1.018,-0.8979,-0.8387,-0.9355,0.0,0.0,0.0,0.0,0.0,0.0,0.0,0.0,0.0,0.0,0.0,0.0,0.0,0.0,0.0,0.0,0.0,0.0,0.0,0.0,0.0,0.0,0.0,0.0,0.0,0.0,0.0,0.0,0.0,-1.1874,-1.2225,-1.2576,-1.296,-1.3123,-1.3198,-1.3198,-1.3198,-1.3198,-1.3198,-1.272,-1.2685,-1.2978,-1.2174,-1.1902,-1.2072,-1.1884,-1.1645,-1.1367,-1.1113,-1.0924,-1.0772,-1.0428,-1.0505,-1.0764,-1.0428,-1.0303,-1.0303,-1.0303,-1.0371,-1.0596,-1.134,-1.1663,-1.1907,-1.267,-1.2905,-1.2905,-1.2905,-1.2905,-1.2905,-1.2905,-1.2905,-1.2905,-1.2905,-1.2905,-1.2905,-1.2905,-1.2905,-1.2935,-1.3027,-1.3047,-1.3184,-1.3603,-1.3162,-1.3032,-1.374,-1.4385,-1.4717,-1.4484,-1.4756,-1.4834,-1.4494,-1.4044,-1.376,-1.376,-1.2573,-1.171,-1.15,-1.0926,-1.0593,-1.0593,-1.0593,-1.0593,-1.0593,-1.0593,-1.0593,-1.0593,-1.0593,-1.0593,-1.0579,-0.9242,-0.8632,0.0,0.0,0.0,-0.9209,0.0,0.0,0.0,0.0,-0.8238,0.0,0.0,0.0,0.0,0.0,0.0,0.0,0.0,0.0,0.0,0.0,0.0,0.0,0.0,0.0,0.0,0.0,0.0,0.0,0.0,0.0,-1.0708,-1.1798,-1.24,-1.2425,-1.2939,-1.3198,-1.3198,-1.3198,-1.3198,-1.3198,-1.272,-1.2508,-1.2508,-1.2011,-1.1523,-1.1075,-1.159,-1.1255,-1.037,-1.081,-1.0725,-1.0322,-1.0303,-1.0322,-1.0322,-1.0303,-1.0303,-1.0303,-1.0303,-1.0547,-1.0967,-1.1438,-1.1855,-1.2272,-1.2744,-1.2905,-1.2905,-1.2905,-1.2905,-1.2905,-1.2905,-1.2905,-1.2905,-1.2905,-1.2905,-1.2905,-1.2905,-1.2905,-1.3023,-1.3408,-1.3486,-1.3623,-1.4016,-1.3753,-1.3763,-1.4619,-1.4766,-1.4932,-1.5322,-1.5381,-1.5362,-1.5371,-1.466,-1.4186,-1.4186,-1.271,-1.1469,-1.0688,-1.0624,-1.0593,-1.0593,-1.0593,-1.0593,-1.0593,-1.0593,-1.0593,-1.0593,-1.0593,-1.0593,-1.0593,-0.9671,-0.9276,0.0,0.0,-1.0137,-0.9542,0.0,0.0,0.0,0.0,0.0,0.0,0.0,0.0,0.0,0.0,0.0,0.0,0.0,0.0,0.0,0.0,0.0,0.0,0.0,0.0,0.0,0.0,0.0,0.0,0.0,0.0,0.0,-1.1435,-1.2027,-1.2388,-1.291,-1.3198,-1.3198,-1.3198,-1.3198,-1.3181,-1.2407,-1.2192,-1.2473,-1.1319,-1.0878,-1.1,-1.0859,-1.0621,-1.0322,-1.0467,-1.0448,-1.0303,-1.0303,-1.0303,-1.0303,-1.0303,-1.0303,-1.0303,-1.0303,-1.0557,-1.0977,-1.1438,-1.1865,-1.2291,-1.2754,-1.2905,-1.2905,-1.2905,-1.32,-1.3396,-1.2992,-1.32,-1.3396,-1.2992,-1.2905,-1.2905,-1.2905,-1.3096,-1.334,-1.3477,-1.3704,-1.4036,-1.4492,-1.4443,-1.4453,-1.4764,-1.5029,-1.5254,-1.5391,-1.541,-1.541,-1.541,-1.4688,-1.4213,-1.4213,-1.2718,-1.1469,-1.0649,-1.0593,-1.0593,-1.0593,-1.0593,-1.0593,-1.0593,-1.0593,-1.0593,-1.0593,-1.0593,-1.0593,-1.0593,-1.0301,-0.9849,-1.0428,-1.0303,0.0,0.0,-0.9406,0.0,-0.8522,0.0,0.0,0.0,0.0,0.0,0.0,0.0,0.0,0.0,0.0,0.0,0.0,0.0,0.0,0.0,0.0,0.0,0.0,0.0,-0.74,-0.8413,-0.8374,0.0,0.0,0.0,-1.1538,-1.2102,-1.2638,-1.2998,-1.3198,-1.3198,-1.3198,-1.3181,-1.2246,-1.1957,-1.221,-1.0897,-1.0467,-1.0725,-1.0428,-1.0303,-1.0303,-1.0303,-1.0303,-1.0303,-1.0303,-1.0303,-1.0283,-1.0088,-0.9902,-0.9803,-1.0331,-1.0659,-1.0968,-1.1606,-1.21,-1.252,-1.2803,-1.2905,-1.2905,-1.2905,-1.3176,-1.3396,-1.2992,-1.32,-1.3372,-1.2992,-1.2905,-1.2905,-1.2905,-1.3213,-1.3555,-1.3701,-1.4046,-1.4475,-1.4932,-1.501,-1.501,-1.501,-1.5234,-1.541,-1.541,-1.5138,-1.4962,-1.4962,-1.3986,-1.3235,-1.2931,-1.1958,-1.1132,-1.0618,-1.0593,-1.0593,-1.0593,-1.0593,-1.0593,-1.0593,-1.0593,-1.0593,-1.0593,-1.0301,-1.0142,-1.0142,-1.0142,-0.9849]},{"header":{"parameterUnit":"m.s-1","parameterCategory":1,"la1":30.6,"la2":29.2853,"lo1":-89.7004,"lo2":-87.6739,"dy":0.0162,"dx":0.0183,"nx":112,"ny":82,"refTime":"2026-03-13T00:00:00:Z","depth":0,"parameterNumber":3,"parameterNumberName":"V-component_of_WINDS"},"data":[0.0,0.0,0.0,0.0,0.0,0.0,0.0,0.0,0.0,0.0,0.0,0.0,0.0,0.0,0.0,0.0,0.0,0.0,0.0,0.0,0.0,0.0,0.0,0.0,0.0,0.0,0.0,0.0,0.0,0.0,0.0,0.0,0.0,0.0,0.0,0.0,0.0,0.0,0.0,0.0,0.0,0.0,0.0,0.0,0.0,0.0,0.0,0.0,0.0,0.0,0.0,0.0,0.0,0.0,0.0,0.0,0.0,0.0,0.0,0.0,0.0,0.0,0.0,0.0,0.0,0.0,0.0,0.0,0.0,0.0,0.0,0.0,0.0,0.0,0.0,0.0,0.0,0.0,0.0,0.0,0.0,0.0,0.0,0.0,0.0,0.0,0.0,0.0,0.0,0.0,0.0,0.5526,0.7976,0.9588,0.9867,0.9983,0.932,0.7607,0.0,0.0,0.0,0.0,0.0,0.0,0.0,0.0,0.0,0.0,0.0,0.0,0.0,0.0,0.0,0.0,0.0,0.0,0.0,0.0,0.0,0.0,0.0,0.0,0.0,0.0,0.0,0.0,0.0,0.0,0.0,0.0,0.0,0.0,0.0,0.0,0.0,0.0,0.0,0.0,0.0,0.0,0.0,0.0,0.0,0.0,0.0,0.0,0.0,0.0,0.0,0.0,0.0,0.0,0.0,0.0,0.0,0.0,0.0,0.0,0.0,0.0,0.0,0.0,0.0,0.0,0.0,0.0,0.0,0.0,0.0,0.0,0.0,0.0,0.0,0.0,0.0,0.0,0.0,0.0,0.0,0.0,0.0,0.0,0.0,0.0,0.0,0.0,0.0,0.0,0.0,0.0,0.0,0.0,0.0,0.0,0.0,0.0,0.0,0.0,0.0,0.0,0.0,0.0,0.5038,0.7717,0.8841,0.9517,0.9788,0.9836,0.917,0.7601,0.0,0.0,0.0,0.0,0.0,0.0,0.0,0.0,0.0,0.0,0.0,0.0,0.0,0.0,0.0,0.0,0.0,0.0,0.0,0.0,0.0,0.0,0.0,0.0,0.0,0.0,0.0,0.0,0.0,0.0,0.0,0.0,0.0,0.0,0.0,0.0,0.0,0.0,0.0,0.0,0.0,0.0,0.0,0.0,0.0,0.0,0.0,0.0,0.0,0.0,0.0,0.0,0.0,0.0,0.0,0.0,0.0,0.0,0.0,0.0,0.0,0.0,0.0,0.0,0.0,0.0,0.0,0.0,0.0,0.0,0.0,0.0,0.0,0.0,0.0,0.0,0.0,0.0,0.0,0.0,0.0,0.0,0.0,0.0,0.0,0.0,0.0,0.0,0.0,0.0,0.0,0.0,0.0,0.0,0.0,0.0,0.0,0.0,0.0,0.0,0.0,0.0,0.0,0.4032,0.5808,0.8347,0.9151,0.9538,0.9628,0.9772,0.9157,0.7544,0.7541,0.0,0.0,0.0,0.0,0.0,0.0,0.0,0.0,0.0,0.0,0.0,0.0,0.0,0.0,0.0,0.0,0.0,0.0,0.0,0.0,0.0,0.0,0.0,0.0,0.0,0.0,0.0,0.0,0.0,0.0,0.0,0.0,0.0,0.0,0.0,0.0,0.0,0.0,0.0,0.0,0.0,0.0,0.0,0.0,0.0,0.0,0.0,0.0,0.0,0.0,0.0,0.0,0.0,0.0,0.0,0.0,0.0,0.0,0.0,0.0,0.0,0.0,0.0,0.0,0.0,0.0,0.0,0.0,0.0,0.0,0.0,0.0,0.0,0.0,0.0,0.0,0.0,0.0,0.0,0.0,0.0,0.0,0.0,0.0,0.0,0.0,0.0,0.0,0.0,0.0,0.0,0.0,0.0,0.0,0.0,0.0,0.0,0.0,0.0,0.0,0.0,0.0,0.5229,0.6641,0.8589,0.9239,0.9511,0.9465,0.951,0.8926,0.7492,0.7345,0.0,0.0,0.0,0.0,0.0,0.0,0.0,0.0,0.0,0.0,0.0,0.0,0.0,0.0,0.0,0.0,0.0,0.0,0.0,0.0,0.0,0.0,0.0,0.0,0.0,0.0,0.0,0.0,0.0,0.0,0.0,0.0,0.0,0.0,0.0,0.0,0.0,0.0,0.0,0.0,0.0,0.0,0.0,0.0,0.0,0.0,0.0,0.0,0.0,0.0,0.0,0.0,0.0,0.0,0.0,0.0,0.0,0.0,0.0,0.0,0.0,0.0,0.0,0.0,0.0,0.0,0.0,0.0,0.0,0.0,0.0,0.0,0.0,0.0,0.0,0.0,0.0,0.0,0.0,0.0,0.0,0.0,0.0,0.0,0.0,0.0,0.0,0.0,0.0,0.0,0.0,0.0,0.0,0.0,0.0,0.0,0.0,0.0,0.0,0.0,0.0,0.0,0.594,0.7791,0.8953,0.9224,0.9309,0.9321,0.8814,0.8197,0.7452,0.6832,0.0,0.0,0.0,0.0,0.0,0.0,0.0,0.0,0.0,0.0,0.0,0.0,0.0,0.0,0.0,0.0,0.0,0.0,0.0,0.0,0.0,0.0,0.0,0.0,0.0,0.0,0.0,0.0,0.0,0.0,0.0,0.0,0.0,0.0,0.0,0.0,0.0,0.0,0.0,0.0,0.0,0.0,0.0,0.0,0.0,0.0,0.0,0.0,0.0,0.0,0.0,0.0,0.0,0.0,0.0,0.0,0.0,0.0,0.0,0.0,0.0,0.0,0.0,0.0,0.0,0.0,0.0,0.0,0.0,0.0,0.0,0.0,0.0,0.0,0.0,0.0,0.0,0.0,0.0,0.0,0.0,0.0,0.0,0.0,0.0,0.0,0.0,0.0,0.0,0.0,0.0,0.0,0.0,0.0,0.0,0.0,0.0,0.0,0.0,0.0,0.0,0.0,0.6671,0.7724,0.0,0.9224,0.9317,0.935,0.9356,0.8805,0.7539,0.0,0.0,0.0,0.0,0.0,0.0,0.0,0.0,0.0,0.0,0.0,0.0,0.0,0.0,0.0,0.0,0.0,0.0,0.0,0.0,0.0,0.0,0.0,0.0,0.0,0.0,0.0,0.0,0.0,0.0,0.0,0.0,0.0,0.0,0.0,0.0,0.0,0.0,0.0,0.0,0.0,0.0,0.0,0.0,0.0,0.0,0.0,0.0,0.0,0.0,0.0,0.0,0.0,0.0,0.0,0.0,0.0,0.0,0.0,0.0,0.0,0.0,0.0,0.0,0.0,0.0,0.0,0.0,0.0,0.0,0.0,0.0,0.0,0.0,0.0,0.0,0.0,0.0,0.0,0.0,0.0,0.0,0.0,0.0,0.0,0.0,0.0,0.0,0.0,0.0,0.0,0.0,0.0,0.0,0.0,0.0,0.0,0.0,0.0,0.0,0.0,0.0,0.6814,0.7368,0.7841,0.0,0.8739,0.8771,0.8656,0.8696,0.8258,0.7191,0.0,0.0,0.0,0.0,0.0,0.0,0.0,0.0,0.0,0.0,0.0,0.0,0.0,0.0,0.0,0.0,0.0,0.0,0.0,0.0,0.0,0.0,0.0,0.0,0.0,0.0,0.0,0.0,0.0,0.0,0.0,0.0,0.0,0.0,0.0,0.0,0.0,0.0,0.0,0.0,0.0,0.0,0.0,0.0,0.0,0.0,0.0,0.0,0.0,0.0,0.0,0.0,0.0,0.0,0.0,0.0,0.0,0.0,0.0,0.0,0.0,0.0,0.0,0.0,0.0,0.0,0.0,0.0,0.0,0.0,0.0,0.0,0.0,0.0,0.0,0.0,0.0,0.0,0.0,0.0,0.0,0.0,0.0,0.0,0.0,0.0,0.0,0.0,0.0,0.0,0.0,0.0,0.0,0.0,0.0,0.0,0.0,0.0,0.0,0.0,0.0,0.0,0.7088,0.8036,0.8299,0.7566,0.7669,0.7575,0.7036,0.6514,0.6244,0.0,0.0,0.0,0.0,0.0,0.0,0.0,0.0,0.0,0.0,0.0,0.0,0.0,0.0,0.0,0.0,0.0,0.0,0.0,0.0,0.0,0.0,0.0,0.0,0.0,0.0,0.0,0.0,0.0,0.0,0.0,0.0,0.0,0.0,0.0,0.0,0.0,0.0,0.0,0.0,0.0,0.0,0.0,0.0,0.0,0.0,0.0,0.0,0.0,0.0,0.0,0.0,0.0,0.0,0.0,0.0,0.0,0.0,0.0,0.0,0.0,0.0,0.0,0.0,0.0,0.0,0.0,0.0,0.0,0.0,0.0,0.0,0.0,0.0,0.0,0.0,0.0,0.0,0.0,0.0,0.0,0.0,0.0,0.0,0.0,0.0,0.0,0.0,0.0,0.0,0.0,0.0,0.0,0.0,0.0,0.0,0.0,0.0,0.0,0.0,0.0,0.0,0.0,0.5378,0.6348,0.6906,0.6744,0.694,0.7093,0.7075,0.706,0.6858,0.6392,0.0,0.0,0.0,0.0,0.0,0.0,0.0,0.0,0.0,0.0,0.0,0.0,0.0,0.0,0.0,0.0,0.0,0.0,0.0,0.0,0.0,0.0,0.0,0.0,0.0,0.0,0.0,0.0,0.0,0.0,0.0,0.0,0.0,0.0,0.0,0.0,0.0,0.0,0.0,0.0,0.0,0.0,0.0,0.0,0.0,0.0,0.0,0.0,0.0,0.0,0.0,0.0,0.0,0.0,0.0,0.0,0.0,0.0,0.0,0.0,0.0,0.0,0.0,0.0,0.0,0.0,0.0,0.0,0.0,0.0,0.0,0.0,0.0,0.0,0.0,0.0,0.0,0.0,0.0,0.0,0.0,0.0,0.0,0.0,0.0,0.0,0.0,0.0,0.0,0.0,0.0,0.0,0.0,0.0,0.0,0.0,0.0,0.0,0.0,0.0,0.0,0.0,0.4739,0.5545,0.6016,0.5829,0.6041,0.6178,0.6105,0.6284,0.6238,0.5863,0.0,0.0,0.0,0.0,0.0,0.0,0.0,0.0,0.0,0.0,0.0,0.0,0.0,0.0,0.0,0.0,0.0,0.0,0.0,0.0,0.0,0.0,0.0,0.0,0.0,0.0,0.0,0.0,0.0,0.0,0.0,0.0,0.0,0.0,0.0,0.0,0.0,0.0,0.0,0.0,0.0,0.0,0.0,0.0,0.0,0.0,0.0,0.0,0.0,0.0,0.0,0.0,0.0,0.0,0.0,0.0,0.0,0.0,0.0,0.0,0.0,0.0,0.0,0.0,0.0,0.0,0.0,0.0,0.0,0.0,0.0,0.0,0.0,0.0,0.0,0.0,0.0,0.0,0.0,0.0,0.0,0.0,0.0,0.0,0.0,0.0,0.0,0.0,0.0,0.0,0.0,0.0,0.0,0.0,0.0,0.0,0.0,0.0,0.0,0.0,0.0,0.0,0.48,0.5277,0.5389,0.4849,0.5044,0.5042,0.4631,0.4779,0.4928,0.5001,0.0,0.0,0.0,0.0,0.0,0.0,0.0,0.0,0.0,0.0,0.0,0.0,0.0,0.0,0.0,0.0,0.0,0.0,0.0,0.0,0.0,0.0,0.0,0.0,0.0,0.0,0.0,0.0,0.0,0.0,0.0,0.0,0.0,0.0,0.0,0.0,0.0,0.0,0.0,0.0,0.0,0.0,0.0,0.0,0.0,0.0,0.0,0.0,0.0,0.0,0.0,0.0,0.0,0.0,0.0,0.0,0.0,0.0,0.0,0.0,0.5526,0.0,0.0,0.0,0.0,0.0,0.0,0.0,0.0,0.0,0.0,0.0,0.0,0.0,0.0,0.0,0.0,0.0,0.0,0.0,0.0,0.0,0.0,0.0,0.0,0.0,0.0,0.0,0.0,0.0,0.0,0.0,0.0,0.0,0.0,0.0,0.0,0.0,0.0,0.0,0.0,0.0,0.4369,0.4217,0.4064,0.4033,0.4323,0.4541,0.4602,0.4787,0.4936,0.499,0.0,0.0,0.0,0.0,0.0,0.0,0.0,0.0,0.0,0.0,0.0,0.0,0.0,0.0,0.0,0.0,0.0,0.0,0.0,0.0,0.0,0.0,0.0,0.0,0.0,0.0,0.0,0.0,0.0,0.0,0.0,0.0,0.0,0.0,0.0,0.0,0.0,0.0,0.0,0.0,0.0,0.0,0.0,0.0,0.0,0.0,0.0,0.0,0.0,0.0,0.0,0.0,0.0,0.0,0.0,0.0,0.0,0.0,0.0,0.0,0.0,0.6592,0.0,0.0,0.0,0.0,0.0,0.0,0.0,0.0,0.0,0.0,0.0,0.0,0.0,0.0,0.0,0.0,0.0,0.0,0.0,0.0,0.0,0.0,0.0,0.0,0.0,0.0,0.0,0.0,0.0,0.0,0.0,0.0,0.0,0.0,0.0,0.0,0.0,0.0,0.0,0.0,0.4546,0.4229,0.4093,0.4519,0.4517,0.4611,0.4913,0.4827,0.4832,0.4991,0.501,0.0,0.0,0.0,0.0,0.0,0.0,0.0,0.0,0.0,0.0,0.0,0.0,0.0,0.0,0.0,0.0,0.0,0.0,0.0,0.0,0.0,0.0,0.0,0.0,0.0,0.0,0.0,0.0,0.0,0.0,0.0,0.0,0.0,0.0,0.0,0.0,0.0,0.0,0.0,0.0,0.0,0.0,0.0,0.0,0.0,0.0,0.0,0.0,0.0,0.0,0.0,0.0,0.0,0.0,0.783,0.8842,0.7936,0.8259,0.9441,0.7943,0.7838,0.8663,0.0,0.0,0.0,0.0,0.0,0.0,0.0,0.0,0.0,0.0,0.0,0.0,0.0,0.0,0.0,0.0,0.0,0.0,0.0,0.0,0.0,0.0,0.0,0.0,0.0,0.6948,0.6697,0.0,0.0,0.0,0.0,0.0,0.0,0.0,0.0,0.0,0.0,0.0,0.0,0.4909,0.467,0.4671,0.5282,0.5065,0.501,0.5353,0.501,0.4861,0.5107,0.5049,0.5015,0.0,0.0,0.0,0.0,0.0,0.0,0.0,0.0,0.0,0.0,0.0,0.0,0.0,0.0,0.0,0.0,0.0,0.0,0.0,0.0,0.0,0.0,0.0,0.0,0.0,0.0,0.0,0.0,0.0,0.0,0.0,0.0,0.5022,0.6303,0.0,0.0,0.0,0.0,0.0,0.0,0.0,0.0,0.0,0.0,0.0,0.0,0.0,0.0,0.7272,0.7119,0.7287,0.7794,0.7918,0.7971,0.7982,0.8293,0.8431,0.8432,0.875,0.0,0.9509,0.8947,0.0,0.0,0.0,0.0,0.0,0.0,0.0,0.0,0.0,0.0,0.0,0.0,0.0,0.0,0.0,0.0,0.0,0.0,0.0,0.0,0.0,0.0,0.6622,0.5883,0.5732,0.5708,0.0,0.655,0.7103,0.5824,0.0,0.0,0.0,0.0,0.0,0.0,0.0,0.0,0.4979,0.5004,0.5034,0.5124,0.5397,0.5609,0.5732,0.5513,0.5451,0.5596,0.5289,0.5061,0.4999,0.5005,0.0,0.0,0.0,0.0,0.0,0.0,0.0,0.0,0.0,0.0,0.0,0.0,0.0,0.0,0.0,0.0,0.0,0.0,0.0,0.0,0.0,0.0,0.0,0.0,0.0,0.0,0.0,0.0,0.0,0.5315,0.5817,0.6201,0.6363,0.6345,0.0,0.0,0.0,0.0,0.0,0.0,0.0,0.0,0.0,0.6836,0.6328,0.646,0.7278,0.7264,0.7322,0.7469,0.7899,0.8039,0.7921,0.8356,0.8549,0.8571,0.9046,0.9189,0.9078,0.9116,0.9154,0.922,0.0,0.0,0.0,0.0,0.0,0.8723,0.8879,0.0,0.0,0.0,0.0,0.0,0.0,0.0,0.0,0.0,0.0,0.0,0.0,0.0,0.0,0.7182,0.694,0.6797,0.683,0.7136,0.7188,0.0,0.6266,0.6224,0.6176,0.0,0.0,0.0,0.0,0.0,0.582,0.5661,0.5657,0.6068,0.6065,0.6109,0.6288,0.6011,0.5765,0.5604,0.5492,0.5297,0.4961,0.4979,0.5005,0.0,0.0,0.0,0.0,0.0,0.0,0.0,0.0,0.0,0.0,0.0,0.0,0.0,0.0,0.0,0.0,0.0,0.0,0.0,0.0,0.0,0.0,0.0,0.0,0.0,0.0,0.0,0.0,0.5621,0.6101,0.619,0.6555,0.6622,0.0,0.0,0.0,0.0,0.0,0.0,0.739,0.7281,0.7244,0.7315,0.7071,0.7069,0.7328,0.7659,0.7773,0.7663,0.811,0.8298,0.8264,0.8624,0.8771,0.8775,0.9142,0.9186,0.9046,0.946,0.9772,0.996,0.98,0.9717,0.0,0.9899,0.9973,0.9999,1.0216,1.0285,1.0231,1.001,0.0,0.8798,0.8165,0.0,0.0,0.0,0.0,0.8106,0.8559,0.0,0.8178,0.8277,0.8103,0.793,0.793,0.7694,0.734,0.0,0.674,0.6718,0.6621,0.0,0.0,0.0,0.0,0.5644,0.6307,0.6169,0.6207,0.6756,0.6653,0.661,0.6804,0.652,0.6147,0.5739,0.5669,0.5415,0.4898,0.4948,0.498,0.5008,0.0,0.0,0.0,0.0,0.0,0.0,0.0,0.0,0.0,0.0,0.0,0.0,0.0,0.0,0.0,0.0,0.0,0.0,0.0,0.0,0.0,0.0,0.0,0.0,0.0,0.0,0.0,0.0,0.0,0.684,0.656,0.0,0.0,0.0,0.0,0.7165,0.715,0.718,0.7213,0.7201,0.7097,0.6836,0.7671,0.7974,0.768,0.8747,0.9158,0.891,0.8937,0.8947,0.8957,0.9367,0.9201,0.8635,0.9099,0.9622,1.0133,1.0428,1.0175,0.9644,0.9816,0.9776,0.9605,0.9619,0.9629,0.9639,0.9712,0.982,0.9936,0.9973,1.0011,0.9993,0.982,0.9577,0.0,0.0,0.8498,0.8047,0.8272,0.8021,0.7833,0.821,0.8297,0.8272,0.8272,0.8257,0.7861,0.0,0.6332,0.6332,0.6318,0.0,0.5917,0.6064,0.633,0.6357,0.5901,0.6257,0.6582,0.6616,0.6932,0.7154,0.717,0.7041,0.676,0.6292,0.5788,0.529,0.4826,0.486,0.4931,0.4995,0.4925,0.0,0.0,0.0,0.0,0.0,0.0,0.0,0.0,0.0,0.0,0.0,0.0,0.0,0.0,0.0,0.0,0.0,0.0,0.0,0.0,0.0,0.0,0.0,0.0,0.0,0.0,0.0,0.0,0.6813,0.698,0.0,0.7469,0.7504,0.7414,0.7211,0.7192,0.7365,0.7758,0.7776,0.7921,0.8203,0.8537,0.8648,0.8529,0.8945,0.9102,0.9004,0.918,0.917,0.9014,0.9335,0.9249,0.8857,0.9037,0.9241,0.9453,0.9808,0.9716,0.9354,0.9461,0.9267,0.8902,0.903,0.9083,0.9129,0.9358,0.9468,0.9513,0.9542,0.9294,0.9019,0.9063,0.8991,0.8947,0.9036,0.8896,0.8805,0.9215,0.9218,0.9157,0.9304,0.9076,0.8812,0.8812,0.8548,0.8154,0.7685,0.7585,0.7585,0.7585,0.7181,0.6887,0.6931,0.6743,0.6524,0.6344,0.6474,0.6599,0.6599,0.6845,0.7056,0.718,0.7315,0.7013,0.6162,0.6052,0.5597,0.4639,0.4802,0.4913,0.4931,0.5001,0.4969,0.0,0.0,0.0,0.0,0.0,0.0,0.0,0.0,0.0,0.0,0.0,0.0,0.0,0.0,0.0,0.0,0.0,0.0,0.0,0.0,0.0,0.0,0.0,0.0,0.0,0.0,0.6404,0.6758,0.7191,0.7503,0.7585,0.7791,0.7851,0.7719,0.7774,0.798,0.838,0.8395,0.8598,0.8984,0.9123,0.9201,0.9201,0.9365,0.9434,0.9443,0.9619,0.9609,0.9443,0.9619,0.9609,0.9434,0.9434,0.9434,0.9451,0.9725,0.9638,0.9353,0.9507,0.924,0.881,0.9131,0.9237,0.9247,0.9338,0.9378,0.9339,0.9181,0.8957,0.8778,0.9048,0.9089,0.912,0.9528,0.9429,0.9318,0.9779,0.9815,0.9751,0.988,0.9629,0.9365,0.9365,0.9101,0.8838,0.8838,0.855,0.8298,0.8298,0.7964,0.7703,0.7703,0.74,0.7172,0.7172,0.7,0.6865,0.6865,0.689,0.698,0.7186,0.7447,0.724,0.6386,0.6521,0.609,0.4854,0.5318,0.5521,0.5304,0.5723,0.5794,0.5479,0.0,0.0,0.0,0.0,0.0,0.0,0.0,0.0,0.0,0.0,0.0,0.0,0.0,0.0,0.0,0.0,0.0,0.0,0.0,0.0,0.0,0.0,0.0,0.5302,0.562,0.6098,0.6752,0.7192,0.7561,0.7813,0.8365,0.871,0.871,0.8892,0.9014,0.9023,0.9023,0.9033,0.9043,0.9425,0.9612,0.9612,1.0068,1.0303,1.0303,1.0303,1.0303,1.0303,1.0303,1.0303,1.0303,1.0303,1.0303,1.0303,1.0303,1.0029,0.9664,0.9967,0.9761,0.9355,0.9874,1.0064,0.9998,0.9624,0.9485,0.9422,0.899,0.912,0.9537,1.008,1.0112,1.0069,1.0582,1.0113,0.9549,0.9853,0.9684,0.9513,0.9828,0.9905,0.9905,0.9905,0.9905,0.9905,0.9905,0.9064,0.8349,0.8349,0.8336,0.8324,0.8324,0.8311,0.0,0.8298,0.7789,0.7418,0.7406,0.7104,0.699,0.7178,0.7431,0.7402,0.7019,0.7146,0.6698,0.5465,0.6409,0.6693,0.6106,0.7062,0.721,0.6537,0.0,0.0,0.0,0.0,0.0,0.0,0.0,0.0,0.0,0.0,0.0,0.0,0.0,0.0,0.0,0.0,0.0,0.0,0.0,0.0,0.0,0.0,0.5947,0.5698,0.6536,0.725,0.7437,0.8108,0.8594,0.8664,0.8819,0.8918,0.8918,0.8969,0.9123,0.9425,0.9445,0.9581,0.9941,1.0039,1.0107,1.0107,1.0244,1.0303,1.0303,1.0303,1.0303,1.0303,1.0303,1.0303,1.0303,1.0303,1.0303,1.0303,1.0303,1.0215,1.0078,0.9826,0.9469,0.9094,0.9251,0.9305,0.9295,0.9173,0.9133,0.9217,0.9735,0.9969,1.0202,1.0975,1.1178,1.1161,1.1312,1.1178,1.0922,1.0567,1.0413,1.0273,0.9967,0.9905,0.9905,0.9905,0.9905,0.9905,0.9905,0.9667,0.9466,0.9466,0.9139,0.8875,0.8875,0.0,0.0,0.8298,0.815,0.7889,0.7443,0.7326,0.7185,0.6995,0.705,0.6981,0.0,0.6351,0.6051,0.585,0.5935,0.5998,0.602,0.6246,0.6039,0.0,0.0,0.0,0.0,0.0,0.0,0.0,0.0,0.0,0.0,0.0,0.0,0.0,0.0,0.0,0.0,0.0,0.0,0.0,0.0,0.0,0.0,0.6689,0.6934,0.6888,0.7349,0.7832,0.8207,0.8841,0.925,0.925,0.9434,0.9541,0.9541,0.9541,0.9648,0.9874,0.9884,1.002,1.0293,1.0303,1.0303,1.0303,1.0303,1.0303,1.0303,1.0303,1.0303,1.0303,1.0303,1.0303,0.0,1.0303,1.0303,1.0303,1.0303,1.0303,0.0,0.0,0.0,0.0,0.0,0.9541,0.9512,0.9318,0.925,0.9333,0.9873,1.0167,1.0473,1.139,1.1641,1.1653,1.1864,1.1763,1.1527,1.1173,1.1071,1.101,1.0684,1.0608,1.0546,1.0281,1.0231,1.0168,0.9943,0.0,0.0,0.9905,0.9642,0.9441,0.9441,0.9165,0.8976,0.0,0.8776,0.8499,0.815,0.7914,0.7639,0.7301,0.7349,0.0,0.0,0.0,0.6817,0.708,0.6727,0.0,0.0,0.0,0.0,0.0,0.0,0.0,0.0,0.466,0.4185,0.0,0.0,0.0,0.0,0.0,0.0,0.0,0.0,0.0,0.0,0.0,0.0,0.0,0.0,0.0,0.0,0.7516,0.8012,0.8473,0.8184,0.8192,0.8967,0.9435,0.9689,0.9689,1.0059,1.0303,1.0303,1.0303,1.0303,1.0303,0.0,0.0,0.0,0.0,1.0303,1.0303,1.0303,1.0303,1.0303,1.0303,1.0303,1.0303,1.0303,1.0303,1.0303,1.0303,1.0303,1.0303,1.0303,1.0303,1.0303,1.0303,1.0303,1.0303,1.0303,1.0303,0.0,0.0,0.0,0.0,0.9961,1.0256,1.0722,1.1681,1.187,1.1876,1.235,1.2153,1.1779,1.1716,1.1691,1.1678,1.1615,1.1603,1.145,1.0921,1.0808,1.067,1.0182,1.0044,0.9993,0.9993,0.9943,0.9905,0.9905,0.9905,0.0,0.9905,0.9491,0.9163,0.9113,0.0,0.0,0.7891,0.7963,0.7919,0.7673,0.792,0.8184,0.8434,0.8048,0.821,0.8979,0.9235,0.8953,0.8117,0.8178,0.7795,0.6965,0.5488,0.4772,0.0,0.0,0.0,0.0,0.0,0.0,0.0,0.0,0.0,0.0,0.0,0.0,0.0,0.0,0.0,0.707,0.8029,0.8889,0.9309,0.9299,0.9291,0.9474,0.9893,1.0156,1.0156,1.0254,1.0303,1.0303,1.0303,1.0303,1.0303,1.0303,0.0,1.0303,1.0303,1.0303,1.0303,1.0303,1.0303,1.0303,0.0,0.0,1.0303,1.0303,1.0303,1.0303,1.0303,1.0303,1.0303,1.0303,1.0303,1.0303,1.0303,1.0303,1.0303,1.0303,1.0303,1.0341,1.0623,1.0733,1.0872,1.1684,1.2007,1.2188,1.2758,1.2909,0.0,1.301,1.296,1.2801,1.235,1.2253,1.214,1.1688,1.1603,1.1565,1.1452,1.1425,1.1402,1.1301,1.0885,1.0557,1.0557,1.0181,0.9905,0.9905,0.9905,0.9905,0.9905,0.9805,0.9579,0.9151,0.9001,0.8747,0.8249,0.7798,0.7662,0.7983,0.7972,0.7802,0.7484,0.7846,0.7952,0.7745,0.7795,0.7563,0.7013,0.7016,0.7011,0.6996,0.6768,0.668,0.0,0.0,0.0,0.0,0.0,0.0,0.0,0.0,0.0,0.0,0.0,0.5549,0.5548,0.0,0.7282,0.7852,0.8715,0.9455,0.9884,0.9961,0.9961,0.9961,1.0156,1.0303,1.0303,1.0303,1.0303,1.0303,1.0303,1.0303,1.0303,1.0303,1.0303,1.0303,1.0303,1.0303,1.0303,1.0303,1.0303,1.0303,1.0303,1.0303,1.0303,1.0303,1.0303,1.0303,1.0303,1.0303,1.0303,1.0303,1.0303,1.0303,1.0303,1.0303,1.0303,1.0303,1.0448,1.0687,1.0924,1.1188,1.1523,1.2264,1.2508,1.2597,1.3047,1.3198,1.3198,1.3198,1.3198,1.3135,1.286,1.2801,1.2739,1.2463,1.24,1.2341,1.2065,1.2002,1.1914,1.1638,1.1362,1.1046,1.0744,1.0482,1.0206,0.9943,0.9905,0.9905,0.9905,0.9905,0.9792,0.9529,0.9503,0.935,0.8987,0.8343,0.8104,0.8485,0.813,0.7792,0.7566,0.79,0.7993,0.7755,0.7856,0.7835,0.7703,0.7727,0.7852,0.8045,0.8196,0.7869,0.0,0.0,0.0,0.0,0.0,0.0,0.0,0.0,0.596,0.5647,0.5847,0.6058,0.5958,0.6681,0.7619,0.8535,0.9263,0.9864,1.0254,1.0303,1.0303,1.0303,1.0303,1.0303,1.0303,1.0303,1.0303,1.0303,1.0303,1.0303,1.0303,1.0303,1.0303,1.0303,1.0303,1.0303,1.0303,1.0303,1.0303,1.0303,1.039,1.0448,1.0448,1.0448,1.0448,1.0428,1.0341,1.0303,1.0303,1.0303,1.0303,1.0303,1.0303,1.0303,1.0303,1.0303,1.0592,1.1008,1.1113,1.1505,1.2011,1.2478,1.2632,1.2703,1.3094,1.3198,1.3198,1.3198,1.3198,1.3198,1.3198,1.3198,1.3198,1.3198,1.3198,1.3073,1.2651,1.2551,1.2425,1.1989,1.1842,1.16,1.1121,1.0946,1.0645,1.0006,0.9905,0.9905,0.9905,0.9905,0.9905,0.9905,0.9905,0.9817,0.9617,0.9157,0.8906,0.9002,0.855,0.8289,0.8289,0.827,0.8256,0.8256,0.8303,0.8438,0.8651,0.8727,0.8885,0.9057,0.9194,0.8668,0.7169,0.6852,0.6508,0.578,0.594,0.6272,0.0,0.0,0.6808,0.6304,0.652,0.6641,0.6158,0.7164,0.8125,0.8247,0.9373,1.0244,1.0293,1.0303,1.0303,1.0303,1.0303,1.0303,1.0303,1.0303,1.0303,1.0303,1.0303,1.0303,1.0303,1.0303,1.0303,1.0303,1.0303,1.0303,1.0303,1.0303,1.0303,1.0303,1.0725,1.0924,1.0924,1.0924,1.0924,1.0905,1.0486,1.0303,1.0303,1.0303,1.0303,1.0303,1.0303,1.0303,1.0303,1.0303,1.0592,1.1075,1.1553,1.2011,1.2508,1.2978,1.3129,1.3129,1.3181,1.3198,1.3198,1.3198,1.3198,1.3198,1.3198,1.3198,1.3198,1.3198,1.3198,1.3185,1.3123,1.311,1.3085,1.3023,1.2638,1.2291,1.2212,1.1814,1.115,1.0056,0.9905,0.9905,0.9905,0.9905,0.9905,0.9905,0.9905,0.9817,0.9617,0.996,0.9965,0.9473,0.9582,0.9674,0.9674,0.9123,0.8816,0.8816,0.8373,0.824,0.8441,0.8622,0.8789,0.8925,0.9052,0.9133,0.6899,0.6887,0.6904,0.0,0.6865,0.7232,0.75,0.772,0.7706,0.7171,0.7313,0.7308,0.6528,0.7282,0.8135,0.0,0.9252,0.9942,1.0264,1.0303,1.0303,1.0303,1.0303,1.0303,1.0303,1.0303,1.0303,1.0303,1.0303,1.0303,1.0303,1.0303,1.0303,1.0303,1.0303,1.0303,1.0303,1.0303,1.0303,1.0303,1.0783,1.1,1.1,1.1,1.0848,1.0572,1.04,1.0303,1.0303,1.0303,1.0303,1.0303,1.0303,1.0467,1.0706,1.0706,1.1019,1.1542,1.2029,1.2508,1.2943,1.3146,1.3198,1.3198,1.3198,1.3198,1.3198,1.3198,1.3198,1.3198,1.3198,1.3198,1.3198,1.3198,1.3198,1.3198,1.3198,1.3198,1.3198,1.3198,1.301,1.2776,1.245,1.22,1.188,1.1311,1.0734,1.0244,0.9943,0.9905,0.997,1.0173,1.0506,1.0688,1.059,1.0613,1.0534,1.0269,1.0038,0.989,0.989,0.9629,0.9488,0.9488,0.9372,0.9428,0.963,0.9861,1.0045,1.0178,1.0242,1.0311,0.6741,0.705,0.0,0.7463,0.7759,0.8149,0.8493,0.8659,0.8575,0.8051,0.8069,0.7937,0.7107,0.7469,0.8077,0.8614,0.9159,0.9686,1.0225,1.0303,1.0303,1.0303,1.0303,1.0303,1.0303,1.0303,1.0303,1.0303,1.0303,1.0303,1.0303,1.0303,1.0303,1.0303,1.0303,1.0303,1.0303,1.0303,1.0303,1.0322,1.0935,1.1226,1.1226,1.1356,1.1151,1.0717,1.0563,1.0486,1.0486,1.0351,1.038,1.0486,1.0351,1.0602,1.1019,1.1169,1.1542,1.2029,1.2372,1.282,1.3198,1.3198,1.3198,1.3198,1.3198,1.3198,1.3198,1.3198,1.3198,1.3198,1.3198,1.3198,1.3198,1.3198,1.3198,1.3198,1.3198,1.3198,1.3198,1.3198,1.3198,1.3073,1.2689,1.2626,1.2586,1.2441,1.1806,1.1121,1.0522,1.0289,1.0273,1.0508,1.0996,1.1296,1.1296,1.1152,1.1077,1.1077,1.0668,1.0413,1.0413,1.0249,1.0181,1.0264,1.0275,1.0399,1.0606,1.0836,1.1014,1.1103,1.1103,1.1103,0.7092,0.0,0.8359,0.8356,0.8652,0.8975,0.8984,0.9279,0.9408,0.8875,0.8716,0.8504,0.7959,0.7891,0.8077,0.8614,0.9159,0.9686,1.0225,1.0303,1.0303,1.0303,1.0303,1.0303,0.0,1.0303,1.0303,1.0303,1.0303,1.0303,1.0303,1.0303,1.0303,1.0303,1.0303,1.0303,1.0303,1.0303,1.0303,1.0322,1.1311,1.1774,1.1792,1.2246,1.2192,1.1719,1.1207,1.0981,1.0943,1.0486,1.0582,1.0924,1.0486,1.0602,1.1057,1.159,1.2066,1.2478,1.2508,1.282,1.3198,1.3198,1.3198,1.3198,1.3198,1.3198,1.3198,1.3198,1.3198,1.3198,1.3198,1.3198,1.3198,1.3198,1.3198,1.3198,1.3198,1.3198,1.3198,1.3198,1.3198,1.3185,1.3173,1.3173,1.3128,1.2993,1.2949,1.2672,1.1932,1.1268,1.0873,1.0885,1.1127,1.1296,1.1296,1.1586,1.1775,1.1775,1.1745,1.1745,1.1745,1.1121,1.089,1.1153,1.0715,1.0614,1.0891,1.1035,1.1096,1.1103,1.1103,1.1103,0.6923,0.0,0.8085,0.8985,0.9299,0.9484,0.9785,0.9961,0.9906,0.9377,0.8998,0.8517,0.7717,0.7499,0.7645,0.8273,0.8697,0.9279,1.0176,1.0303,1.0303,1.0303,1.0303,0.0,0.0,0.0,0.0,1.0303,1.0303,1.0303,1.0303,1.0303,1.0303,1.0303,1.0592,1.0611,1.0303,1.1314,1.1657,1.1383,1.2706,1.3138,1.2796,1.2964,1.2591,1.1792,1.1608,1.1523,1.1486,1.0981,1.0867,1.0962,1.0486,1.0802,1.1542,1.1737,1.2282,1.296,1.296,1.3064,1.3198,1.3198,1.3198,1.3198,1.3198,1.3198,1.3198,1.3198,1.3198,1.3198,1.3198,1.3198,1.3198,1.3198,1.3442,1.3581,1.3267,1.3442,1.3665,1.3665,1.3665,1.3752,1.4019,1.4052,1.3931,1.3523,1.2772,1.2183,1.1927,1.1474,1.1161,1.1161,1.146,1.1637,1.1637,1.1736,1.1805,1.1805,1.1805,1.1805,1.1805,1.158,1.1586,1.1869,1.1879,1.2022,1.2289,1.253,1.2634,1.2634,1.2634,1.2634,0.7209,0.7753,0.8314,0.9552,0.9845,0.9923,1.0234,1.0303,1.0157,0.9647,0.9139,0.8532,0.7631,0.7251,0.7308,0.8068,0.8387,0.8943,1.0118,1.0303,1.0303,1.0303,1.0303,1.0303,0.0,0.0,0.0,1.0303,1.0303,1.0303,1.0303,1.0303,1.0303,1.0303,1.0956,1.1058,1.0528,1.2081,1.2819,1.27,1.3646,1.4009,1.3873,1.3873,1.3509,1.2894,1.2503,1.2341,1.2281,1.1582,1.1394,1.1486,1.1029,1.133,1.2048,1.2048,1.2437,1.2978,1.3146,1.3198,1.3198,1.3198,1.3198,1.3232,1.3408,1.3323,1.3232,1.3408,1.3459,1.3459,1.3459,1.3564,1.3665,1.3665,1.3885,1.4019,1.3719,1.3901,1.41,1.41,1.41,1.4198,1.4454,1.4627,1.4511,1.3924,1.3131,1.2443,1.2088,1.1923,1.1738,1.1493,1.167,1.1805,1.1805,1.1805,1.1805,1.1805,1.1805,1.1833,1.1929,1.194,1.2107,1.2471,1.2655,1.2871,1.3138,1.332,1.3396,1.3396,1.3396,1.3396,0.7866,0.848,0.9038,1.0041,1.0303,1.0303,1.0303,1.0283,1.0137,0.9698,0.917,0.8538,0.0,0.0,0.716,0.8042,0.8236,0.8741,1.0108,1.0303,1.0303,0.0,0.0,0.0,0.0,0.0,0.0,1.0303,0.0,1.0303,1.0303,1.0322,1.0332,1.0332,1.1364,1.1612,1.0979,1.2629,1.3726,1.4221,1.4221,1.4479,1.4934,1.4934,1.4941,1.4839,1.3829,1.3385,1.33,1.2288,1.2159,1.2544,1.1986,1.2107,1.2544,1.2508,1.2526,1.2597,1.306,1.3198,1.3198,1.3232,1.325,1.3323,1.3785,1.3615,1.3357,1.3785,1.3917,1.3934,1.3917,1.4198,1.4501,1.4501,1.4517,1.4533,1.4501,1.4517,1.4519,1.4491,1.4465,1.4467,1.4467,1.4791,1.4832,1.417,1.3919,1.3443,1.2453,1.2568,1.2516,1.1865,1.1805,1.1805,1.1805,1.1805,1.1805,1.1805,1.1805,1.1908,1.2195,1.2205,1.2451,1.2995,1.3004,1.3129,1.3396,1.3396,1.3396,1.3396,1.3396,1.3396,0.7883,0.8465,0.8978,1.003,1.0303,1.0303,1.0303,1.0029,0.9747,0.9622,0.901,0.8246,0.0,0.0,0.0,0.7892,0.861,0.0,1.0186,1.0303,0.0,1.0303,0.0,1.0303,1.0303,1.0303,0.0,0.0,1.0303,1.0303,1.0303,1.0576,1.0752,1.0752,1.1696,1.2152,1.21,1.3752,1.5037,1.5893,1.5893,1.5745,1.5512,1.5512,1.5286,1.4884,1.4599,1.4479,1.4403,1.3349,1.3217,1.3574,1.2297,1.2332,1.305,1.2651,1.272,1.3042,1.3163,1.3198,1.3267,1.3615,1.3719,1.3802,1.4214,1.4262,1.4133,1.395,1.4117,1.4278,1.3983,1.4198,1.4501,1.4501,1.4737,1.486,1.4564,1.4737,1.4795,1.4297,1.4082,1.3983,1.3983,1.4064,1.4071,1.3908,1.3823,1.3531,1.2769,1.2309,1.1984,1.182,1.1805,1.1805,1.1805,1.1805,1.1805,1.1805,1.1805,1.1908,1.2195,1.2205,1.2451,1.2995,1.3004,1.3129,1.3396,1.3396,1.3396,1.3396,1.3396,1.3396,0.8086,0.8558,0.8958,1.004,1.0303,1.0282,1.0256,1.0053,0.9712,0.9141,0.8822,0.0,0.6784,0.7349,0.0,0.0,0.0,0.0,1.0196,1.0303,1.0303,0.0,1.0303,0.0,1.0303,1.0303,1.0371,0.0,1.0557,1.0557,1.0557,1.0957,1.1213,1.1213,1.2156,1.3043,1.3858,1.4531,1.5435,1.65,1.65,1.6337,1.6057,1.6057,1.5881,1.558,0.0,1.5248,1.5191,1.4358,1.4181,1.4357,1.3507,1.3516,1.393,1.3393,1.3371,1.3559,1.3303,1.3198,1.3284,1.3752,1.3901,1.4016,1.4596,1.4517,1.423,1.4181,1.4326,1.4406,1.4,1.4326,1.4752,1.4752,1.4937,1.5089,1.5074,1.524,1.5301,1.492,1.4514,1.4244,1.4244,1.3991,1.3692,1.3406,1.3361,1.3121,1.2445,1.2295,1.213,1.1835,1.1805,1.1805,1.1805,1.1805,1.1859,1.1976,1.1986,1.2149,1.253,1.2549,1.2757,1.3165,1.3173,1.326,1.3396,1.3396,1.3396,1.3396,1.3396,1.3396,0.8331,0.8695,0.8958,1.004,1.0292,1.0259,1.0206,1.0085,0.9668,0.8532,0.0,0.8068,0.6211,0.6926,0.781,0.7881,0.0,0.9366,1.0176,1.0303,1.0303,1.0303,1.0303,1.0322,1.0361,1.044,1.0636,1.0967,1.1128,1.1128,1.0996,1.1428,1.1714,1.1773,1.2703,1.3937,1.5465,1.5028,1.5377,1.65,1.65,1.65,1.65,1.65,1.65,1.6475,0.0,0.0,1.5756,1.5236,1.5047,1.5097,1.4947,1.4934,1.4934,1.44,1.4217,1.4123,1.3609,1.3428,1.349,1.3854,1.395,1.4052,1.486,1.458,1.4035,1.4342,1.4454,1.4406,1.4,1.4454,1.5028,1.5028,1.5058,1.521,1.5624,1.5681,1.5664,1.5664,1.5125,1.4676,1.4676,1.4109,1.3466,1.2891,1.2714,1.246,1.1865,1.231,1.2445,1.1865,1.1805,1.1805,1.1805,1.1805,1.1908,1.2169,1.2205,1.2441,1.2986,1.3004,1.3129,1.3388,1.3396,1.3396,1.3396,1.3396,1.3396,1.3396,1.3396,1.3396,0.8374,0.8695,0.8958,1.004,1.0273,1.0216,1.0205,0.9515,0.0,0.0,0.7692,0.698,0.6397,0.7079,0.7853,0.8232,0.8979,0.9693,1.0215,0.0,1.0303,0.0,0.0,0.0,0.0,0.0,0.0,0.0,0.0,0.0,1.153,1.1875,1.2275,1.2661,1.3327,1.4057,1.4858,1.5253,1.5798,1.65,1.65,1.65,1.65,1.65,1.65,1.6488,0.0,0.0,1.6333,1.5781,1.5819,1.6132,1.5248,1.5173,1.5512,1.4947,1.4765,1.4752,1.4645,1.4607,1.4574,1.4439,1.4165,1.4052,1.486,1.4768,1.4342,1.4068,1.4246,1.4406,1.4,1.4246,1.4596,1.4596,1.486,1.5119,1.5195,1.5094,1.4975,1.4975,1.4438,1.3961,1.3961,1.3421,1.2924,1.2831,1.2325,1.1925,1.1805,1.1895,1.1925,1.1805,1.1805,1.1805,1.1805,1.1805,1.1908,1.2169,1.2205,1.2441,1.2986,1.3004,1.3129,1.3388,1.3396,1.3396,1.3396,1.3396,1.3396,1.3396,1.3396,1.3396,0.839,0.8695,0.8958,1.004,1.024,1.0193,1.0159,0.0,0.0,0.0,0.7542,0.6829,0.6071,0.69,0.0,0.7715,0.8603,0.9435,0.9883,0.9941,0.0,0.0,0.0,0.0,0.0,0.0,0.0,0.0,0.0,0.0,1.1959,1.2324,1.2666,1.2895,1.3481,1.4097,1.4698,1.5298,1.5908,1.65,1.65,1.65,1.65,1.65,1.65,1.65,0.0,0.0,1.6475,1.6233,1.6283,1.645,1.5932,1.5894,1.6057,1.5505,1.5324,1.5286,1.4997,1.4896,1.4911,1.499,1.4692,1.4436,1.502,1.4734,1.4149,1.395,1.4035,1.4084,1.3648,1.3868,1.4181,1.4181,1.4643,1.5165,1.5404,1.5387,1.532,1.532,1.4781,1.4318,1.4318,1.375,1.3208,1.2849,1.2519,1.2179,1.1835,1.1805,1.1805,1.1805,1.1805,1.1805,1.1805,1.1805,1.1971,1.2376,1.2422,1.2655,1.3182,1.32,1.3277,1.3396,1.3396,1.3396,1.3396,1.3396,1.3396,1.3396,1.3396,1.3396,0.8407,0.8777,0.9099,1.0059,1.0244,1.016,1.0103,0.9528,0.0,0.0,0.7413,0.6716,0.5822,0.0,0.7281,0.0,0.8154,0.9053,0.9542,0.9698,0.9884,0.0,0.0,0.0,0.0,0.0,0.0,0.0,0.0,0.0,1.2387,1.2695,1.2905,1.2905,1.3481,1.4027,1.4491,1.5096,1.5644,1.6107,1.625,1.6315,1.6315,1.6445,1.65,1.65,0.0,0.0,0.0,1.65,1.65,1.65,1.65,1.65,1.645,1.6032,1.5869,1.5806,1.5399,1.5248,1.5295,1.5614,1.5209,1.4638,1.5042,1.4503,1.3752,1.3752,1.3752,1.3682,1.3301,1.3547,1.395,1.4117,1.4643,1.5225,1.5712,1.5799,1.5799,1.5799,1.5365,1.5005,1.5005,1.4453,1.384,1.3313,1.2984,1.2609,1.2074,1.188,1.1805,1.1805,1.1805,1.1805,1.1805,1.1805,1.2034,1.2572,1.2601,1.2843,1.3379,1.3396,1.3396,1.3396,1.3396,1.3396,1.3396,1.3396,1.3396,1.3396,1.3396,1.3396,0.8464,0.9059,0.9558,1.0157,1.0198,1.0102,1.0091,0.0,0.8291,0.7968,0.6899,0.6053,0.6118,0.0,0.0,0.0,0.0,0.8711,0.9503,0.9971,1.0254,0.0,0.0,0.0,0.0,0.0,0.0,0.0,0.0,0.0,0.0,1.2886,1.2905,1.2905,1.3481,1.3815,1.3886,1.4491,1.4812,1.4858,1.541,1.5676,1.5698,1.6238,1.65,1.65,0.0,0.0,0.0,1.65,1.65,1.65,1.65,1.65,1.6488,1.6437,1.6425,1.6412,1.6362,1.635,1.6371,1.6401,1.5396,1.4217,1.462,1.4068,1.3267,1.3267,1.3267,1.325,1.3215,1.3547,1.4068,1.4814,1.5058,1.5225,1.5712,1.5799,1.5799,1.5799,1.5754,1.5709,1.5709,1.5155,1.4691,1.4631,1.3568,1.2786,1.2726,1.2175,1.1805,1.1805,1.1805,1.1805,1.1805,1.1805,1.2034,1.2572,1.2601,1.2843,1.3379,1.3396,1.3396,1.3396,1.3396,1.3396,1.3396,1.3396,1.3396,1.3396,1.3396,1.3396,0.8517,0.9113,0.9696,1.0515,1.0404,1.0083,1.0057,0.0,0.8166,0.7701,0.6686,0.5967,0.6166,0.5972,0.6092,0.0,0.0,0.0,0.876,0.0,0.0,0.0,0.0,0.0,0.0,0.0,0.0,0.0,0.0,0.0,0.0,1.3624,1.3443,1.3443,1.4388,1.4881,1.4881,1.5118,1.5231,1.5231,1.5499,1.561,1.561,1.6216,1.65,1.65,0.0,0.0,0.0,1.65,1.65,1.65,1.65,1.65,1.65,1.65,1.65,1.65,1.65,1.65,1.6552,1.6879,1.6327,1.5452,1.4965,1.4067,1.3198,1.3198,1.3408,1.3615,1.3615,1.395,1.4406,1.4968,1.5104,1.5225,1.5712,1.5799,1.5799,1.5799,1.5799,1.5799,1.5799,1.5589,1.526,1.4871,1.4346,1.3718,1.2894,1.2576,1.225,1.1835,1.1805,1.1805,1.1805,1.1805,1.2034,1.2572,1.2601,1.2843,1.3379,1.3396,1.3396,1.3396,1.3396,1.3396,1.3396,1.3396,1.3396,1.3396,1.3396,1.3396,0.8498,0.9271,0.9935,1.0596,1.0523,1.0215,0.0,0.8997,0.8125,0.7518,0.6648,0.6034,0.6183,0.6047,0.6117,0.0,0.0,0.7588,0.8463,0.8926,0.0,0.0,0.0,0.0,0.0,0.0,0.0,0.0,0.0,0.0,0.0,1.4468,1.4249,1.4073,1.5062,1.5521,1.5343,1.5521,1.5521,1.5343,1.5521,1.561,1.561,1.6216,1.65,0.0,0.0,0.0,0.0,1.65,1.65,1.65,1.65,1.65,1.65,1.65,1.65,1.65,1.65,1.65,1.6595,1.7126,1.6936,1.6356,1.5595,1.4578,1.3667,1.3667,1.3782,1.395,1.4181,1.447,1.4783,1.521,1.5314,1.5404,1.5741,1.5799,1.5799,1.5799,1.5799,1.5799,1.5799,1.5799,1.5649,1.517,1.4931,1.4466,1.3508,1.3223,1.2834,1.2175,1.21,1.2025,1.182,1.1805,1.2034,1.2572,1.2601,1.2843,1.3379,1.3396,1.3396,1.3396,1.3396,1.3396,1.3396,1.3396,1.3396,1.3396,1.3396,1.343,0.8415,0.9573,1.0365,1.0241,1.0493,1.0508,0.9444,0.8742,0.8125,0.7518,0.6757,0.6198,0.6198,0.6196,0.6337,0.6738,0.7296,0.0,0.8877,0.9338,0.0,0.0,0.0,0.0,0.0,0.0,0.0,0.0,0.0,0.0,0.0,1.5253,1.5298,1.4698,1.5276,1.532,1.4732,1.5298,1.5298,1.4732,1.532,1.561,1.561,1.6216,0.0,0.0,0.0,0.0,0.0,1.65,1.65,1.65,1.65,1.65,1.65,1.65,1.65,1.65,1.65,1.65,1.6595,1.7126,1.6936,1.65,1.648,1.5692,1.4782,1.4782,1.4354,1.4068,1.4876,1.5089,1.521,1.5668,1.5784,1.5784,1.5799,1.5799,1.5799,1.5799,1.5799,1.5799,1.5799,1.5799,1.5799,1.5784,1.5215,1.4782,1.4781,1.4199,1.354,1.2864,1.2786,1.2519,1.185,1.1805,1.2034,1.2572,1.2601,1.2843,1.3379,1.3396,1.3396,1.3396,1.3396,1.3396,1.3396,1.3396,1.3396,1.3396,1.3396,1.347,0.7463,0.842,0.9244,0.9238,0.9475,0.9503,0.8754,0.8438,0.8024,0.7062,0.6502,0.6254,0.6436,0.6211,0.6325,0.7314,0.7491,0.0,0.0,0.0,0.0,0.0,0.0,0.0,0.0,0.0,0.0,0.0,0.0,0.0,0.0,0.0,1.5521,1.532,1.5898,1.6129,1.5932,1.571,1.5499,1.532,1.5521,1.561,1.561,1.6216,0.0,0.0,0.0,0.0,0.0,1.65,1.65,1.65,1.65,1.65,1.65,1.65,1.65,1.65,1.65,1.65,1.6659,1.7544,1.7731,1.7738,1.846,1.7412,1.5924,1.5742,1.523,1.4845,1.5433,1.558,1.5624,1.5755,1.5799,1.5799,1.5799,1.5799,1.5799,1.5799,1.5799,1.5799,1.5799,1.5799,1.5799,1.5799,1.5619,1.5319,1.4871,1.4603,1.4229,1.3555,1.3481,1.3032,1.1895,1.1805,1.2034,1.2572,1.2601,1.2843,1.3379,1.3396,1.3396,1.3396,1.3396,1.3396,1.3396,1.3396,1.3396,1.3396,1.3396,1.3413,0.6963,0.7713,0.8382,0.848,0.8761,0.8823,0.8127,0.7951,0.7701,0.6787,0.6462,0.6409,0.6573,0.643,0.6612,0.7595,0.7692,0.0,0.0,0.0,0.0,0.0,0.0,0.0,0.0,0.0,0.0,0.0,0.0,0.0,0.0,0.0,1.593,1.593,1.6303,1.65,1.65,1.6129,1.593,1.593,1.593,1.593,1.5964,0.0,0.0,0.0,0.0,0.0,0.0,1.65,1.65,1.65,1.65,1.65,1.65,1.65,1.65,1.65,1.65,1.65,1.6637,1.7524,1.7947,1.8302,1.9369,1.8475,1.7014,1.6603,1.6175,1.5907,1.6084,1.6144,1.6069,1.5858,1.5799,1.5799,1.5799,1.5799,1.5799,1.5799,1.5799,1.5799,1.5799,1.5799,1.5799,1.5799,1.5799,1.5649,1.523,1.517,1.4931,1.4259,1.4184,1.3735,1.2658,1.2314,1.2266,1.2431,1.2543,1.2806,1.3226,1.3346,1.3396,1.3396,1.3396,1.3396,1.3396,1.3396,1.3396,1.3396,1.3396,1.3396,0.0,0.7331,0.7729,0.7832,0.8236,0.839,0.7541,0.7369,0.0,0.6712,0.6599,0.6624,0.6699,0.6837,0.7138,0.7758,0.0,0.0,0.0,0.0,0.0,0.0,0.0,0.0,0.0,0.0,0.0,0.0,0.0,0.0,0.0,0.0,1.65,1.65,1.65,1.65,1.65,1.65,1.65,1.65,1.65,1.65,1.65,0.0,0.0,0.0,0.0,0.0,0.0,1.65,1.65,1.65,1.65,1.65,1.65,1.65,1.65,1.65,1.65,1.65,1.6595,1.7126,1.7686,1.8341,1.935,1.8912,1.7951,1.7371,1.7168,1.7092,1.6842,1.6741,1.6562,1.6009,1.5829,1.5799,1.5799,1.5799,1.5799,1.5799,1.5799,1.5799,1.5799,1.5799,1.5799,1.5799,1.5799,1.5799,1.5799,1.5799,1.5559,1.4946,1.4871,1.4588,1.3929,1.3208,1.2671,1.2324,1.2487,1.2741,1.3022,1.3277,1.3396,1.3396,1.3396,1.3396,1.3396,1.3396,1.3396,1.3396,1.3396,1.3396,0.5568,0.0,0.6738,0.6467,0.7058,0.7546,0.0,0.7103,0.7244,0.6712,0.6599,0.6862,0.7736,0.7556,0.7759,0.9218,0.0,0.0,0.0,0.0,0.0,0.0,0.0,0.0,0.0,0.0,0.0,0.0,0.0,0.0,0.0,0.0,1.65,1.65,1.65,1.65,1.65,1.65,1.65,1.65,1.65,1.65,1.65,0.0,0.0,0.0,0.0,0.0,1.65,1.65,1.65,1.65,1.65,1.65,1.65,1.65,1.65,1.65,1.65,1.65,1.6595,1.7126,1.7947,1.8746,1.9006,1.8538,1.7999,1.8254,1.7954,1.754,1.7487,1.7085,1.6651,1.6517,1.6144,1.5799,1.5799,1.5799,1.5799,1.5799,1.5799,1.5799,1.5799,1.5799,1.5799,1.5799,1.5799,1.5799,1.5799,1.5799,1.5739,1.5574,1.5559,1.529,1.4618,1.3478,1.2932,1.3252,1.2856,1.2799,1.3294,1.3363,1.3396,1.3396,1.3396,1.3396,1.3396,1.3396,1.3396,1.3396,1.3396,1.3396,0.5509,0.5924,0.6378,0.6294,0.6776,0.7212,0.701,0.7003,0.6953,0.6662,0.6599,0.6862,0.7726,0.0,0.0,0.0,0.0,0.0,0.0,0.0,0.0,0.0,0.0,0.0,0.0,0.0,0.0,0.0,0.0,0.0,0.0,0.0,1.6132,1.6132,1.6132,1.6237,1.65,1.65,1.65,1.65,1.65,1.65,1.65,0.0,0.0,0.0,0.0,0.0,1.65,1.65,1.65,1.65,1.65,1.65,1.65,1.65,1.65,1.65,1.65,1.65,1.6595,1.7126,1.7867,1.8574,1.8836,1.8662,1.8462,1.8995,1.8897,1.8493,1.7863,1.7428,1.701,1.6428,1.6039,1.5799,1.5799,1.5799,1.5799,1.5799,1.5799,1.5799,1.5799,1.5799,1.5799,1.5799,1.5799,1.5799,1.5799,1.5799,1.5799,1.5799,1.5799,1.572,1.5509,1.4544,1.3941,1.3919,1.3832,1.391,1.4212,1.4019,1.3743,1.3413,1.3396,1.3396,1.3396,1.3396,1.3396,1.3396,1.3396,1.3396,0.5936,0.6173,0.6435,0.6553,0.6828,0.7126,0.7345,0.7053,0.0,0.0,0.0,0.0,0.0,0.8252,0.0,0.0,0.0,0.0,0.0,0.0,0.0,0.0,0.0,0.0,0.0,0.0,0.0,0.0,0.0,0.0,0.0,0.0,0.0,1.5567,1.5567,1.5793,1.6237,1.6337,1.6412,1.65,1.6412,1.6412,1.65,1.6434,0.0,0.0,0.0,0.0,1.6488,1.64,1.6425,1.6488,1.64,1.6425,1.65,1.65,1.65,1.65,1.65,1.65,1.6573,1.7034,1.7544,1.8066,1.8516,1.8708,1.8874,1.9332,1.9512,1.9313,1.818,1.7873,1.7549,1.6368,1.6084,1.6054,1.5964,1.5934,1.5934,1.5934,1.5858,1.5799,1.5799,1.5799,1.5799,1.5799,1.5799,1.5799,1.5799,1.5799,1.5799,1.5799,1.5842,1.5997,1.6287,1.5877,1.5355,1.4778,1.5038,1.5224,1.5265,1.4889,1.4377,1.3752,1.3735,1.3735,1.3735,1.3735,1.3735,1.3735,1.3735,1.3735,0.6116,0.652,0.6758,0.6168,0.6475,0.7009,0.7325,0.7331,0.7428,0.0,0.0,0.0,0.0,0.9893,1.0319,0.0,0.0,0.0,0.0,0.0,0.0,0.0,0.0,0.0,0.0,0.0,0.0,0.0,0.0,0.0,0.0,0.0,0.0,1.5009,1.5009,1.506,1.5148,1.5613,1.6057,1.6488,1.6045,1.607,1.6475,1.6032,1.607,0.0,0.0,1.65,1.6463,1.6019,1.6095,1.645,1.6007,1.6107,1.65,1.65,1.65,1.65,1.65,1.65,1.6522,1.6595,1.6993,1.7442,1.7524,1.7867,1.8243,1.8322,1.8669,1.8981,1.8774,1.8626,1.8341,1.7594,1.7414,1.725,1.6682,1.6562,1.6562,1.6562,1.6144,1.5799,1.5799,1.5799,1.5799,1.5799,1.5799,1.5799,1.5799,1.5799,1.5799,1.5799,1.6038,1.6246,1.6301,1.6741,1.6962,1.686,1.5808,1.5307,1.5536,1.5474,1.5375,1.5257,1.5257,1.5257,1.5257,1.5257,1.5257,1.5257,1.5257,1.5257,0.6008,0.6192,0.6311,0.6105,0.692,0.7803,0.7959,0.8159,0.8399,0.0,0.0,0.0,0.0,0.0,0.0,0.0,0.0,0.0,0.0,0.0,0.0,0.0,0.0,0.0,0.0,0.0,0.0,0.0,0.0,0.0,0.0,0.0,0.0,0.0,1.4462,1.4614,1.4896,1.4865,1.5097,1.563,1.5399,1.5399,1.5618,1.5387,1.5412,1.563,0.0,1.563,1.5618,1.5374,1.5412,1.563,1.568,1.5856,1.6107,1.6387,1.65,1.65,1.65,1.65,1.65,1.65,1.6858,1.7312,1.7312,1.7463,1.7666,1.7666,1.8046,1.8464,1.8382,1.8317,1.8165,1.7797,1.7713,1.7624,1.7309,1.7234,1.7234,1.7234,1.7026,1.6832,1.6832,1.6832,1.6697,1.6338,1.6278,1.6174,1.5844,1.5799,1.5799,1.5799,1.6094,1.6367,1.6554,1.7027,1.738,1.7561,1.6965,1.6477,1.6214,1.6197,1.6011,1.5612,1.5595,1.5595,1.5595,1.5595,1.5595,1.5595,1.5595,1.5595,0.6018,0.5919,0.5876,0.6173,0.7145,0.8145,0.8606,0.8912,0.9214,0.0,0.0,0.0,0.0,0.0,0.0,0.0,0.0,0.0,0.0,0.0,0.0,0.0,0.0,0.0,0.0,0.0,0.0,0.0,0.0,0.0,0.0,0.0,0.0,0.0,1.3896,1.4079,1.4507,1.4092,1.4236,1.4896,1.4777,1.479,1.4903,1.4777,1.479,1.4896,1.4896,1.4896,1.4884,1.4765,1.4865,1.511,1.5412,1.5668,1.5944,1.6337,1.65,1.65,1.65,1.65,1.6522,1.6659,1.6879,1.7126,1.725,1.7209,1.7118,1.7118,1.7415,1.7758,1.7918,1.8031,1.8104,1.797,1.8057,1.8132,1.7968,1.7938,1.7938,1.7938,1.7818,1.7713,1.7713,1.7713,1.7518,1.701,1.692,1.6756,1.6308,1.6114,1.6053,1.614,1.6311,1.6581,1.7005,1.726,1.7526,1.7789,1.78,1.7557,1.6976,1.6959,1.6688,1.6136,1.612,1.612,1.612,1.612,1.616,1.6203,1.6203,1.6243,0.636,0.6139,0.5891,0.6293,0.6515,0.7113,0.8913,0.9218,0.9541,1.11,0.0,0.0,0.0,0.0,0.0,0.0,0.0,0.0,0.0,0.0,0.0,0.0,0.0,0.0,0.0,0.0,0.0,0.0,0.0,0.0,0.0,0.0,0.0,0.0,0.0,1.3273,1.3323,1.3273,1.3822,1.4884,1.4387,1.4412,1.4871,1.4374,1.4425,1.4896,1.4896,1.4896,1.4865,1.4362,1.4733,1.5613,1.5135,1.5575,1.6437,1.6488,1.65,1.65,1.65,1.65,1.6573,1.7076,1.693,1.6659,1.7146,1.6951,1.6552,1.6552,1.6595,1.6845,1.7833,1.8445,1.8792,1.8656,1.9091,1.9393,1.8762,1.8627,1.8627,1.8627,1.8132,1.7713,1.7713,1.7713,1.7667,1.7654,1.7639,1.7608,1.7579,1.701,1.6789,1.7159,1.6948,1.703,1.767,1.7755,1.7777,1.78,1.78,1.7783,1.7715,1.7715,1.7698,1.7648,1.7648,1.7648,1.7648,1.7648,1.7774,1.8011,1.8011,1.8153,0.5837,0.5848,0.589,0.6299,0.6992,0.0,0.0,0.993,1.0937,1.1902,1.214,0.0,0.0,0.0,0.0,0.0,0.0,0.0,0.0,0.0,0.0,0.0,0.0,0.0,0.0,0.0,0.0,0.0,0.0,0.0,0.0,0.0,0.0,0.0,0.0,1.3198,1.3198,1.3198,1.3428,1.383,1.3647,1.3647,1.3848,1.3634,1.3659,1.383,1.383,1.383,1.3835,1.3622,1.3785,1.4193,1.4708,1.5349,1.6045,1.6375,1.65,1.6552,1.6879,1.6993,1.7097,1.7626,1.7666,1.7524,1.7747,1.7666,1.7483,1.7483,1.7483,1.7585,1.7987,1.8263,1.8555,1.9182,1.9528,1.9633,1.9393,1.9316,1.9316,1.9316,1.9106,1.8942,1.8942,1.8942,1.8807,1.8371,1.8311,1.8177,1.7758,1.7728,1.7823,1.7974,1.7873,1.7971,1.8436,1.8065,1.78,1.78,1.78,1.78,1.78,1.78,1.78,1.78,1.78,1.78,1.78,1.78,1.7938,1.8198,1.8198,1.8341,0.5502,0.5654,0.5894,0.6273,0.0,0.0,0.9294,1.0554,1.1789,1.25,1.2685,1.2675,1.2542,0.0,0.0,0.0,0.0,0.0,0.0,0.0,0.0,0.0,0.0,0.0,0.0,0.0,0.0,0.0,0.0,0.0,0.0,0.0,0.0,0.0,0.0,0.0,1.3198,1.3198,1.3198,1.3198,1.3198,1.3198,1.3198,1.3198,1.3198,1.3198,1.3198,1.3198,1.3198,1.3198,1.3315,1.3584,1.4532,1.5236,1.5764,1.6316,1.6612,1.6837,1.7374,1.7544,1.7646,1.8185,1.8243,1.8145,1.8302,1.8243,1.8106,1.8106,1.8106,1.8145,1.8322,1.8361,1.8574,1.9479,1.9708,1.9708,1.9708,1.9708,1.9708,1.9708,1.98,1.9839,1.9711,1.9927,1.9899,1.9288,1.933,1.9262,1.8803,1.8843,1.8869,1.8752,1.8852,1.9002,1.9224,1.8572,1.8149,1.8149,1.7918,1.78,1.78,1.78,1.78,1.78,1.78,1.78,1.78,1.78,1.7982,1.833,1.833,1.85,0.5502,0.5654,0.589,0.6234,0.0,0.0,1.0199,1.1038,1.1914,1.2973,1.3198,1.3369,1.3973,0.0,0.0,0.0,0.0,0.0,0.0,0.0,0.0,0.0,0.0,0.0,0.0,0.0,0.0,0.0,0.0,0.0,0.0,0.0,0.0,0.0,0.0,0.0,1.3198,1.3198,1.3198,1.3198,1.3198,1.3198,1.3198,1.3198,1.3198,1.3198,1.3198,1.3198,1.3198,1.3198,1.3546,1.4135,1.4689,1.5211,1.5762,1.6297,1.6831,1.7381,1.7927,1.8125,1.8204,1.8727,1.8554,1.8224,1.8746,1.8535,1.8125,1.8125,1.8125,1.8243,1.8765,1.8912,1.9043,1.9566,1.9708,1.9708,1.9708,1.9708,1.9708,1.9693,2.0035,2.0176,1.9782,2.043,2.0845,2.0382,2.0699,2.0991,2.1023,2.043,1.9887,1.955,1.9818,2.0002,2.0002,1.9321,1.891,1.891,1.8234,1.7817,1.78,1.78,1.78,1.78,1.78,1.78,1.78,1.78,1.8089,1.8595,1.8595,1.8842,0.5502,0.5855,0.0,0.7159,0.0,0.0,0.0,1.1791,0.0,0.0,1.2978,1.3059,1.2575,0.0,0.0,0.0,0.0,0.0,0.0,0.0,0.0,0.0,0.0,0.0,0.0,0.0,0.0,0.0,0.0,0.0,0.0,0.0,0.0,0.0,0.0,0.0,1.3198,1.3198,1.3198,1.3198,1.3198,1.3198,1.3198,1.3198,1.3198,1.3198,1.3198,1.3198,1.3198,1.3198,1.3315,1.3534,1.411,1.4611,1.5125,1.6132,1.6782,1.7295,1.8303,1.865,1.8746,1.9281,1.9369,1.9262,1.9406,1.935,1.9225,1.9225,1.9225,1.9262,1.9424,1.946,1.9497,1.9657,1.9708,1.9708,1.9708,1.9708,1.9782,2.007,2.0212,2.0365,2.0582,2.0829,2.0943,2.0813,2.091,2.1102,2.1384,2.125,2.1218,2.1438,2.109,2.0839,2.0839,2.0116,1.9676,1.9676,1.9473,1.8882,1.7834,1.78,1.78,1.78,1.78,1.78,1.78,1.78,1.8089,1.8595,1.8595,1.8842,0.5927,0.6263,0.0,0.7919,0.9358,1.0837,1.2067,0.0,0.0,0.0,0.0,1.3034,0.0,0.0,0.0,0.0,0.0,0.0,0.0,0.0,0.0,0.0,0.0,0.0,0.0,0.0,0.0,0.0,0.0,0.0,0.0,0.0,0.0,0.0,0.0,0.0,1.3198,1.3198,1.3198,1.3198,1.3198,1.3198,1.3198,1.3198,1.3198,1.3215,1.3408,1.3493,1.3493,1.3493,1.3374,1.3253,1.3812,1.4297,1.4823,1.5942,1.6642,1.7146,1.8104,1.8603,1.8863,1.9197,1.9465,1.9708,1.9708,1.9708,1.9708,1.9708,1.9708,1.9708,1.9708,1.9708,1.9708,1.9708,1.9708,1.9747,1.9894,1.9803,1.9836,2.0212,2.0449,2.06,2.0715,2.115,2.1446,2.1276,2.14,2.16,2.1855,2.1884,2.1988,2.2268,2.1904,2.1634,2.1634,2.0923,2.0471,2.0471,2.0183,1.9596,1.8713,1.8667,1.8667,1.8667,1.8667,1.8667,1.8667,1.8667,1.8887,1.9321,1.9447,1.9719,0.6587,0.6826,0.7252,0.861,0.9859,0.0,1.2824,1.3198,1.3077,1.265,0.0,0.0,0.0,0.0,0.0,0.0,0.0,0.0,0.0,0.0,0.0,0.0,0.0,0.0,0.0,0.0,0.0,0.0,0.0,0.0,0.0,0.0,0.0,0.0,0.0,0.0,1.3198,1.3198,1.3215,0.0,1.3267,1.3284,1.3323,1.3284,1.3284,1.334,1.3769,1.395,1.395,1.3917,1.3682,1.3357,1.3752,1.4235,1.4855,1.5766,1.643,1.6951,1.7505,1.8102,1.8627,1.8687,1.9106,1.9633,1.9693,1.9708,1.9708,1.9708,1.9708,1.9708,1.9708,1.9708,1.9708,1.9708,1.9744,1.9856,2.0212,2.0052,1.9945,2.0348,2.0764,2.0943,2.055,2.1492,2.2166,2.1735,2.2032,2.2296,2.2296,2.2296,2.2296,2.2296,2.2296,2.2296,2.2296,2.1684,2.1292,2.1292,2.0606,2.0204,2.0204,2.0069,2.0002,2.0002,2.0002,2.0002,2.0002,2.0002,2.0147,2.0419,2.0747,2.1034,0.6853,0.7439,0.0,0.9696,1.1356,1.2711,1.3113,1.3198,1.3163,1.3064,0.0,0.0,0.0,0.0,0.0,0.0,0.0,0.0,0.0,0.0,0.0,0.0,0.0,0.0,0.0,0.0,0.0,0.0,0.0,0.0,0.0,0.0,0.0,0.0,0.0,1.3198,1.3198,1.3198,1.3374,0.0,1.3752,1.3917,1.4214,1.3885,1.3917,1.423,1.4326,1.4374,1.4358,1.4019,1.4019,1.4198,1.3983,1.436,1.5099,1.5819,1.638,1.6823,1.7471,1.7787,1.7997,1.8538,1.8807,1.9016,1.9543,1.9708,1.9708,1.9708,1.9708,1.9708,1.9708,1.9708,1.9708,1.9708,1.9929,2.0177,2.028,2.0516,2.0845,2.1243,2.1414,2.1568,2.1825,2.2106,2.2268,2.2149,2.2237,2.2296,2.2296,2.2296,2.2296,2.2296,2.2296,2.2296,2.2296,2.2144,2.2073,2.2073,2.189,2.1806,2.1806,2.064,2.0002,2.0002,2.0002,2.0002,2.0002,2.0002,2.0147,2.0419,2.0747,2.1034,0.7439,0.0,0.0,1.0226,0.0,1.2925,1.3146,1.3198,1.3198,1.3198,0.0,0.0,0.0,0.0,0.0,0.0,0.0,0.0,0.0,0.0,0.0,0.0,0.0,0.0,0.0,0.0,0.0,0.0,0.0,0.0,0.0,0.0,0.0,0.0,1.3198,1.3198,1.3198,1.3425,1.3665,1.3901,1.3901,1.41,1.4485,1.4278,1.4406,1.4783,1.4783,1.4783,1.4768,1.4564,1.4485,1.4501,1.4485,1.4737,1.5178,1.5739,1.6083,1.6308,1.6667,1.6981,1.7279,1.7639,1.8177,1.8777,1.9106,1.9453,1.9708,1.9708,1.9708,1.9708,1.9708,1.9708,1.9708,1.9708,2.0017,2.0365,2.0583,2.0829,2.1118,2.1521,2.1597,2.1673,2.1913,2.2149,2.2296,2.2296,2.2296,2.2296,2.2296,2.2296,2.2296,2.2296,2.2296,2.2296,2.2296,2.2296,2.2296,2.2296,2.2296,2.2296,2.2296,2.1536,2.1096,2.1096,2.1096,2.1096,2.1096,2.1096,2.1175,2.1315,2.1785,2.208,0.7809,0.0,0.8478,1.0696,1.1868,0.0,1.3087,1.3198,1.3198,0.0,0.0,0.0,0.0,0.0,0.0,0.0,0.0,0.0,0.0,0.0,0.0,0.0,0.0,0.0,0.0,0.0,0.0,0.0,0.0,0.0,0.0,0.0,1.3198,1.3198,1.3198,1.3198,1.3198,1.3598,1.3818,1.3901,1.4035,1.4278,1.4611,1.469,1.4907,1.521,1.521,1.521,1.521,1.5134,1.4937,1.4752,1.5013,1.5149,1.527,1.5653,1.5799,1.5799,1.5799,1.6129,1.6577,1.6801,1.7608,1.8565,1.8807,1.9256,1.9708,1.9708,1.9747,1.9782,1.9711,1.9747,1.9782,1.9726,2.0017,2.0433,2.0894,2.1118,2.1323,2.1658,2.1718,2.1688,2.1612,2.1988,2.2296,2.2296,2.2296,2.2296,2.2296,2.2296,2.2296,2.2296,2.2296,2.2296,2.2296,2.2296,2.2296,2.2296,2.2296,2.2296,2.2296,2.2296,2.2296,2.2296,2.2296,2.2296,2.2296,2.2349,2.236,2.2374,2.3007,2.3288,0.704,0.0,0.9442,0.0,1.2307,1.256,0.0,0.0,0.0,0.0,0.0,0.0,0.0,0.0,0.0,0.0,0.0,0.0,0.0,0.0,0.0,0.0,0.0,0.0,0.0,0.0,0.0,0.0,0.0,0.0,0.0,1.3198,1.3198,1.3198,1.3198,1.3198,1.3198,1.3267,1.3497,1.3917,1.4611,1.4968,1.5028,1.5433,1.5653,1.5712,1.5712,1.5712,1.5668,1.527,1.5314,1.5595,1.524,1.5359,1.5712,1.5784,1.5799,1.5799,1.5799,1.5858,1.6099,1.7205,1.7699,1.8057,1.9211,1.9633,1.9708,1.9708,1.9947,2.0141,1.98,1.9947,2.0141,1.9782,2.0017,2.0433,2.0894,2.1584,2.2152,2.2194,2.2209,2.2077,2.1673,2.1988,2.2296,2.2296,2.2296,2.2296,2.2296,2.2296,2.2296,2.2296,2.2296,2.2296,2.2296,2.2296,2.2296,2.2296,2.2296,2.2296,2.2296,2.2296,2.2296,2.2296,2.2296,2.2296,2.2296,2.2523,2.2647,2.266,2.3323,2.3621,0.771,0.8762,0.9995,0.0,1.1924,1.2463,1.2701,0.0,0.0,0.0,0.0,0.0,0.0,0.0,0.0,0.0,0.0,0.0,0.0,0.0,0.0,0.0,0.0,0.0,0.0,0.0,0.0,0.0,0.0,0.0,1.3198,1.3198,1.3198,1.3198,1.3198,0.0,1.3198,1.3459,1.3698,1.3917,1.4721,1.4968,1.4783,1.5477,1.5799,1.5799,1.5799,1.5799,1.5784,1.558,1.561,1.5784,1.558,1.5624,1.5799,1.5799,1.5799,1.5799,1.5799,1.5799,1.5949,1.6861,1.7399,1.7878,1.8852,1.9408,1.9708,1.9708,1.9982,2.0263,2.0072,2.0364,2.0615,2.0277,2.0632,2.0991,2.0812,2.1369,2.1988,2.2254,2.2296,2.2237,2.2032,2.2149,2.2296,2.2296,2.2296,2.2296,2.2296,2.2296,2.2296,2.2296,2.2296,2.2296,2.2296,2.2296,2.2296,2.2296,2.2296,2.2296,2.2296,2.2296,2.2296,2.2296,2.2296,2.2296,2.2296,2.2577,2.2708,2.2721,2.3392,2.3703,0.0,0.0,0.9552,1.0363,1.1177,1.1889,0.0,0.0,0.0,0.0,0.0,0.0,0.0,0.0,0.0,0.0,0.0,0.0,0.0,0.0,0.0,0.0,0.0,0.0,0.0,0.0,0.0,0.0,0.0,0.0,1.3215,1.3408,1.3425,1.3215,1.3323,1.3374,1.3374,1.3719,1.3901,1.3917,1.4517,1.469,1.4533,1.527,1.5682,1.5799,1.5799,1.5799,1.5799,1.5799,1.5799,1.5799,1.5799,1.5799,1.5799,1.5799,1.5799,1.5799,1.5799,1.5799,1.5933,1.6697,1.7294,1.7863,1.8702,1.9374,1.9856,1.9856,2.0227,2.0616,2.05,2.0813,2.1087,2.0763,2.1086,2.1368,2.1087,2.1415,2.1838,2.2077,2.2223,2.2237,2.2092,2.2194,2.2296,2.2296,2.2296,2.2296,2.2296,2.2296,2.2296,2.2296,2.2296,2.2296,2.2296,2.2296,2.2296,2.2296,2.2296,2.2296,2.2296,2.2296,2.2296,2.2296,2.2296,2.2296,2.2296,2.2577,2.2746,2.2848,2.3426,2.3753,0.0,0.7614,0.0,0.9705,1.0136,0.0,0.0,0.0,0.0,0.0,0.0,0.0,0.0,0.0,0.0,0.0,0.0,0.0,0.0,0.0,0.0,0.0,0.0,0.0,0.0,0.0,0.0,0.0,0.0,0.0,1.3215,1.3983,1.4052,1.3232,1.3632,1.3868,1.3868,1.3885,1.3901,1.3901,1.395,1.4149,1.4517,1.4937,1.5389,1.5799,1.5799,1.5799,1.5799,1.5799,1.5799,1.5799,1.5799,1.5799,1.5799,1.5799,1.5799,1.5799,1.5799,1.5799,1.6008,1.725,1.7667,1.7938,1.9241,1.9949,2.0263,2.0263,2.0878,2.1445,2.1055,2.126,2.146,2.1071,2.1023,2.126,2.2034,2.2237,2.2135,2.1718,2.2003,2.212,2.1553,2.193,2.2296,2.2296,2.2296,2.2296,2.2296,2.2296,2.2296,2.2296,2.2296,2.2296,2.2296,2.2296,2.2296,2.2296,2.2296,2.2296,2.2296,2.2296,2.2296,2.2296,2.2296,2.2296,2.2296,2.2577,2.2855,2.3177,2.3533,2.3876,0.0,0.0,0.0,0.8951,0.9643,1.0212,0.0,0.0,0.0,0.0,0.0,0.0,0.0,0.0,0.0,0.0,0.0,0.0,0.0,0.0,0.0,0.0,0.0,0.0,0.0,0.0,0.0,0.0,0.0,0.0,1.4019,1.4326,1.4358,1.4035,1.395,1.3901,1.3901,1.4165,1.4294,1.4294,1.4294,1.4501,1.4891,1.5028,1.5359,1.5799,1.5799,1.5799,1.5799,1.5799,1.5799,1.5799,1.5799,1.5799,1.5799,1.5799,1.5799,1.5799,1.5799,1.5799,1.6009,1.728,1.7713,1.8002,1.9606,2.0193,2.0365,2.0666,2.1149,2.1567,2.1414,2.172,2.2003,2.1871,2.1825,2.1915,2.2223,2.2296,2.2237,2.2092,2.2194,2.2223,2.2003,2.2166,2.2296,2.2296,2.2296,2.2296,2.2296,2.2296,2.2296,2.2296,2.2296,2.2296,2.2296,2.2296,2.2296,2.2296,2.2296,2.2296,2.2296,2.2296,2.2296,2.2296,2.2296,2.2296,2.2296,2.2781,2.3081,2.3212,2.3756,2.4084,0.8394,0.0,0.0,0.0,0.0,0.9642,0.0,0.0,0.0,0.0,0.0,0.0,0.0,0.0,0.0,0.0,0.0,0.0,0.0,0.0,0.0,0.0,0.0,0.0,0.0,0.0,0.0,0.0,0.0,0.0,1.4485,1.4627,1.4705,1.4705,1.431,1.4165,1.4294,1.4438,1.4564,1.4705,1.4564,1.4705,1.5104,1.5104,1.5359,1.5799,1.5799,1.5799,1.5799,1.5799,1.5799,1.5799,1.5799,1.5799,1.5799,1.5799,1.5799,1.5799,1.5799,1.5799,1.6038,1.7469,1.794,1.8262,2.0011,2.0633,2.0797,2.1118,2.1507,2.1823,2.1823,2.2077,2.2296,2.2296,2.2296,2.2296,2.2296,2.2296,2.2296,2.2296,2.2374,2.2415,2.2324,2.247,2.2535,2.2338,2.2374,2.2398,2.231,2.2296,2.2296,2.2296,2.2296,2.2296,2.2296,2.2296,2.2296,2.2296,2.2296,2.2296,2.2296,2.2296,2.2296,2.2296,2.2388,2.2422,2.244,2.284,2.3093,2.3212,2.3774,2.4094,0.0,0.0,0.0,0.0,0.0,0.0,0.0,0.0,0.0,0.0,0.0,0.0,0.0,0.0,0.0,0.0,0.0,0.0,0.0,0.0,0.0,0.0,0.0,0.0,0.0,0.0,0.0,0.0,0.0,1.41,1.4517,1.4907,1.5119,1.5104,1.4737,1.4721,1.5104,1.4737,1.4737,1.5119,1.4705,1.4737,1.5119,1.5119,1.5359,1.5799,1.5799,1.5799,1.5799,1.5799,1.5799,1.5799,1.5799,1.5799,1.5799,1.5799,1.5799,1.5799,1.5799,1.5813,1.6096,1.7837,1.8408,1.8749,2.0496,2.1291,2.1597,2.1628,2.1943,2.2296,2.2296,2.2296,2.2296,2.2296,2.2296,2.231,2.231,2.231,2.231,2.231,2.2541,2.2621,2.2374,2.2824,2.2989,2.2419,2.2537,2.2599,2.2335,2.2296,2.2296,2.2296,2.231,2.231,2.231,2.2324,2.2338,2.2338,2.2338,2.2338,2.2338,2.2338,2.2338,2.2338,2.259,2.2721,2.2721,2.2721,2.2898,2.3224,2.3555,2.3896,0.8538,0.0,0.0,0.0,0.0,0.0,0.0,0.0,0.0,0.0,0.0,0.0,0.0,0.0,0.0,0.0,0.0,0.0,0.0,0.0,0.0,0.0,0.0,0.0,0.0,0.0,0.0,0.0,1.4326,1.4658,1.5404,1.5551,1.5448,1.5119,1.5329,1.5329,1.5104,1.5329,1.5492,1.5595,1.5149,1.5165,1.5595,1.524,1.5359,1.5799,1.5799,1.5799,1.5799,1.5799,1.5799,1.5799,1.5799,1.5799,1.5799,1.5799,1.5799,1.5799,1.5799,1.5955,1.6408,1.7912,1.8558,1.9108,2.0883,2.1506,2.1673,2.2017,2.2194,2.2296,2.2296,2.2296,2.2296,2.2296,2.2296,2.2346,2.255,2.2586,2.2586,2.2586,2.2853,2.3081,2.3165,2.3183,2.3099,2.2773,2.2699,2.2599,2.2335,2.2296,2.2296,2.2296,2.2477,2.2586,2.2586,2.2819,2.2958,2.2958,2.2958,2.2958,2.2958,2.2958,2.2958,2.2958,2.3021,2.3057,2.3057,2.3311,2.3459,2.3566,2.3907,2.4103,0.9263,0.0,0.0,0.0,0.0,0.0,0.0,0.8992,0.0,0.0,0.0,0.0,0.0,0.0,0.0,0.0,0.0,0.0,0.0,0.0,0.0,0.0,0.0,0.0,0.0,0.0,0.0,0.0,1.4342,1.4627,1.5463,1.5682,1.5668,1.5404,1.5463,1.5463,1.5389,1.5463,1.561,1.5799,1.5522,1.5551,1.5784,1.5522,1.5551,1.5799,1.5799,1.5799,1.5799,1.5799,1.5799,1.5799,1.5799,1.5799,1.5799,1.5799,1.5799,1.5827,1.5955,1.6136,1.6587,1.8305,1.8995,1.9495,2.1332,2.1899,2.1943,2.2223,2.2296,2.2296,2.2296,2.2296,2.2296,2.2296,2.2388,2.2514,2.2673,2.2923,2.3081,2.2935,2.3177,2.3426,2.35,2.3448,2.3288,2.2958,2.2789,2.2599,2.2335,2.2296,2.2349,2.245,2.2612,2.2893,2.3377,2.3599,2.385,2.4181,2.4199,2.4199,2.4199,2.3886,2.3696,2.3696,2.3506,2.3488,2.3628,2.3671,2.3774,2.3917,2.4103,2.419,1.0145,1.0402,0.0,0.0,0.0,0.0,0.9514,0.9127,0.0,0.0,0.0,0.0,0.0,0.0,0.0,0.0,0.0,0.0,0.0,0.0,0.0,0.0,0.0,0.0,0.0,0.0,1.3564,1.4438,1.4262,1.4422,1.5134,1.558,1.5799,1.5799,1.5404,1.5389,1.5799,1.5389,1.5389,1.5799,1.5799,1.5799,1.5799,1.5799,1.5799,1.5799,1.5799,1.5799,1.5799,1.5799,1.5799,1.5799,1.5799,1.5799,1.5799,1.5842,1.5856,1.5898,1.6232,1.638,1.6732,1.8732,1.9468,1.988,2.1639,2.2229,2.2296,2.2296,2.2296,2.2296,2.2296,2.2296,2.2296,2.2296,2.2473,2.2656,2.2695,2.32,2.3566,2.3311,2.3533,2.3714,2.3599,2.3649,2.3522,2.3019,2.2802,2.2599,2.2335,2.2296,2.2402,2.2621,2.2721,2.3212,2.4304,2.4473,2.4794,2.5488,2.5638,2.5651,2.5524,2.4954,2.4634,2.4634,2.4138,2.3998,2.419,2.3907,2.3907,2.419,2.419,2.419,1.0892,1.0861,1.0735,1.0093,0.0,0.0,0.0,0.9448,0.0,0.0,0.0,0.0,0.0,0.0,0.0,0.0,0.0,0.0,0.0,0.0,0.0,0.0,0.0,0.0,0.0,0.0,1.3564,1.4438,1.5089,1.5492,1.5653,1.5755,1.5799,1.5799,1.5712,1.5712,1.5799,1.5712,1.5712,1.5799,1.5799,1.5799,1.5799,1.5799,1.5799,1.5799,1.5799,1.5799,1.5799,1.5799,1.5799,1.5799,1.5799,1.5799,1.5842,1.6094,1.6205,1.6246,1.6581,1.6876,1.7269,1.8292,1.9201,2.0089,2.1113,2.1837,2.2296,2.2296,2.2296,2.2296,2.2296,2.2296,2.2296,2.2296,2.2335,2.244,2.266,2.3021,2.3357,2.3566,2.3876,2.4094,2.4074,2.3847,2.3566,2.3206,2.2885,2.2599,2.2335,2.2296,2.2307,2.2374,2.2807,2.3447,2.4329,2.4888,2.5161,2.5043,2.5909,2.5986,2.5079,2.5764,2.6177,2.6177,2.5437,2.4774,2.419,2.4123,2.4141,2.419,2.419,2.419,1.1797,1.193,1.2061,1.1701,0.0,0.0,0.0,0.0,0.0,0.0,0.0,0.0,0.0,0.0,0.0,0.0,0.0,0.0,0.0,0.0,0.0,0.0,0.0,0.0,0.0,0.0,1.357,1.4708,1.5418,1.5799,1.5799,1.5799,1.5799,1.5799,1.5799,1.5799,1.5799,1.5799,1.5799,1.5799,1.5799,1.5799,1.5799,1.5799,1.5799,1.5799,1.5799,1.5799,1.5813,1.5983,1.6053,1.6053,1.6053,1.6053,1.608,1.6421,1.6541,1.6594,1.6926,1.7163,1.7448,1.8352,1.9265,2.0137,2.097,2.1718,2.2296,2.2296,2.2296,2.2296,2.2296,2.2296,2.2296,2.2296,2.2398,2.2537,2.2656,2.2972,2.3247,2.3414,2.3577,2.3746,2.3917,2.3671,2.3335,2.3009,2.3002,2.2877,2.2358,2.2617,2.2753,2.2525,2.3277,2.4177,2.5159,2.6074,2.6706,2.6927,2.7478,2.7537,2.697,2.7105,2.7016,2.6602,2.6209,2.5805,2.5401,2.5401,2.4979,2.419,2.419,2.419,0.0,0.0,0.0,0.0,0.0,1.2738,0.0,0.0,0.0,0.0,0.0,0.0,0.0,0.0,0.0,0.0,0.0,0.0,0.0,0.0,0.0,0.0,0.0,0.0,0.0,0.0,1.3376,1.4643,1.5167,1.547,1.5604,1.5724,1.5799,1.5799,1.5799,1.5799,1.5799,1.5799,1.5799,1.5799,1.5799,1.5799,1.5799,1.5799,1.5842,1.5884,1.5827,1.587,1.6011,1.6219,1.6342,1.6409,1.6409,1.6409,1.645,1.676,1.6904,1.6939,1.7272,1.7392,1.7538,1.8417,1.927,2.0183,2.1126,2.1837,2.2296,2.2296,2.2296,2.2296,2.2296,2.2296,2.2296,2.2296,2.2463,2.2621,2.2621,2.2873,2.3105,2.3105,2.3153,2.3288,2.3555,2.3335,2.3061,2.2942,2.3195,2.3241,2.2784,2.3241,2.3473,2.3081,2.3924,2.4944,2.602,2.7083,2.7931,2.8548,2.8825,2.8909,2.8679,2.826,2.764,2.6851,2.6833,2.6759,2.6602,2.6602,2.5933,2.4667,2.4707,2.4717,0.0,0.0,0.0,0.0,1.4319,0.0,0.0,0.0,0.0,0.0,0.0,0.0,0.0,0.0,0.0,0.0,0.0,0.0,0.0,0.0,0.0,0.0,0.0,0.0,0.0,0.0,0.0,1.3367,1.3799,1.4288,1.4886,1.5484,1.5799,1.5799,1.5799,1.5799,1.5799,1.5799,1.5799,1.5799,1.5799,1.5799,1.5799,1.5799,1.5955,1.6232,1.5926,1.6136,1.6659,1.6423,1.6474,1.6738,1.6738,1.6738,1.6776,1.7126,1.7248,1.7296,1.7635,1.7738,1.7755,1.789,1.8882,2.0272,2.1721,2.2229,2.2296,2.2296,2.2296,2.2296,2.2296,2.2296,2.2296,2.2296,2.2307,2.2349,2.2349,2.2563,2.2759,2.2759,2.2996,2.32,2.3247,2.2984,2.2989,2.3652,2.3571,2.3611,2.4186,2.4321,2.4354,2.4298,2.4689,2.5264,2.6133,2.684,2.7221,2.7063,2.8282,2.8552,2.7526,2.8376,2.8491,2.7677,2.7669,2.731,2.6602,2.6602,2.6521,2.6337,2.6506,2.6581,0.0,0.0,0.0,0.0,0.0,0.0,1.3354,0.0,1.2678,0.0,0.0,0.0,0.0,0.0,0.0,0.0,0.0,0.0,0.0,0.0,0.0,0.0,0.0,0.0,0.0,0.0,0.0,0.0,0.0,1.3688,1.4751,1.5065,1.5395,1.5784,1.5799,1.5799,1.5799,1.5799,1.5799,1.5799,1.5997,1.5983,1.5813,1.6205,1.6355,1.6301,1.6369,1.6541,1.6802,1.6863,1.6948,1.7113,1.7301,1.7264,1.7126,1.7467,1.7584,1.7612,1.7755,1.78,1.7935,1.8797,1.9507,2.0289,2.184,2.2296,2.2296,2.2296,2.2296,2.2296,2.2296,2.2296,2.2296,2.2296,2.2296,2.2296,2.2296,2.2388,2.2463,2.2463,2.2581,2.2811,2.3243,2.3352,2.3446,2.3599,2.4226,2.4628,2.4508,2.488,2.4966,2.4541,2.5229,2.5831,2.6175,2.7255,2.7851,2.774,2.8531,2.8794,2.8304,2.8745,2.884,2.8503,2.8503,2.8326,2.7996,2.7996,2.7996,2.797,2.723,2.6907,1.6204,0.0,0.0,0.0,0.0,0.0,0.0,0.0,0.0,0.0,0.0,0.0,0.0,0.0,0.0,0.0,0.0,0.0,0.0,0.0,0.0,0.0,0.0,0.0,0.0,0.0,0.0,0.0,0.0,0.0,1.4182,1.4601,1.502,1.5514,1.5709,1.5799,1.5799,1.5799,1.5799,1.5799,1.6136,1.6163,1.5955,1.6528,1.6725,1.6578,1.6738,1.6904,1.7093,1.7236,1.7356,1.7451,1.7704,1.7658,1.7479,1.7704,1.78,1.78,1.78,1.7918,1.8307,1.9592,2.0149,2.0572,2.189,2.2296,2.2296,2.2296,2.2296,2.2296,2.2296,2.2296,2.2296,2.2296,2.2296,2.2296,2.2296,2.2296,2.2347,2.2564,2.2598,2.2835,2.3562,2.3745,2.3816,2.3979,2.4915,2.549,2.5151,2.5558,2.5693,2.5168,2.5934,2.6504,2.6504,2.7668,2.8446,2.8552,2.8839,2.9005,2.9005,2.9005,2.9005,2.9005,2.9005,2.9005,2.9005,2.9005,2.9005,2.8968,2.8027,2.7587,0.0,0.0,0.0,1.595,0.0,0.0,0.0,0.0,1.4233,0.0,0.0,0.0,0.0,0.0,0.0,0.0,0.0,0.0,0.0,0.0,0.0,0.0,0.0,0.0,0.0,0.0,0.0,0.0,0.0,0.0,1.2789,1.4092,1.4811,1.4841,1.5455,1.5799,1.5799,1.5799,1.5799,1.5799,1.6136,1.6301,1.6301,1.6646,1.6964,1.726,1.6942,1.7167,1.7738,1.7427,1.7502,1.7789,1.78,1.7789,1.7789,1.78,1.78,1.78,1.78,1.8268,1.8995,1.9761,2.0534,2.1309,2.2073,2.2296,2.2296,2.2296,2.2296,2.2296,2.2296,2.2296,2.2296,2.2296,2.2296,2.2296,2.2296,2.2296,2.2499,2.3224,2.3359,2.3596,2.4338,2.3881,2.3898,2.5321,2.5575,2.5862,2.6539,2.664,2.6674,2.6623,2.7,2.7251,2.7251,2.797,2.8565,2.897,2.8994,2.9005,2.9005,2.9005,2.9005,2.9005,2.9005,2.9005,2.9005,2.9005,2.9005,2.9005,2.9222,2.9309,0.0,0.0,1.7557,1.657,0.0,0.0,0.0,0.0,0.0,0.0,0.0,0.0,0.0,0.0,0.0,0.0,0.0,0.0,0.0,0.0,0.0,0.0,0.0,0.0,0.0,0.0,0.0,0.0,0.0,0.0,0.0,1.3658,1.4333,1.4796,1.5454,1.5799,1.5799,1.5799,1.5799,1.5813,1.6353,1.6514,1.6328,1.7101,1.7408,1.7308,1.742,1.7589,1.7789,1.7681,1.7692,1.78,1.78,1.78,1.78,1.78,1.78,1.78,1.78,1.8285,1.9012,1.9761,2.0551,2.1343,2.209,2.2296,2.2296,2.2296,2.2077,2.1913,2.2223,2.2077,2.1913,2.2223,2.2296,2.2296,2.2296,2.2682,2.3105,2.3342,2.3797,2.4372,2.5101,2.5017,2.5033,2.5508,2.6031,2.642,2.6657,2.6691,2.6691,2.6691,2.7051,2.7303,2.7303,2.7988,2.8565,2.8964,2.9005,2.9005,2.9005,2.9005,2.9005,2.9005,2.9005,2.9005,2.9005,2.9005,2.9005,2.9005,2.9089,2.9225,1.7704,1.78,0.0,0.0,1.6333,0.0,1.4723,0.0,0.0,0.0,0.0,0.0,0.0,0.0,0.0,0.0,0.0,0.0,0.0,0.0,0.0,0.0,0.0,0.0,0.0,0.0,0.9037,1.0049,0.998,0.0,0.0,0.0,1.375,1.4423,1.5095,1.5559,1.5799,1.5799,1.5799,1.5813,1.6474,1.6686,1.6501,1.7396,1.7681,1.7502,1.7704,1.78,1.78,1.78,1.78,1.78,1.78,1.78,1.7811,1.7922,1.8003,1.8102,1.8167,1.8744,1.9534,2.0204,2.0957,2.1684,2.2175,2.2296,2.2296,2.2296,2.2092,2.1913,2.2223,2.2077,2.1928,2.2223,2.2296,2.2296,2.2296,2.2885,2.3477,2.3731,2.4389,2.5134,2.5862,2.5998,2.5998,2.5998,2.6387,2.6691,2.6691,2.6824,2.6923,2.6923,2.7376,2.7747,2.789,2.8342,2.8719,2.8975,2.9005,2.9005,2.9005,2.9005,2.9005,2.9005,2.9005,2.9005,2.9005,2.9089,2.9145,2.9145,2.9145,2.9225]}]]